<?xml version="1.0" encoding="UTF-8" standalone="no" ?>
<gpx xmlns="http://www.topografix.com/GPX/1/1" xmlns:xsi="http://www.w3.org/2001/XMLSchema-instance" xsi:schemaLocation="http://www.topografix.com/GPX/1/1 http://www.topografix.com/GPX/1/1/gpx.xsd" version="1.1" creator="VisuGPX - https://www.visugpx.com">
  <metadata>
    <name>pr13 desaignes/noziere</name>
    <desc><![CDATA[probleme balisage entre le vergier et la pote chemin non cadastre clôture sur le chemin entre le gouy et noziere mauvais balisage nouveau chemin d\'acces au ruine de rocheboine]]></desc>
  </metadata>
  <trk>
    <name><![CDATA[Tracé 11 déc. 2015 08:22:33]]></name>
    <trkseg>
      <trkpt lat="44.99581" lon="4.5167">
        <ele>394</ele>
        <time>2015-12-11T07:22:33Z</time>
      </trkpt>
      <trkpt lat="44.99588" lon="4.51663">
        <ele>399</ele>
        <time>2015-12-11T07:23:56Z</time>
      </trkpt>
      <trkpt lat="44.99594" lon="4.51654">
        <ele>405</ele>
        <time>2015-12-11T07:24:27Z</time>
      </trkpt>
      <trkpt lat="44.99612" lon="4.51661">
        <ele>405</ele>
        <time>2015-12-11T07:24:30Z</time>
      </trkpt>
      <trkpt lat="44.99635" lon="4.51671">
        <ele>405</ele>
        <time>2015-12-11T07:24:34Z</time>
      </trkpt>
      <trkpt lat="44.99662" lon="4.51676">
        <ele>404</ele>
        <time>2015-12-11T07:24:38Z</time>
      </trkpt>
      <trkpt lat="44.9969" lon="4.51671">
        <ele>403</ele>
        <time>2015-12-11T07:24:42Z</time>
      </trkpt>
      <trkpt lat="44.99718" lon="4.51661">
        <ele>402</ele>
        <time>2015-12-11T07:24:46Z</time>
      </trkpt>
      <trkpt lat="44.99747" lon="4.51634">
        <ele>400</ele>
        <time>2015-12-11T07:24:51Z</time>
      </trkpt>
      <trkpt lat="44.99765" lon="4.51614">
        <ele>399</ele>
        <time>2015-12-11T07:24:55Z</time>
      </trkpt>
      <trkpt lat="44.99794" lon="4.51608">
        <ele>398</ele>
        <time>2015-12-11T07:24:59Z</time>
      </trkpt>
      <trkpt lat="44.99819" lon="4.51619">
        <ele>397</ele>
        <time>2015-12-11T07:25:04Z</time>
      </trkpt>
      <trkpt lat="44.99847" lon="4.51632">
        <ele>395</ele>
        <time>2015-12-11T07:25:08Z</time>
      </trkpt>
      <trkpt lat="44.99869" lon="4.5164">
        <ele>394</ele>
        <time>2015-12-11T07:25:12Z</time>
      </trkpt>
      <trkpt lat="44.9989" lon="4.51648">
        <ele>394</ele>
        <time>2015-12-11T07:25:16Z</time>
      </trkpt>
      <trkpt lat="44.99906" lon="4.51654">
        <ele>393</ele>
        <time>2015-12-11T07:25:20Z</time>
      </trkpt>
      <trkpt lat="44.99927" lon="4.51652">
        <ele>393</ele>
        <time>2015-12-11T07:25:24Z</time>
      </trkpt>
      <trkpt lat="44.99937" lon="4.51639">
        <ele>392</ele>
        <time>2015-12-11T07:25:29Z</time>
      </trkpt>
      <trkpt lat="44.99952" lon="4.51619">
        <ele>391</ele>
        <time>2015-12-11T07:25:33Z</time>
      </trkpt>
      <trkpt lat="44.99958" lon="4.51612">
        <ele>391</ele>
        <time>2015-12-11T07:25:35Z</time>
      </trkpt>
      <trkpt lat="44.99915" lon="4.51589">
        <ele>391</ele>
        <time>2015-12-11T07:25:44Z</time>
      </trkpt>
      <trkpt lat="45.00005" lon="4.51572">
        <ele>392</ele>
        <time>2015-12-11T07:25:48Z</time>
      </trkpt>
      <trkpt lat="45.00016" lon="4.5156">
        <ele>393</ele>
        <time>2015-12-11T07:25:52Z</time>
      </trkpt>
      <trkpt lat="45.00023" lon="4.51552">
        <ele>393</ele>
        <time>2015-12-11T07:25:56Z</time>
      </trkpt>
      <trkpt lat="45.00033" lon="4.51532">
        <ele>393</ele>
        <time>2015-12-11T07:26:00Z</time>
      </trkpt>
      <trkpt lat="45.00041" lon="4.51521">
        <ele>393</ele>
        <time>2015-12-11T07:26:03Z</time>
      </trkpt>
      <trkpt lat="45.00049" lon="4.51502">
        <ele>393</ele>
        <time>2015-12-11T07:26:08Z</time>
      </trkpt>
      <trkpt lat="45.00055" lon="4.51494">
        <ele>392</ele>
        <time>2015-12-11T07:26:11Z</time>
      </trkpt>
      <trkpt lat="45.00065" lon="4.51485">
        <ele>392</ele>
        <time>2015-12-11T07:26:15Z</time>
      </trkpt>
      <trkpt lat="45.00075" lon="4.51477">
        <ele>392</ele>
        <time>2015-12-11T07:26:19Z</time>
      </trkpt>
      <trkpt lat="45.00085" lon="4.51472">
        <ele>392</ele>
        <time>2015-12-11T07:26:22Z</time>
      </trkpt>
      <trkpt lat="45.00084" lon="4.51483">
        <ele>392</ele>
        <time>2015-12-11T07:26:30Z</time>
      </trkpt>
      <trkpt lat="45.00075" lon="4.51494">
        <ele>392</ele>
        <time>2015-12-11T07:26:34Z</time>
      </trkpt>
      <trkpt lat="45.0007" lon="4.51502">
        <ele>392</ele>
        <time>2015-12-11T07:26:37Z</time>
      </trkpt>
      <trkpt lat="45.00059" lon="4.51515">
        <ele>392</ele>
        <time>2015-12-11T07:26:42Z</time>
      </trkpt>
      <trkpt lat="45.00055" lon="4.51521">
        <ele>392</ele>
        <time>2015-12-11T07:26:45Z</time>
      </trkpt>
      <trkpt lat="45.00044" lon="4.51534">
        <ele>392</ele>
        <time>2015-12-11T07:26:50Z</time>
      </trkpt>
      <trkpt lat="45.00037" lon="4.51543">
        <ele>392</ele>
        <time>2015-12-11T07:26:53Z</time>
      </trkpt>
      <trkpt lat="45.00028" lon="4.51562">
        <ele>392</ele>
        <time>2015-12-11T07:26:58Z</time>
      </trkpt>
      <trkpt lat="45.00017" lon="4.5159">
        <ele>393</ele>
        <time>2015-12-11T07:27:02Z</time>
      </trkpt>
      <trkpt lat="45.0001" lon="4.51607">
        <ele>393</ele>
        <time>2015-12-11T07:27:06Z</time>
      </trkpt>
      <trkpt lat="44.99998" lon="4.51616">
        <ele>393</ele>
        <time>2015-12-11T07:27:11Z</time>
      </trkpt>
      <trkpt lat="44.99987" lon="4.5163">
        <ele>393</ele>
        <time>2015-12-11T07:27:14Z</time>
      </trkpt>
      <trkpt lat="44.99974" lon="4.51648">
        <ele>394</ele>
        <time>2015-12-11T07:27:18Z</time>
      </trkpt>
      <trkpt lat="44.99956" lon="4.5167">
        <ele>394</ele>
        <time>2015-12-11T07:27:23Z</time>
      </trkpt>
      <trkpt lat="44.99937" lon="4.51697">
        <ele>394</ele>
        <time>2015-12-11T07:27:28Z</time>
      </trkpt>
      <trkpt lat="44.99922" lon="4.51724">
        <ele>395</ele>
        <time>2015-12-11T07:27:32Z</time>
      </trkpt>
      <trkpt lat="44.9991" lon="4.51749">
        <ele>395</ele>
        <time>2015-12-11T07:27:36Z</time>
      </trkpt>
      <trkpt lat="44.999" lon="4.51766">
        <ele>395</ele>
        <time>2015-12-11T07:27:39Z</time>
      </trkpt>
      <trkpt lat="44.99886" lon="4.518">
        <ele>394</ele>
        <time>2015-12-11T07:27:44Z</time>
      </trkpt>
      <trkpt lat="44.99869" lon="4.5184">
        <ele>394</ele>
        <time>2015-12-11T07:27:49Z</time>
      </trkpt>
      <trkpt lat="44.99859" lon="4.51864">
        <ele>394</ele>
        <time>2015-12-11T07:27:52Z</time>
      </trkpt>
      <trkpt lat="44.99843" lon="4.51901">
        <ele>394</ele>
        <time>2015-12-11T07:27:56Z</time>
      </trkpt>
      <trkpt lat="44.99826" lon="4.51934">
        <ele>394</ele>
        <time>2015-12-11T07:28:00Z</time>
      </trkpt>
      <trkpt lat="44.99819" lon="4.51969">
        <ele>394</ele>
        <time>2015-12-11T07:28:04Z</time>
      </trkpt>
      <trkpt lat="44.99814" lon="4.51991">
        <ele>394</ele>
        <time>2015-12-11T07:28:07Z</time>
      </trkpt>
      <trkpt lat="44.99802" lon="4.52031">
        <ele>394</ele>
        <time>2015-12-11T07:28:12Z</time>
      </trkpt>
      <trkpt lat="44.99799" lon="4.52085">
        <ele>394</ele>
        <time>2015-12-11T07:28:17Z</time>
      </trkpt>
      <trkpt lat="44.99796" lon="4.52127">
        <ele>395</ele>
        <time>2015-12-11T07:28:21Z</time>
      </trkpt>
      <trkpt lat="44.99791" lon="4.52156">
        <ele>395</ele>
        <time>2015-12-11T07:28:24Z</time>
      </trkpt>
      <trkpt lat="44.99781" lon="4.52204">
        <ele>395</ele>
        <time>2015-12-11T07:28:29Z</time>
      </trkpt>
      <trkpt lat="44.9978" lon="4.52245">
        <ele>395</ele>
        <time>2015-12-11T07:28:33Z</time>
      </trkpt>
      <trkpt lat="44.99788" lon="4.52293">
        <ele>395</ele>
        <time>2015-12-11T07:28:38Z</time>
      </trkpt>
      <trkpt lat="44.99792" lon="4.52333">
        <ele>396</ele>
        <time>2015-12-11T07:28:42Z</time>
      </trkpt>
      <trkpt lat="44.998" lon="4.52364">
        <ele>396</ele>
        <time>2015-12-11T07:28:46Z</time>
      </trkpt>
      <trkpt lat="44.9981" lon="4.52394">
        <ele>397</ele>
        <time>2015-12-11T07:28:51Z</time>
      </trkpt>
      <trkpt lat="44.99817" lon="4.52414">
        <ele>397</ele>
        <time>2015-12-11T07:28:54Z</time>
      </trkpt>
      <trkpt lat="44.99821" lon="4.52434">
        <ele>397</ele>
        <time>2015-12-11T07:28:58Z</time>
      </trkpt>
      <trkpt lat="44.99803" lon="4.52453">
        <ele>397</ele>
        <time>2015-12-11T07:29:02Z</time>
      </trkpt>
      <trkpt lat="44.99788" lon="4.52485">
        <ele>397</ele>
        <time>2015-12-11T07:29:07Z</time>
      </trkpt>
      <trkpt lat="44.99775" lon="4.52514">
        <ele>398</ele>
        <time>2015-12-11T07:29:11Z</time>
      </trkpt>
      <trkpt lat="44.99766" lon="4.52545">
        <ele>398</ele>
        <time>2015-12-11T07:29:15Z</time>
      </trkpt>
      <trkpt lat="44.99756" lon="4.52574">
        <ele>398</ele>
        <time>2015-12-11T07:29:19Z</time>
      </trkpt>
      <trkpt lat="44.99738" lon="4.52603">
        <ele>398</ele>
        <time>2015-12-11T07:29:24Z</time>
      </trkpt>
      <trkpt lat="44.99722" lon="4.52639">
        <ele>398</ele>
        <time>2015-12-11T07:29:29Z</time>
      </trkpt>
      <trkpt lat="44.99707" lon="4.5267">
        <ele>397</ele>
        <time>2015-12-11T07:29:32Z</time>
      </trkpt>
      <trkpt lat="44.99692" lon="4.52702">
        <ele>397</ele>
        <time>2015-12-11T07:29:36Z</time>
      </trkpt>
      <trkpt lat="44.99677" lon="4.52732">
        <ele>397</ele>
        <time>2015-12-11T07:29:40Z</time>
      </trkpt>
      <trkpt lat="44.9966" lon="4.52761">
        <ele>397</ele>
        <time>2015-12-11T07:29:44Z</time>
      </trkpt>
      <trkpt lat="44.99642" lon="4.5279">
        <ele>397</ele>
        <time>2015-12-11T07:29:48Z</time>
      </trkpt>
      <trkpt lat="44.9962" lon="4.52826">
        <ele>398</ele>
        <time>2015-12-11T07:29:53Z</time>
      </trkpt>
      <trkpt lat="44.99608" lon="4.52847">
        <ele>398</ele>
        <time>2015-12-11T07:29:56Z</time>
      </trkpt>
      <trkpt lat="44.99592" lon="4.52878">
        <ele>397</ele>
        <time>2015-12-11T07:30:00Z</time>
      </trkpt>
      <trkpt lat="44.99581" lon="4.52899">
        <ele>397</ele>
        <time>2015-12-11T07:30:03Z</time>
      </trkpt>
      <trkpt lat="44.99568" lon="4.52924">
        <ele>397</ele>
        <time>2015-12-11T07:30:07Z</time>
      </trkpt>
      <trkpt lat="44.99551" lon="4.52955">
        <ele>397</ele>
        <time>2015-12-11T07:30:12Z</time>
      </trkpt>
      <trkpt lat="44.99543" lon="4.52973">
        <ele>396</ele>
        <time>2015-12-11T07:30:15Z</time>
      </trkpt>
      <trkpt lat="44.99536" lon="4.52997">
        <ele>395</ele>
        <time>2015-12-11T07:30:19Z</time>
      </trkpt>
      <trkpt lat="44.99525" lon="4.53013">
        <ele>395</ele>
        <time>2015-12-11T07:30:22Z</time>
      </trkpt>
      <trkpt lat="44.99507" lon="4.53011">
        <ele>394</ele>
        <time>2015-12-11T07:30:26Z</time>
      </trkpt>
      <trkpt lat="44.99489" lon="4.53004">
        <ele>393</ele>
        <time>2015-12-11T07:30:30Z</time>
      </trkpt>
      <trkpt lat="44.99472" lon="4.5299">
        <ele>392</ele>
        <time>2015-12-11T07:30:33Z</time>
      </trkpt>
      <trkpt lat="44.99449" lon="4.52976">
        <ele>391</ele>
        <time>2015-12-11T07:30:37Z</time>
      </trkpt>
      <trkpt lat="44.99431" lon="4.5298">
        <ele>391</ele>
        <time>2015-12-11T07:30:40Z</time>
      </trkpt>
      <trkpt lat="44.9941" lon="4.52999">
        <ele>390</ele>
        <time>2015-12-11T07:30:44Z</time>
      </trkpt>
      <trkpt lat="44.99391" lon="4.53018">
        <ele>389</ele>
        <time>2015-12-11T07:30:48Z</time>
      </trkpt>
      <trkpt lat="44.99373" lon="4.53036">
        <ele>388</ele>
        <time>2015-12-11T07:30:52Z</time>
      </trkpt>
      <trkpt lat="44.99349" lon="4.53059">
        <ele>387</ele>
        <time>2015-12-11T07:30:57Z</time>
      </trkpt>
      <trkpt lat="44.99336" lon="4.53069">
        <ele>386</ele>
        <time>2015-12-11T07:31:00Z</time>
      </trkpt>
      <trkpt lat="44.99317" lon="4.53082">
        <ele>386</ele>
        <time>2015-12-11T07:31:04Z</time>
      </trkpt>
      <trkpt lat="44.99307" lon="4.53085">
        <ele>385</ele>
        <time>2015-12-11T07:31:07Z</time>
      </trkpt>
      <trkpt lat="44.99296" lon="4.5309">
        <ele>384</ele>
        <time>2015-12-11T07:31:12Z</time>
      </trkpt>
      <trkpt lat="44.99292" lon="4.53103">
        <ele>383</ele>
        <time>2015-12-11T07:31:17Z</time>
      </trkpt>
      <trkpt lat="44.99294" lon="4.5311">
        <ele>383</ele>
        <time>2015-12-11T07:31:20Z</time>
      </trkpt>
      <trkpt lat="44.99298" lon="4.53119">
        <ele>382</ele>
        <time>2015-12-11T07:31:25Z</time>
      </trkpt>
      <trkpt lat="44.99305" lon="4.53128">
        <ele>381</ele>
        <time>2015-12-11T07:31:29Z</time>
      </trkpt>
      <trkpt lat="44.99309" lon="4.53135">
        <ele>381</ele>
        <time>2015-12-11T07:31:33Z</time>
      </trkpt>
      <trkpt lat="44.99313" lon="4.53142">
        <ele>381</ele>
        <time>2015-12-11T07:31:37Z</time>
      </trkpt>
      <trkpt lat="44.99321" lon="4.53151">
        <ele>380</ele>
        <time>2015-12-11T07:31:42Z</time>
      </trkpt>
      <trkpt lat="44.9933" lon="4.53162">
        <ele>380</ele>
        <time>2015-12-11T07:31:47Z</time>
      </trkpt>
      <trkpt lat="44.99335" lon="4.53172">
        <ele>380</ele>
        <time>2015-12-11T07:31:51Z</time>
      </trkpt>
      <trkpt lat="44.99331" lon="4.5318">
        <ele>380</ele>
        <time>2015-12-11T07:31:56Z</time>
      </trkpt>
      <trkpt lat="44.99323" lon="4.53179">
        <ele>380</ele>
        <time>2015-12-11T07:32:00Z</time>
      </trkpt>
      <trkpt lat="44.99318" lon="4.53174">
        <ele>379</ele>
        <time>2015-12-11T07:32:04Z</time>
      </trkpt>
      <trkpt lat="44.99309" lon="4.53173">
        <ele>379</ele>
        <time>2015-12-11T07:32:10Z</time>
      </trkpt>
      <trkpt lat="44.99301" lon="4.53168">
        <ele>379</ele>
        <time>2015-12-11T07:32:19Z</time>
      </trkpt>
      <trkpt lat="44.99295" lon="4.5316">
        <ele>379</ele>
        <time>2015-12-11T07:32:25Z</time>
      </trkpt>
      <trkpt lat="44.99289" lon="4.53157">
        <ele>379</ele>
        <time>2015-12-11T07:32:28Z</time>
      </trkpt>
      <trkpt lat="44.9928" lon="4.53155">
        <ele>379</ele>
        <time>2015-12-11T07:32:32Z</time>
      </trkpt>
      <trkpt lat="44.99271" lon="4.53153">
        <ele>378</ele>
        <time>2015-12-11T07:32:37Z</time>
      </trkpt>
      <trkpt lat="44.99262" lon="4.53152">
        <ele>378</ele>
        <time>2015-12-11T07:32:42Z</time>
      </trkpt>
      <trkpt lat="44.99256" lon="4.53155">
        <ele>378</ele>
        <time>2015-12-11T07:32:45Z</time>
      </trkpt>
      <trkpt lat="44.99248" lon="4.53159">
        <ele>379</ele>
        <time>2015-12-11T07:32:50Z</time>
      </trkpt>
      <trkpt lat="44.99241" lon="4.53163">
        <ele>379</ele>
        <time>2015-12-11T07:32:54Z</time>
      </trkpt>
      <trkpt lat="44.99231" lon="4.53168">
        <ele>379</ele>
        <time>2015-12-11T07:32:58Z</time>
      </trkpt>
      <trkpt lat="44.99222" lon="4.53168">
        <ele>379</ele>
        <time>2015-12-11T07:33:02Z</time>
      </trkpt>
      <trkpt lat="44.99213" lon="4.53166">
        <ele>379</ele>
        <time>2015-12-11T07:33:06Z</time>
      </trkpt>
      <trkpt lat="44.99204" lon="4.53162">
        <ele>380</ele>
        <time>2015-12-11T07:33:10Z</time>
      </trkpt>
      <trkpt lat="44.99197" lon="4.53161">
        <ele>380</ele>
        <time>2015-12-11T07:33:14Z</time>
      </trkpt>
      <trkpt lat="44.99189" lon="4.5316">
        <ele>380</ele>
        <time>2015-12-11T07:33:18Z</time>
      </trkpt>
      <trkpt lat="44.99181" lon="4.53168">
        <ele>380</ele>
        <time>2015-12-11T07:33:22Z</time>
      </trkpt>
      <trkpt lat="44.99174" lon="4.53174">
        <ele>381</ele>
        <time>2015-12-11T07:33:26Z</time>
      </trkpt>
      <trkpt lat="44.99165" lon="4.53177">
        <ele>381</ele>
        <time>2015-12-11T07:33:30Z</time>
      </trkpt>
      <trkpt lat="44.99156" lon="4.53184">
        <ele>381</ele>
        <time>2015-12-11T07:33:34Z</time>
      </trkpt>
      <trkpt lat="44.99146" lon="4.53189">
        <ele>382</ele>
        <time>2015-12-11T07:33:38Z</time>
      </trkpt>
      <trkpt lat="44.99135" lon="4.53193">
        <ele>382</ele>
        <time>2015-12-11T07:33:42Z</time>
      </trkpt>
      <trkpt lat="44.99126" lon="4.53199">
        <ele>382</ele>
        <time>2015-12-11T07:33:45Z</time>
      </trkpt>
      <trkpt lat="44.99117" lon="4.53202">
        <ele>383</ele>
        <time>2015-12-11T07:33:49Z</time>
      </trkpt>
      <trkpt lat="44.99103" lon="4.53209">
        <ele>383</ele>
        <time>2015-12-11T07:33:53Z</time>
      </trkpt>
      <trkpt lat="44.99092" lon="4.53222">
        <ele>383</ele>
        <time>2015-12-11T07:33:58Z</time>
      </trkpt>
      <trkpt lat="44.99088" lon="4.53231">
        <ele>384</ele>
        <time>2015-12-11T07:34:03Z</time>
      </trkpt>
      <trkpt lat="44.99086" lon="4.53243">
        <ele>385</ele>
        <time>2015-12-11T07:34:09Z</time>
      </trkpt>
      <trkpt lat="44.9909" lon="4.53253">
        <ele>386</ele>
        <time>2015-12-11T07:34:16Z</time>
      </trkpt>
      <trkpt lat="44.99092" lon="4.53265">
        <ele>387</ele>
        <time>2015-12-11T07:34:21Z</time>
      </trkpt>
      <trkpt lat="44.99096" lon="4.53278">
        <ele>387</ele>
        <time>2015-12-11T07:34:24Z</time>
      </trkpt>
      <trkpt lat="44.99099" lon="4.5329">
        <ele>388</ele>
        <time>2015-12-11T07:34:29Z</time>
      </trkpt>
      <trkpt lat="44.99099" lon="4.53298">
        <ele>389</ele>
        <time>2015-12-11T07:34:34Z</time>
      </trkpt>
      <trkpt lat="44.99097" lon="4.53307">
        <ele>389</ele>
        <time>2015-12-11T07:34:36Z</time>
      </trkpt>
      <trkpt lat="44.9909" lon="4.53321">
        <ele>390</ele>
        <time>2015-12-11T07:34:41Z</time>
      </trkpt>
      <trkpt lat="44.99082" lon="4.53328">
        <ele>390</ele>
        <time>2015-12-11T07:34:44Z</time>
      </trkpt>
      <trkpt lat="44.99077" lon="4.53336">
        <ele>391</ele>
        <time>2015-12-11T07:34:50Z</time>
      </trkpt>
      <trkpt lat="44.9907" lon="4.53345">
        <ele>392</ele>
        <time>2015-12-11T07:34:55Z</time>
      </trkpt>
      <trkpt lat="44.99065" lon="4.53354">
        <ele>393</ele>
        <time>2015-12-11T07:34:59Z</time>
      </trkpt>
      <trkpt lat="44.99059" lon="4.53363">
        <ele>395</ele>
        <time>2015-12-11T07:35:04Z</time>
      </trkpt>
      <trkpt lat="44.99058" lon="4.53376">
        <ele>396</ele>
        <time>2015-12-11T07:35:10Z</time>
      </trkpt>
      <trkpt lat="44.99055" lon="4.53386">
        <ele>397</ele>
        <time>2015-12-11T07:35:14Z</time>
      </trkpt>
      <trkpt lat="44.99056" lon="4.53398">
        <ele>399</ele>
        <time>2015-12-11T07:35:22Z</time>
      </trkpt>
      <trkpt lat="44.99055" lon="4.5341">
        <ele>399</ele>
        <time>2015-12-11T07:35:29Z</time>
      </trkpt>
      <trkpt lat="44.99055" lon="4.53419">
        <ele>400</ele>
        <time>2015-12-11T07:35:32Z</time>
      </trkpt>
      <trkpt lat="44.99054" lon="4.53431">
        <ele>402</ele>
        <time>2015-12-11T07:35:37Z</time>
      </trkpt>
      <trkpt lat="44.99055" lon="4.53441">
        <ele>403</ele>
        <time>2015-12-11T07:35:42Z</time>
      </trkpt>
      <trkpt lat="44.99057" lon="4.53455">
        <ele>404</ele>
        <time>2015-12-11T07:35:46Z</time>
      </trkpt>
      <trkpt lat="44.99058" lon="4.53465">
        <ele>405</ele>
        <time>2015-12-11T07:35:50Z</time>
      </trkpt>
      <trkpt lat="44.99055" lon="4.53475">
        <ele>406</ele>
        <time>2015-12-11T07:35:56Z</time>
      </trkpt>
      <trkpt lat="44.99044" lon="4.53485">
        <ele>407</ele>
        <time>2015-12-11T07:36:00Z</time>
      </trkpt>
      <trkpt lat="44.99031" lon="4.53492">
        <ele>408</ele>
        <time>2015-12-11T07:36:04Z</time>
      </trkpt>
      <trkpt lat="44.99023" lon="4.53509">
        <ele>409</ele>
        <time>2015-12-11T07:36:09Z</time>
      </trkpt>
      <trkpt lat="44.99023" lon="4.53509">
        <ele>409</ele>
        <time>2015-12-11T07:36:30Z</time>
      </trkpt>
      <trkpt lat="44.99019" lon="4.5371">
        <ele>409</ele>
        <time>2015-12-11T07:36:35Z</time>
      </trkpt>
      <trkpt lat="44.99039" lon="4.53719">
        <ele>409</ele>
        <time>2015-12-11T07:36:40Z</time>
      </trkpt>
      <trkpt lat="44.99043" lon="4.53747">
        <ele>409</ele>
        <time>2015-12-11T07:36:42Z</time>
      </trkpt>
      <trkpt lat="44.9904" lon="4.53788">
        <ele>409</ele>
        <time>2015-12-11T07:36:46Z</time>
      </trkpt>
      <trkpt lat="44.99034" lon="4.5382">
        <ele>409</ele>
        <time>2015-12-11T07:36:50Z</time>
      </trkpt>
      <trkpt lat="44.99031" lon="4.53839">
        <ele>409</ele>
        <time>2015-12-11T07:36:53Z</time>
      </trkpt>
      <trkpt lat="44.99028" lon="4.53858">
        <ele>409</ele>
        <time>2015-12-11T07:36:57Z</time>
      </trkpt>
      <trkpt lat="44.99027" lon="4.53879">
        <ele>408</ele>
        <time>2015-12-11T07:37:02Z</time>
      </trkpt>
      <trkpt lat="44.99027" lon="4.53899">
        <ele>408</ele>
        <time>2015-12-11T07:37:07Z</time>
      </trkpt>
      <trkpt lat="44.99029" lon="4.53919">
        <ele>408</ele>
        <time>2015-12-11T07:37:11Z</time>
      </trkpt>
      <trkpt lat="44.9903" lon="4.53936">
        <ele>409</ele>
        <time>2015-12-11T07:37:15Z</time>
      </trkpt>
      <trkpt lat="44.9903" lon="4.5395">
        <ele>409</ele>
        <time>2015-12-11T07:37:19Z</time>
      </trkpt>
      <trkpt lat="44.99023" lon="4.54011">
        <ele>409</ele>
        <time>2015-12-11T07:37:23Z</time>
      </trkpt>
      <trkpt lat="44.99028" lon="4.54036">
        <ele>410</ele>
        <time>2015-12-11T07:37:28Z</time>
      </trkpt>
      <trkpt lat="44.99027" lon="4.54066">
        <ele>410</ele>
        <time>2015-12-11T07:37:33Z</time>
      </trkpt>
      <trkpt lat="44.99035" lon="4.54078">
        <ele>411</ele>
        <time>2015-12-11T07:37:37Z</time>
      </trkpt>
      <trkpt lat="44.99043" lon="4.54083">
        <ele>412</ele>
        <time>2015-12-11T07:37:42Z</time>
      </trkpt>
      <trkpt lat="44.99049" lon="4.54085">
        <ele>413</ele>
        <time>2015-12-11T07:37:46Z</time>
      </trkpt>
      <trkpt lat="44.99058" lon="4.54085">
        <ele>415</ele>
        <time>2015-12-11T07:37:52Z</time>
      </trkpt>
      <trkpt lat="44.99073" lon="4.54082">
        <ele>416</ele>
        <time>2015-12-11T07:37:57Z</time>
      </trkpt>
      <trkpt lat="44.99093" lon="4.54084">
        <ele>415</ele>
        <time>2015-12-11T07:38:01Z</time>
      </trkpt>
      <trkpt lat="44.99113" lon="4.54093">
        <ele>417</ele>
        <time>2015-12-11T07:38:06Z</time>
      </trkpt>
      <trkpt lat="44.99124" lon="4.54101">
        <ele>417</ele>
        <time>2015-12-11T07:38:09Z</time>
      </trkpt>
      <trkpt lat="44.99137" lon="4.54119">
        <ele>418</ele>
        <time>2015-12-11T07:38:13Z</time>
      </trkpt>
      <trkpt lat="44.99156" lon="4.54129">
        <ele>419</ele>
        <time>2015-12-11T07:38:17Z</time>
      </trkpt>
      <trkpt lat="44.9917" lon="4.54139">
        <ele>420</ele>
        <time>2015-12-11T07:38:21Z</time>
      </trkpt>
      <trkpt lat="44.99179" lon="4.54155">
        <ele>422</ele>
        <time>2015-12-11T07:38:25Z</time>
      </trkpt>
      <trkpt lat="44.99191" lon="4.54173">
        <ele>423</ele>
        <time>2015-12-11T07:38:30Z</time>
      </trkpt>
      <trkpt lat="44.99199" lon="4.54185">
        <ele>424</ele>
        <time>2015-12-11T07:38:34Z</time>
      </trkpt>
      <trkpt lat="44.99205" lon="4.54197">
        <ele>425</ele>
        <time>2015-12-11T07:38:38Z</time>
      </trkpt>
      <trkpt lat="44.99214" lon="4.54204">
        <ele>426</ele>
        <time>2015-12-11T07:38:42Z</time>
      </trkpt>
      <trkpt lat="44.99222" lon="4.54213">
        <ele>426</ele>
        <time>2015-12-11T07:38:46Z</time>
      </trkpt>
      <trkpt lat="44.99233" lon="4.54216">
        <ele>427</ele>
        <time>2015-12-11T07:38:49Z</time>
      </trkpt>
      <trkpt lat="44.99242" lon="4.54232">
        <ele>428</ele>
        <time>2015-12-11T07:38:54Z</time>
      </trkpt>
      <trkpt lat="44.99247" lon="4.54245">
        <ele>429</ele>
        <time>2015-12-11T07:38:58Z</time>
      </trkpt>
      <trkpt lat="44.9925" lon="4.54256">
        <ele>429</ele>
        <time>2015-12-11T07:39:01Z</time>
      </trkpt>
      <trkpt lat="44.99256" lon="4.54267">
        <ele>430</ele>
        <time>2015-12-11T07:39:06Z</time>
      </trkpt>
      <trkpt lat="44.9926" lon="4.54276">
        <ele>430</ele>
        <time>2015-12-11T07:39:10Z</time>
      </trkpt>
      <trkpt lat="44.99266" lon="4.54287">
        <ele>432</ele>
        <time>2015-12-11T07:39:15Z</time>
      </trkpt>
      <trkpt lat="44.99272" lon="4.54295">
        <ele>432</ele>
        <time>2015-12-11T07:39:19Z</time>
      </trkpt>
      <trkpt lat="44.99279" lon="4.54299">
        <ele>432</ele>
        <time>2015-12-11T07:39:22Z</time>
      </trkpt>
      <trkpt lat="44.99282" lon="4.54304">
        <ele>433</ele>
        <time>2015-12-11T07:39:25Z</time>
      </trkpt>
      <trkpt lat="44.99289" lon="4.5431">
        <ele>433</ele>
        <time>2015-12-11T07:39:29Z</time>
      </trkpt>
      <trkpt lat="44.99296" lon="4.54317">
        <ele>434</ele>
        <time>2015-12-11T07:39:33Z</time>
      </trkpt>
      <trkpt lat="44.99306" lon="4.54326">
        <ele>435</ele>
        <time>2015-12-11T07:39:38Z</time>
      </trkpt>
      <trkpt lat="44.99313" lon="4.54333">
        <ele>435</ele>
        <time>2015-12-11T07:39:42Z</time>
      </trkpt>
      <trkpt lat="44.99315" lon="4.54346">
        <ele>436</ele>
        <time>2015-12-11T07:39:47Z</time>
      </trkpt>
      <trkpt lat="44.99318" lon="4.54354">
        <ele>437</ele>
        <time>2015-12-11T07:39:50Z</time>
      </trkpt>
      <trkpt lat="44.99319" lon="4.54369">
        <ele>438</ele>
        <time>2015-12-11T07:39:55Z</time>
      </trkpt>
      <trkpt lat="44.99319" lon="4.54382">
        <ele>439</ele>
        <time>2015-12-11T07:39:59Z</time>
      </trkpt>
      <trkpt lat="44.99315" lon="4.54395">
        <ele>439</ele>
        <time>2015-12-11T07:40:03Z</time>
      </trkpt>
      <trkpt lat="44.99311" lon="4.54409">
        <ele>440</ele>
        <time>2015-12-11T07:40:07Z</time>
      </trkpt>
      <trkpt lat="44.99308" lon="4.54425">
        <ele>440</ele>
        <time>2015-12-11T07:40:11Z</time>
      </trkpt>
      <trkpt lat="44.99306" lon="4.54443">
        <ele>441</ele>
        <time>2015-12-11T07:40:15Z</time>
      </trkpt>
      <trkpt lat="44.99306" lon="4.5446">
        <ele>443</ele>
        <time>2015-12-11T07:40:20Z</time>
      </trkpt>
      <trkpt lat="44.99307" lon="4.54476">
        <ele>444</ele>
        <time>2015-12-11T07:40:25Z</time>
      </trkpt>
      <trkpt lat="44.99306" lon="4.54494">
        <ele>444</ele>
        <time>2015-12-11T07:40:30Z</time>
      </trkpt>
      <trkpt lat="44.99309" lon="4.54509">
        <ele>445</ele>
        <time>2015-12-11T07:40:34Z</time>
      </trkpt>
      <trkpt lat="44.99314" lon="4.54518">
        <ele>447</ele>
        <time>2015-12-11T07:40:38Z</time>
      </trkpt>
      <trkpt lat="44.99319" lon="4.54531">
        <ele>449</ele>
        <time>2015-12-11T07:40:43Z</time>
      </trkpt>
      <trkpt lat="44.99327" lon="4.5454">
        <ele>450</ele>
        <time>2015-12-11T07:40:48Z</time>
      </trkpt>
      <trkpt lat="44.99337" lon="4.54542">
        <ele>451</ele>
        <time>2015-12-11T07:40:53Z</time>
      </trkpt>
      <trkpt lat="44.99346" lon="4.54545">
        <ele>452</ele>
        <time>2015-12-11T07:40:57Z</time>
      </trkpt>
      <trkpt lat="44.99352" lon="4.54547">
        <ele>453</ele>
        <time>2015-12-11T07:41:01Z</time>
      </trkpt>
      <trkpt lat="44.9936" lon="4.54548">
        <ele>454</ele>
        <time>2015-12-11T07:41:04Z</time>
      </trkpt>
      <trkpt lat="44.99369" lon="4.54551">
        <ele>455</ele>
        <time>2015-12-11T07:41:09Z</time>
      </trkpt>
      <trkpt lat="44.99381" lon="4.54556">
        <ele>457</ele>
        <time>2015-12-11T07:41:14Z</time>
      </trkpt>
      <trkpt lat="44.99391" lon="4.5456">
        <ele>459</ele>
        <time>2015-12-11T07:41:18Z</time>
      </trkpt>
      <trkpt lat="44.99399" lon="4.54566">
        <ele>460</ele>
        <time>2015-12-11T07:41:22Z</time>
      </trkpt>
      <trkpt lat="44.99407" lon="4.5457">
        <ele>462</ele>
        <time>2015-12-11T07:41:26Z</time>
      </trkpt>
      <trkpt lat="44.99417" lon="4.54574">
        <ele>463</ele>
        <time>2015-12-11T07:41:30Z</time>
      </trkpt>
      <trkpt lat="44.99427" lon="4.54581">
        <ele>464</ele>
        <time>2015-12-11T07:41:35Z</time>
      </trkpt>
      <trkpt lat="44.99435" lon="4.54585">
        <ele>465</ele>
        <time>2015-12-11T07:41:39Z</time>
      </trkpt>
      <trkpt lat="44.99445" lon="4.5459">
        <ele>467</ele>
        <time>2015-12-11T07:41:43Z</time>
      </trkpt>
      <trkpt lat="44.99453" lon="4.54598">
        <ele>467</ele>
        <time>2015-12-11T07:41:48Z</time>
      </trkpt>
      <trkpt lat="44.99461" lon="4.54604">
        <ele>467</ele>
        <time>2015-12-11T07:41:53Z</time>
      </trkpt>
      <trkpt lat="44.99471" lon="4.54609">
        <ele>468</ele>
        <time>2015-12-11T07:41:57Z</time>
      </trkpt>
      <trkpt lat="44.99479" lon="4.5461">
        <ele>469</ele>
        <time>2015-12-11T07:42:01Z</time>
      </trkpt>
      <trkpt lat="44.99488" lon="4.54609">
        <ele>470</ele>
        <time>2015-12-11T07:42:06Z</time>
      </trkpt>
      <trkpt lat="44.99497" lon="4.54607">
        <ele>471</ele>
        <time>2015-12-11T07:42:16Z</time>
      </trkpt>
      <trkpt lat="44.99504" lon="4.54602">
        <ele>473</ele>
        <time>2015-12-11T07:42:25Z</time>
      </trkpt>
      <trkpt lat="44.99509" lon="4.54592">
        <ele>473</ele>
        <time>2015-12-11T07:42:36Z</time>
      </trkpt>
      <trkpt lat="44.99513" lon="4.54585">
        <ele>473</ele>
        <time>2015-12-11T07:43:04Z</time>
      </trkpt>
      <trkpt lat="44.9952" lon="4.54579">
        <ele>474</ele>
        <time>2015-12-11T07:43:09Z</time>
      </trkpt>
      <trkpt lat="44.99527" lon="4.54575">
        <ele>479</ele>
        <time>2015-12-11T07:45:19Z</time>
      </trkpt>
      <trkpt lat="44.99533" lon="4.54566">
        <ele>480</ele>
        <time>2015-12-11T07:45:27Z</time>
      </trkpt>
      <trkpt lat="44.99539" lon="4.54558">
        <ele>480</ele>
        <time>2015-12-11T07:45:34Z</time>
      </trkpt>
      <trkpt lat="44.99546" lon="4.54553">
        <ele>480</ele>
        <time>2015-12-11T07:45:39Z</time>
      </trkpt>
      <trkpt lat="44.99553" lon="4.54549">
        <ele>480</ele>
        <time>2015-12-11T07:45:48Z</time>
      </trkpt>
      <trkpt lat="44.9956" lon="4.54547">
        <ele>480</ele>
        <time>2015-12-11T07:45:59Z</time>
      </trkpt>
      <trkpt lat="44.99567" lon="4.54543">
        <ele>480</ele>
        <time>2015-12-11T07:46:09Z</time>
      </trkpt>
      <trkpt lat="44.99572" lon="4.5454">
        <ele>481</ele>
        <time>2015-12-11T07:46:13Z</time>
      </trkpt>
      <trkpt lat="44.9958" lon="4.54533">
        <ele>481</ele>
        <time>2015-12-11T07:46:17Z</time>
      </trkpt>
      <trkpt lat="44.99586" lon="4.54529">
        <ele>481</ele>
        <time>2015-12-11T07:46:23Z</time>
      </trkpt>
      <trkpt lat="44.99592" lon="4.54524">
        <ele>481</ele>
        <time>2015-12-11T07:46:30Z</time>
      </trkpt>
      <trkpt lat="44.996" lon="4.54521">
        <ele>481</ele>
        <time>2015-12-11T07:46:36Z</time>
      </trkpt>
      <trkpt lat="44.99607" lon="4.54517">
        <ele>482</ele>
        <time>2015-12-11T07:46:44Z</time>
      </trkpt>
      <trkpt lat="44.99614" lon="4.54511">
        <ele>482</ele>
        <time>2015-12-11T07:46:52Z</time>
      </trkpt>
      <trkpt lat="44.99619" lon="4.54505">
        <ele>482</ele>
        <time>2015-12-11T07:47:00Z</time>
      </trkpt>
      <trkpt lat="44.99627" lon="4.54503">
        <ele>482</ele>
        <time>2015-12-11T07:47:07Z</time>
      </trkpt>
      <trkpt lat="44.99633" lon="4.54498">
        <ele>482</ele>
        <time>2015-12-11T07:47:16Z</time>
      </trkpt>
      <trkpt lat="44.99641" lon="4.54497">
        <ele>482</ele>
        <time>2015-12-11T07:47:19Z</time>
      </trkpt>
      <trkpt lat="44.99647" lon="4.54499">
        <ele>482</ele>
        <time>2015-12-11T07:47:23Z</time>
      </trkpt>
      <trkpt lat="44.99655" lon="4.54507">
        <ele>483</ele>
        <time>2015-12-11T07:47:27Z</time>
      </trkpt>
      <trkpt lat="44.99657" lon="4.54517">
        <ele>483</ele>
        <time>2015-12-11T07:47:33Z</time>
      </trkpt>
      <trkpt lat="44.99661" lon="4.54527">
        <ele>483</ele>
        <time>2015-12-11T07:47:39Z</time>
      </trkpt>
      <trkpt lat="44.99664" lon="4.54537">
        <ele>483</ele>
        <time>2015-12-11T07:47:44Z</time>
      </trkpt>
      <trkpt lat="44.99665" lon="4.54545">
        <ele>484</ele>
        <time>2015-12-11T07:47:48Z</time>
      </trkpt>
      <trkpt lat="44.99666" lon="4.54556">
        <ele>484</ele>
        <time>2015-12-11T07:47:52Z</time>
      </trkpt>
      <trkpt lat="44.99667" lon="4.54566">
        <ele>484</ele>
        <time>2015-12-11T07:47:56Z</time>
      </trkpt>
      <trkpt lat="44.99668" lon="4.54577">
        <ele>484</ele>
        <time>2015-12-11T07:48:02Z</time>
      </trkpt>
      <trkpt lat="44.99669" lon="4.54592">
        <ele>484</ele>
        <time>2015-12-11T07:48:06Z</time>
      </trkpt>
      <trkpt lat="44.99669" lon="4.54603">
        <ele>484</ele>
        <time>2015-12-11T07:48:11Z</time>
      </trkpt>
      <trkpt lat="44.99666" lon="4.54609">
        <ele>484</ele>
        <time>2015-12-11T07:48:21Z</time>
      </trkpt>
      <trkpt lat="44.99671" lon="4.54631">
        <ele>484</ele>
        <time>2015-12-11T07:48:24Z</time>
      </trkpt>
      <trkpt lat="44.9968" lon="4.54656">
        <ele>484</ele>
        <time>2015-12-11T07:48:27Z</time>
      </trkpt>
      <trkpt lat="44.9969" lon="4.54663">
        <ele>484</ele>
        <time>2015-12-11T07:48:32Z</time>
      </trkpt>
      <trkpt lat="44.99697" lon="4.54665">
        <ele>484</ele>
        <time>2015-12-11T07:48:37Z</time>
      </trkpt>
      <trkpt lat="44.99703" lon="4.54669">
        <ele>484</ele>
        <time>2015-12-11T07:48:41Z</time>
      </trkpt>
      <trkpt lat="44.99714" lon="4.54675">
        <ele>484</ele>
        <time>2015-12-11T07:48:46Z</time>
      </trkpt>
      <trkpt lat="44.99721" lon="4.54681">
        <ele>484</ele>
        <time>2015-12-11T07:48:52Z</time>
      </trkpt>
      <trkpt lat="44.99726" lon="4.54693">
        <ele>484</ele>
        <time>2015-12-11T07:48:57Z</time>
      </trkpt>
      <trkpt lat="44.99728" lon="4.54704">
        <ele>483</ele>
        <time>2015-12-11T07:49:01Z</time>
      </trkpt>
      <trkpt lat="44.99729" lon="4.54713">
        <ele>483</ele>
        <time>2015-12-11T07:49:04Z</time>
      </trkpt>
      <trkpt lat="44.99729" lon="4.54729">
        <ele>483</ele>
        <time>2015-12-11T07:49:09Z</time>
      </trkpt>
      <trkpt lat="44.99729" lon="4.54739">
        <ele>482</ele>
        <time>2015-12-11T07:49:13Z</time>
      </trkpt>
      <trkpt lat="44.99729" lon="4.54748">
        <ele>482</ele>
        <time>2015-12-11T07:49:16Z</time>
      </trkpt>
      <trkpt lat="44.99726" lon="4.54762">
        <ele>482</ele>
        <time>2015-12-11T07:49:21Z</time>
      </trkpt>
      <trkpt lat="44.99726" lon="4.54778">
        <ele>482</ele>
        <time>2015-12-11T07:49:26Z</time>
      </trkpt>
      <trkpt lat="44.99733" lon="4.54797">
        <ele>484</ele>
        <time>2015-12-11T07:49:30Z</time>
      </trkpt>
      <trkpt lat="44.99737" lon="4.54816">
        <ele>486</ele>
        <time>2015-12-11T07:49:34Z</time>
      </trkpt>
      <trkpt lat="44.99738" lon="4.54836">
        <ele>488</ele>
        <time>2015-12-11T07:49:39Z</time>
      </trkpt>
      <trkpt lat="44.99736" lon="4.54851">
        <ele>490</ele>
        <time>2015-12-11T07:49:43Z</time>
      </trkpt>
      <trkpt lat="44.99737" lon="4.54861">
        <ele>494</ele>
        <time>2015-12-11T07:49:47Z</time>
      </trkpt>
      <trkpt lat="44.99737" lon="4.54873">
        <ele>503</ele>
        <time>2015-12-11T07:49:52Z</time>
      </trkpt>
      <trkpt lat="44.99742" lon="4.54878">
        <ele>506</ele>
        <time>2015-12-11T07:49:55Z</time>
      </trkpt>
      <trkpt lat="44.99753" lon="4.54882">
        <ele>509</ele>
        <time>2015-12-11T07:50:00Z</time>
      </trkpt>
      <trkpt lat="44.99761" lon="4.54888">
        <ele>511</ele>
        <time>2015-12-11T07:50:04Z</time>
      </trkpt>
      <trkpt lat="44.99769" lon="4.54894">
        <ele>513</ele>
        <time>2015-12-11T07:50:08Z</time>
      </trkpt>
      <trkpt lat="44.99778" lon="4.54902">
        <ele>516</ele>
        <time>2015-12-11T07:50:13Z</time>
      </trkpt>
      <trkpt lat="44.99783" lon="4.54907">
        <ele>517</ele>
        <time>2015-12-11T07:50:17Z</time>
      </trkpt>
      <trkpt lat="44.9979" lon="4.54915">
        <ele>518</ele>
        <time>2015-12-11T07:50:21Z</time>
      </trkpt>
      <trkpt lat="44.99797" lon="4.54921">
        <ele>518</ele>
        <time>2015-12-11T07:50:25Z</time>
      </trkpt>
      <trkpt lat="44.99806" lon="4.54925">
        <ele>519</ele>
        <time>2015-12-11T07:50:29Z</time>
      </trkpt>
      <trkpt lat="44.99815" lon="4.54923">
        <ele>519</ele>
        <time>2015-12-11T07:50:34Z</time>
      </trkpt>
      <trkpt lat="44.99825" lon="4.5492">
        <ele>518</ele>
        <time>2015-12-11T07:50:39Z</time>
      </trkpt>
      <trkpt lat="44.99832" lon="4.54917">
        <ele>516</ele>
        <time>2015-12-11T07:50:43Z</time>
      </trkpt>
      <trkpt lat="44.9984" lon="4.54912">
        <ele>516</ele>
        <time>2015-12-11T07:50:48Z</time>
      </trkpt>
      <trkpt lat="44.9985" lon="4.54917">
        <ele>516</ele>
        <time>2015-12-11T07:50:53Z</time>
      </trkpt>
      <trkpt lat="44.99863" lon="4.54926">
        <ele>517</ele>
        <time>2015-12-11T07:50:57Z</time>
      </trkpt>
      <trkpt lat="44.9986" lon="4.54936">
        <ele>517</ele>
        <time>2015-12-11T07:51:05Z</time>
      </trkpt>
      <trkpt lat="44.99862" lon="4.54946">
        <ele>516</ele>
        <time>2015-12-11T07:51:11Z</time>
      </trkpt>
      <trkpt lat="44.99867" lon="4.54953">
        <ele>516</ele>
        <time>2015-12-11T07:51:19Z</time>
      </trkpt>
      <trkpt lat="44.99874" lon="4.54959">
        <ele>516</ele>
        <time>2015-12-11T07:51:29Z</time>
      </trkpt>
      <trkpt lat="44.99882" lon="4.54963">
        <ele>518</ele>
        <time>2015-12-11T07:51:39Z</time>
      </trkpt>
      <trkpt lat="44.99889" lon="4.5497">
        <ele>518</ele>
        <time>2015-12-11T07:51:46Z</time>
      </trkpt>
      <trkpt lat="44.99896" lon="4.54976">
        <ele>519</ele>
        <time>2015-12-11T07:51:53Z</time>
      </trkpt>
      <trkpt lat="44.99904" lon="4.54978">
        <ele>520</ele>
        <time>2015-12-11T07:52:00Z</time>
      </trkpt>
      <trkpt lat="44.99912" lon="4.5498">
        <ele>521</ele>
        <time>2015-12-11T07:52:10Z</time>
      </trkpt>
      <trkpt lat="44.9992" lon="4.5498">
        <ele>522</ele>
        <time>2015-12-11T07:52:19Z</time>
      </trkpt>
      <trkpt lat="44.99928" lon="4.54981">
        <ele>524</ele>
        <time>2015-12-11T07:52:30Z</time>
      </trkpt>
      <trkpt lat="44.99935" lon="4.54984">
        <ele>525</ele>
        <time>2015-12-11T07:52:36Z</time>
      </trkpt>
      <trkpt lat="44.99942" lon="4.5499">
        <ele>526</ele>
        <time>2015-12-11T07:52:41Z</time>
      </trkpt>
      <trkpt lat="44.99949" lon="4.54996">
        <ele>529</ele>
        <time>2015-12-11T07:52:46Z</time>
      </trkpt>
      <trkpt lat="44.99954" lon="4.55006">
        <ele>531</ele>
        <time>2015-12-11T07:52:54Z</time>
      </trkpt>
      <trkpt lat="44.9996" lon="4.55015">
        <ele>533</ele>
        <time>2015-12-11T07:53:01Z</time>
      </trkpt>
      <trkpt lat="44.99965" lon="4.55025">
        <ele>534</ele>
        <time>2015-12-11T07:53:10Z</time>
      </trkpt>
      <trkpt lat="44.9997" lon="4.5503">
        <ele>535</ele>
        <time>2015-12-11T07:53:15Z</time>
      </trkpt>
      <trkpt lat="44.99975" lon="4.55038">
        <ele>536</ele>
        <time>2015-12-11T07:53:21Z</time>
      </trkpt>
      <trkpt lat="44.9998" lon="4.55047">
        <ele>537</ele>
        <time>2015-12-11T07:53:27Z</time>
      </trkpt>
      <trkpt lat="44.99985" lon="4.55057">
        <ele>538</ele>
        <time>2015-12-11T07:53:35Z</time>
      </trkpt>
      <trkpt lat="44.99989" lon="4.55066">
        <ele>540</ele>
        <time>2015-12-11T07:53:42Z</time>
      </trkpt>
      <trkpt lat="44.99995" lon="4.55075">
        <ele>541</ele>
        <time>2015-12-11T07:53:50Z</time>
      </trkpt>
      <trkpt lat="44.99999" lon="4.55085">
        <ele>543</ele>
        <time>2015-12-11T07:53:57Z</time>
      </trkpt>
      <trkpt lat="45.00003" lon="4.55094">
        <ele>544</ele>
        <time>2015-12-11T07:54:04Z</time>
      </trkpt>
      <trkpt lat="45.00009" lon="4.55102">
        <ele>545</ele>
        <time>2015-12-11T07:54:13Z</time>
      </trkpt>
      <trkpt lat="45.00015" lon="4.5511">
        <ele>546</ele>
        <time>2015-12-11T07:54:22Z</time>
      </trkpt>
      <trkpt lat="45.00021" lon="4.55116">
        <ele>547</ele>
        <time>2015-12-11T07:54:30Z</time>
      </trkpt>
      <trkpt lat="45.00029" lon="4.55122">
        <ele>549</ele>
        <time>2015-12-11T07:54:39Z</time>
      </trkpt>
      <trkpt lat="45.00032" lon="4.55125">
        <ele>550</ele>
        <time>2015-12-11T07:54:45Z</time>
      </trkpt>
      <trkpt lat="45.00038" lon="4.55133">
        <ele>550</ele>
        <time>2015-12-11T07:54:57Z</time>
      </trkpt>
      <trkpt lat="45.00043" lon="4.55142">
        <ele>549</ele>
        <time>2015-12-11T08:00:10Z</time>
      </trkpt>
      <trkpt lat="45.00051" lon="4.55146">
        <ele>549</ele>
        <time>2015-12-11T08:00:16Z</time>
      </trkpt>
      <trkpt lat="45.00057" lon="4.55148">
        <ele>549</ele>
        <time>2015-12-11T08:00:21Z</time>
      </trkpt>
      <trkpt lat="45.00065" lon="4.55149">
        <ele>550</ele>
        <time>2015-12-11T08:00:28Z</time>
      </trkpt>
      <trkpt lat="45.00072" lon="4.55147">
        <ele>552</ele>
        <time>2015-12-11T08:00:35Z</time>
      </trkpt>
      <trkpt lat="45.0008" lon="4.55144">
        <ele>555</ele>
        <time>2015-12-11T08:00:42Z</time>
      </trkpt>
      <trkpt lat="45.00087" lon="4.5514">
        <ele>557</ele>
        <time>2015-12-11T08:00:49Z</time>
      </trkpt>
      <trkpt lat="45.00095" lon="4.5514">
        <ele>559</ele>
        <time>2015-12-11T08:00:56Z</time>
      </trkpt>
      <trkpt lat="45.00103" lon="4.5514">
        <ele>561</ele>
        <time>2015-12-11T08:01:03Z</time>
      </trkpt>
      <trkpt lat="45.00111" lon="4.55135">
        <ele>563</ele>
        <time>2015-12-11T08:01:11Z</time>
      </trkpt>
      <trkpt lat="45.00119" lon="4.5513">
        <ele>565</ele>
        <time>2015-12-11T08:01:21Z</time>
      </trkpt>
      <trkpt lat="45.00124" lon="4.55127">
        <ele>566</ele>
        <time>2015-12-11T08:01:25Z</time>
      </trkpt>
      <trkpt lat="45.00131" lon="4.55122">
        <ele>567</ele>
        <time>2015-12-11T08:01:29Z</time>
      </trkpt>
      <trkpt lat="45.00138" lon="4.55116">
        <ele>567</ele>
        <time>2015-12-11T08:01:33Z</time>
      </trkpt>
      <trkpt lat="45.00143" lon="4.55108">
        <ele>568</ele>
        <time>2015-12-11T08:01:37Z</time>
      </trkpt>
      <trkpt lat="45.00148" lon="4.55099">
        <ele>569</ele>
        <time>2015-12-11T08:01:42Z</time>
      </trkpt>
      <trkpt lat="45.00153" lon="4.55085">
        <ele>571</ele>
        <time>2015-12-11T08:01:47Z</time>
      </trkpt>
      <trkpt lat="45.00157" lon="4.55078">
        <ele>572</ele>
        <time>2015-12-11T08:01:51Z</time>
      </trkpt>
      <trkpt lat="45.00161" lon="4.55067">
        <ele>573</ele>
        <time>2015-12-11T08:01:57Z</time>
      </trkpt>
      <trkpt lat="45.00165" lon="4.55055">
        <ele>575</ele>
        <time>2015-12-11T08:02:02Z</time>
      </trkpt>
      <trkpt lat="45.0017" lon="4.55049">
        <ele>576</ele>
        <time>2015-12-11T08:02:07Z</time>
      </trkpt>
      <trkpt lat="45.00183" lon="4.5504">
        <ele>577</ele>
        <time>2015-12-11T08:02:12Z</time>
      </trkpt>
      <trkpt lat="45.00198" lon="4.55027">
        <ele>578</ele>
        <time>2015-12-11T08:02:16Z</time>
      </trkpt>
      <trkpt lat="45.00209" lon="4.55015">
        <ele>578</ele>
        <time>2015-12-11T08:02:19Z</time>
      </trkpt>
      <trkpt lat="45.00235" lon="4.54986">
        <ele>579</ele>
        <time>2015-12-11T08:02:24Z</time>
      </trkpt>
      <trkpt lat="45.00253" lon="4.54978">
        <ele>580</ele>
        <time>2015-12-11T08:02:27Z</time>
      </trkpt>
      <trkpt lat="45.00277" lon="4.54974">
        <ele>580</ele>
        <time>2015-12-11T08:02:31Z</time>
      </trkpt>
      <trkpt lat="45.00303" lon="4.54974">
        <ele>581</ele>
        <time>2015-12-11T08:02:35Z</time>
      </trkpt>
      <trkpt lat="45.00333" lon="4.54978">
        <ele>581</ele>
        <time>2015-12-11T08:02:40Z</time>
      </trkpt>
      <trkpt lat="45.00346" lon="4.54984">
        <ele>581</ele>
        <time>2015-12-11T08:02:44Z</time>
      </trkpt>
      <trkpt lat="45.00341" lon="4.54997">
        <ele>579</ele>
        <time>2015-12-11T08:02:48Z</time>
      </trkpt>
      <trkpt lat="45.00339" lon="4.55019">
        <ele>578</ele>
        <time>2015-12-11T08:02:53Z</time>
      </trkpt>
      <trkpt lat="45.00338" lon="4.55037">
        <ele>577</ele>
        <time>2015-12-11T08:02:56Z</time>
      </trkpt>
      <trkpt lat="45.00338" lon="4.55056">
        <ele>574</ele>
        <time>2015-12-11T08:03:00Z</time>
      </trkpt>
      <trkpt lat="45.00344" lon="4.55072">
        <ele>566</ele>
        <time>2015-12-11T08:03:05Z</time>
      </trkpt>
      <trkpt lat="45.00351" lon="4.55082">
        <ele>563</ele>
        <time>2015-12-11T08:03:09Z</time>
      </trkpt>
      <trkpt lat="45.00355" lon="4.55093">
        <ele>563</ele>
        <time>2015-12-11T08:03:13Z</time>
      </trkpt>
      <trkpt lat="45.0036" lon="4.55101">
        <ele>563</ele>
        <time>2015-12-11T08:03:17Z</time>
      </trkpt>
      <trkpt lat="45.00365" lon="4.55109">
        <ele>562</ele>
        <time>2015-12-11T08:03:21Z</time>
      </trkpt>
      <trkpt lat="45.0037" lon="4.55116">
        <ele>562</ele>
        <time>2015-12-11T08:03:25Z</time>
      </trkpt>
      <trkpt lat="45.00377" lon="4.55123">
        <ele>562</ele>
        <time>2015-12-11T08:03:29Z</time>
      </trkpt>
      <trkpt lat="45.00382" lon="4.55132">
        <ele>561</ele>
        <time>2015-12-11T08:03:33Z</time>
      </trkpt>
      <trkpt lat="45.00389" lon="4.55141">
        <ele>562</ele>
        <time>2015-12-11T08:03:37Z</time>
      </trkpt>
      <trkpt lat="45.00395" lon="4.55151">
        <ele>562</ele>
        <time>2015-12-11T08:03:41Z</time>
      </trkpt>
      <trkpt lat="45.00402" lon="4.55159">
        <ele>561</ele>
        <time>2015-12-11T08:03:45Z</time>
      </trkpt>
      <trkpt lat="45.0041" lon="4.55172">
        <ele>562</ele>
        <time>2015-12-11T08:03:50Z</time>
      </trkpt>
      <trkpt lat="45.00419" lon="4.55185">
        <ele>563</ele>
        <time>2015-12-11T08:03:55Z</time>
      </trkpt>
      <trkpt lat="45.00426" lon="4.55197">
        <ele>563</ele>
        <time>2015-12-11T08:03:59Z</time>
      </trkpt>
      <trkpt lat="45.0043" lon="4.55206">
        <ele>563</ele>
        <time>2015-12-11T08:04:02Z</time>
      </trkpt>
      <trkpt lat="45.00436" lon="4.55218">
        <ele>564</ele>
        <time>2015-12-11T08:04:07Z</time>
      </trkpt>
      <trkpt lat="45.00442" lon="4.55227">
        <ele>564</ele>
        <time>2015-12-11T08:04:11Z</time>
      </trkpt>
      <trkpt lat="45.00447" lon="4.55237">
        <ele>564</ele>
        <time>2015-12-11T08:04:15Z</time>
      </trkpt>
      <trkpt lat="45.00453" lon="4.55247">
        <ele>563</ele>
        <time>2015-12-11T08:04:19Z</time>
      </trkpt>
      <trkpt lat="45.0046" lon="4.55259">
        <ele>565</ele>
        <time>2015-12-11T08:04:23Z</time>
      </trkpt>
      <trkpt lat="45.00467" lon="4.55265">
        <ele>565</ele>
        <time>2015-12-11T08:04:27Z</time>
      </trkpt>
      <trkpt lat="45.00476" lon="4.55268">
        <ele>565</ele>
        <time>2015-12-11T08:04:32Z</time>
      </trkpt>
      <trkpt lat="45.00484" lon="4.55274">
        <ele>565</ele>
        <time>2015-12-11T08:04:36Z</time>
      </trkpt>
      <trkpt lat="45.00491" lon="4.55283">
        <ele>565</ele>
        <time>2015-12-11T08:04:40Z</time>
      </trkpt>
      <trkpt lat="45.00499" lon="4.55293">
        <ele>566</ele>
        <time>2015-12-11T08:04:45Z</time>
      </trkpt>
      <trkpt lat="45.00503" lon="4.55298">
        <ele>567</ele>
        <time>2015-12-11T08:04:48Z</time>
      </trkpt>
      <trkpt lat="45.00511" lon="4.553">
        <ele>567</ele>
        <time>2015-12-11T08:04:52Z</time>
      </trkpt>
      <trkpt lat="45.00518" lon="4.55307">
        <ele>568</ele>
        <time>2015-12-11T08:04:57Z</time>
      </trkpt>
      <trkpt lat="45.00525" lon="4.55318">
        <ele>568</ele>
        <time>2015-12-11T08:05:02Z</time>
      </trkpt>
      <trkpt lat="45.00529" lon="4.55326">
        <ele>568</ele>
        <time>2015-12-11T08:05:05Z</time>
      </trkpt>
      <trkpt lat="45.00532" lon="4.55338">
        <ele>569</ele>
        <time>2015-12-11T08:05:09Z</time>
      </trkpt>
      <trkpt lat="45.00536" lon="4.55347">
        <ele>569</ele>
        <time>2015-12-11T08:05:13Z</time>
      </trkpt>
      <trkpt lat="45.00543" lon="4.55356">
        <ele>569</ele>
        <time>2015-12-11T08:05:17Z</time>
      </trkpt>
      <trkpt lat="45.00548" lon="4.55366">
        <ele>570</ele>
        <time>2015-12-11T08:05:21Z</time>
      </trkpt>
      <trkpt lat="45.00551" lon="4.55376">
        <ele>571</ele>
        <time>2015-12-11T08:05:25Z</time>
      </trkpt>
      <trkpt lat="45.00556" lon="4.55389">
        <ele>572</ele>
        <time>2015-12-11T08:05:29Z</time>
      </trkpt>
      <trkpt lat="45.00561" lon="4.55399">
        <ele>573</ele>
        <time>2015-12-11T08:05:32Z</time>
      </trkpt>
      <trkpt lat="45.00568" lon="4.55413">
        <ele>574</ele>
        <time>2015-12-11T08:05:36Z</time>
      </trkpt>
      <trkpt lat="45.00573" lon="4.5542">
        <ele>575</ele>
        <time>2015-12-11T08:05:39Z</time>
      </trkpt>
      <trkpt lat="45.0058" lon="4.55429">
        <ele>575</ele>
        <time>2015-12-11T08:05:43Z</time>
      </trkpt>
      <trkpt lat="45.00586" lon="4.55439">
        <ele>574</ele>
        <time>2015-12-11T08:05:47Z</time>
      </trkpt>
      <trkpt lat="45.00593" lon="4.55448">
        <ele>574</ele>
        <time>2015-12-11T08:05:51Z</time>
      </trkpt>
      <trkpt lat="45.00601" lon="4.55457">
        <ele>574</ele>
        <time>2015-12-11T08:05:55Z</time>
      </trkpt>
      <trkpt lat="45.00611" lon="4.55467">
        <ele>574</ele>
        <time>2015-12-11T08:06:00Z</time>
      </trkpt>
      <trkpt lat="45.00619" lon="4.55474">
        <ele>574</ele>
        <time>2015-12-11T08:06:04Z</time>
      </trkpt>
      <trkpt lat="45.00628" lon="4.55483">
        <ele>574</ele>
        <time>2015-12-11T08:06:09Z</time>
      </trkpt>
      <trkpt lat="45.00641" lon="4.5549">
        <ele>573</ele>
        <time>2015-12-11T08:06:14Z</time>
      </trkpt>
      <trkpt lat="45.00648" lon="4.5549">
        <ele>574</ele>
        <time>2015-12-11T08:06:17Z</time>
      </trkpt>
      <trkpt lat="45.00656" lon="4.55491">
        <ele>574</ele>
        <time>2015-12-11T08:06:21Z</time>
      </trkpt>
      <trkpt lat="45.00664" lon="4.55489">
        <ele>574</ele>
        <time>2015-12-11T08:06:25Z</time>
      </trkpt>
      <trkpt lat="45.00671" lon="4.55481">
        <ele>574</ele>
        <time>2015-12-11T08:06:31Z</time>
      </trkpt>
      <trkpt lat="45.00677" lon="4.55472">
        <ele>575</ele>
        <time>2015-12-11T08:06:35Z</time>
      </trkpt>
      <trkpt lat="45.00682" lon="4.55464">
        <ele>575</ele>
        <time>2015-12-11T08:06:39Z</time>
      </trkpt>
      <trkpt lat="45.00687" lon="4.55459">
        <ele>575</ele>
        <time>2015-12-11T08:06:43Z</time>
      </trkpt>
      <trkpt lat="45.00692" lon="4.55449">
        <ele>575</ele>
        <time>2015-12-11T08:06:49Z</time>
      </trkpt>
      <trkpt lat="45.00698" lon="4.5544">
        <ele>576</ele>
        <time>2015-12-11T08:06:54Z</time>
      </trkpt>
      <trkpt lat="45.00704" lon="4.55432">
        <ele>577</ele>
        <time>2015-12-11T08:07:00Z</time>
      </trkpt>
      <trkpt lat="45.0071" lon="4.55424">
        <ele>577</ele>
        <time>2015-12-11T08:07:04Z</time>
      </trkpt>
      <trkpt lat="45.00715" lon="4.55417">
        <ele>577</ele>
        <time>2015-12-11T08:07:07Z</time>
      </trkpt>
      <trkpt lat="45.00725" lon="4.55411">
        <ele>578</ele>
        <time>2015-12-11T08:07:11Z</time>
      </trkpt>
      <trkpt lat="45.00733" lon="4.55401">
        <ele>578</ele>
        <time>2015-12-11T08:07:16Z</time>
      </trkpt>
      <trkpt lat="45.00739" lon="4.55397">
        <ele>578</ele>
        <time>2015-12-11T08:07:19Z</time>
      </trkpt>
      <trkpt lat="45.00752" lon="4.55383">
        <ele>579</ele>
        <time>2015-12-11T08:07:24Z</time>
      </trkpt>
      <trkpt lat="45.00762" lon="4.55377">
        <ele>579</ele>
        <time>2015-12-11T08:07:28Z</time>
      </trkpt>
      <trkpt lat="45.00771" lon="4.55363">
        <ele>580</ele>
        <time>2015-12-11T08:07:33Z</time>
      </trkpt>
      <trkpt lat="45.00779" lon="4.55359">
        <ele>580</ele>
        <time>2015-12-11T08:07:36Z</time>
      </trkpt>
      <trkpt lat="45.0079" lon="4.55353">
        <ele>580</ele>
        <time>2015-12-11T08:07:40Z</time>
      </trkpt>
      <trkpt lat="45.00805" lon="4.55343">
        <ele>582</ele>
        <time>2015-12-11T08:07:45Z</time>
      </trkpt>
      <trkpt lat="45.00819" lon="4.55336">
        <ele>582</ele>
        <time>2015-12-11T08:07:50Z</time>
      </trkpt>
      <trkpt lat="45.00828" lon="4.55333">
        <ele>582</ele>
        <time>2015-12-11T08:07:54Z</time>
      </trkpt>
      <trkpt lat="45.00835" lon="4.55339">
        <ele>582</ele>
        <time>2015-12-11T08:07:59Z</time>
      </trkpt>
      <trkpt lat="45.00838" lon="4.55348">
        <ele>583</ele>
        <time>2015-12-11T08:08:05Z</time>
      </trkpt>
      <trkpt lat="45.00833" lon="4.55355">
        <ele>582</ele>
        <time>2015-12-11T08:08:09Z</time>
      </trkpt>
      <trkpt lat="45.00827" lon="4.55372">
        <ele>583</ele>
        <time>2015-12-11T08:08:13Z</time>
      </trkpt>
      <trkpt lat="45.0082" lon="4.55393">
        <ele>584</ele>
        <time>2015-12-11T08:08:17Z</time>
      </trkpt>
      <trkpt lat="45.00819" lon="4.55414">
        <ele>586</ele>
        <time>2015-12-11T08:08:21Z</time>
      </trkpt>
      <trkpt lat="45.00814" lon="4.55428">
        <ele>586</ele>
        <time>2015-12-11T08:08:25Z</time>
      </trkpt>
      <trkpt lat="45.00805" lon="4.55447">
        <ele>586</ele>
        <time>2015-12-11T08:08:29Z</time>
      </trkpt>
      <trkpt lat="45.00798" lon="4.55463">
        <ele>586</ele>
        <time>2015-12-11T08:08:32Z</time>
      </trkpt>
      <trkpt lat="45.00789" lon="4.55479">
        <ele>586</ele>
        <time>2015-12-11T08:08:35Z</time>
      </trkpt>
      <trkpt lat="45.00774" lon="4.55501">
        <ele>586</ele>
        <time>2015-12-11T08:08:39Z</time>
      </trkpt>
      <trkpt lat="45.0076" lon="4.5552">
        <ele>586</ele>
        <time>2015-12-11T08:08:43Z</time>
      </trkpt>
      <trkpt lat="45.0075" lon="4.55535">
        <ele>587</ele>
        <time>2015-12-11T08:08:47Z</time>
      </trkpt>
      <trkpt lat="45.0074" lon="4.55556">
        <ele>587</ele>
        <time>2015-12-11T08:08:51Z</time>
      </trkpt>
      <trkpt lat="45.00731" lon="4.55572">
        <ele>587</ele>
        <time>2015-12-11T08:08:55Z</time>
      </trkpt>
      <trkpt lat="45.00722" lon="4.55589">
        <ele>588</ele>
        <time>2015-12-11T08:08:59Z</time>
      </trkpt>
      <trkpt lat="45.00714" lon="4.5561">
        <ele>588</ele>
        <time>2015-12-11T08:09:03Z</time>
      </trkpt>
      <trkpt lat="45.00712" lon="4.55634">
        <ele>588</ele>
        <time>2015-12-11T08:09:07Z</time>
      </trkpt>
      <trkpt lat="45.00709" lon="4.55661">
        <ele>588</ele>
        <time>2015-12-11T08:09:12Z</time>
      </trkpt>
      <trkpt lat="45.00707" lon="4.55682">
        <ele>588</ele>
        <time>2015-12-11T08:09:16Z</time>
      </trkpt>
      <trkpt lat="45.00706" lon="4.55714">
        <ele>586</ele>
        <time>2015-12-11T08:09:21Z</time>
      </trkpt>
      <trkpt lat="45.00709" lon="4.55737">
        <ele>585</ele>
        <time>2015-12-11T08:09:25Z</time>
      </trkpt>
      <trkpt lat="45.00712" lon="4.55757">
        <ele>585</ele>
        <time>2015-12-11T08:09:29Z</time>
      </trkpt>
      <trkpt lat="45.00715" lon="4.55773">
        <ele>586</ele>
        <time>2015-12-11T08:09:33Z</time>
      </trkpt>
      <trkpt lat="45.00715" lon="4.5579">
        <ele>586</ele>
        <time>2015-12-11T08:09:37Z</time>
      </trkpt>
      <trkpt lat="45.00711" lon="4.55808">
        <ele>586</ele>
        <time>2015-12-11T08:09:41Z</time>
      </trkpt>
      <trkpt lat="45.00708" lon="4.55829">
        <ele>586</ele>
        <time>2015-12-11T08:09:45Z</time>
      </trkpt>
      <trkpt lat="45.00706" lon="4.55844">
        <ele>586</ele>
        <time>2015-12-11T08:09:49Z</time>
      </trkpt>
      <trkpt lat="45.00706" lon="4.55859">
        <ele>587</ele>
        <time>2015-12-11T08:09:52Z</time>
      </trkpt>
      <trkpt lat="45.00697" lon="4.55866">
        <ele>587</ele>
        <time>2015-12-11T08:09:57Z</time>
      </trkpt>
      <trkpt lat="45.00691" lon="4.55858">
        <ele>587</ele>
        <time>2015-12-11T08:10:01Z</time>
      </trkpt>
      <trkpt lat="45.00682" lon="4.55853">
        <ele>587</ele>
        <time>2015-12-11T08:10:05Z</time>
      </trkpt>
      <trkpt lat="45.00674" lon="4.5585">
        <ele>586</ele>
        <time>2015-12-11T08:10:09Z</time>
      </trkpt>
      <trkpt lat="45.00666" lon="4.55841">
        <ele>586</ele>
        <time>2015-12-11T08:10:13Z</time>
      </trkpt>
      <trkpt lat="45.00659" lon="4.55831">
        <ele>586</ele>
        <time>2015-12-11T08:10:18Z</time>
      </trkpt>
      <trkpt lat="45.00653" lon="4.55823">
        <ele>584</ele>
        <time>2015-12-11T08:10:22Z</time>
      </trkpt>
      <trkpt lat="45.00646" lon="4.55818">
        <ele>584</ele>
        <time>2015-12-11T08:10:26Z</time>
      </trkpt>
      <trkpt lat="45.00637" lon="4.5581">
        <ele>584</ele>
        <time>2015-12-11T08:10:31Z</time>
      </trkpt>
      <trkpt lat="45.00631" lon="4.55805">
        <ele>583</ele>
        <time>2015-12-11T08:10:35Z</time>
      </trkpt>
      <trkpt lat="45.00624" lon="4.55801">
        <ele>584</ele>
        <time>2015-12-11T08:10:39Z</time>
      </trkpt>
      <trkpt lat="45.00617" lon="4.55797">
        <ele>584</ele>
        <time>2015-12-11T08:10:43Z</time>
      </trkpt>
      <trkpt lat="45.0061" lon="4.55794">
        <ele>583</ele>
        <time>2015-12-11T08:10:48Z</time>
      </trkpt>
      <trkpt lat="45.00605" lon="4.55789">
        <ele>583</ele>
        <time>2015-12-11T08:10:51Z</time>
      </trkpt>
      <trkpt lat="45.00597" lon="4.55786">
        <ele>583</ele>
        <time>2015-12-11T08:10:55Z</time>
      </trkpt>
      <trkpt lat="45.00589" lon="4.5578">
        <ele>583</ele>
        <time>2015-12-11T08:10:59Z</time>
      </trkpt>
      <trkpt lat="45.00576" lon="4.55779">
        <ele>582</ele>
        <time>2015-12-11T08:11:04Z</time>
      </trkpt>
      <trkpt lat="45.00563" lon="4.55777">
        <ele>582</ele>
        <time>2015-12-11T08:11:09Z</time>
      </trkpt>
      <trkpt lat="45.00556" lon="4.55775">
        <ele>582</ele>
        <time>2015-12-11T08:11:12Z</time>
      </trkpt>
      <trkpt lat="45.00546" lon="4.55769">
        <ele>583</ele>
        <time>2015-12-11T08:11:16Z</time>
      </trkpt>
      <trkpt lat="45.00539" lon="4.55764">
        <ele>582</ele>
        <time>2015-12-11T08:11:19Z</time>
      </trkpt>
      <trkpt lat="45.00531" lon="4.55762">
        <ele>583</ele>
        <time>2015-12-11T08:11:23Z</time>
      </trkpt>
      <trkpt lat="45.00522" lon="4.55761">
        <ele>583</ele>
        <time>2015-12-11T08:11:27Z</time>
      </trkpt>
      <trkpt lat="45.00512" lon="4.55759">
        <ele>583</ele>
        <time>2015-12-11T08:11:31Z</time>
      </trkpt>
      <trkpt lat="45.00503" lon="4.55755">
        <ele>583</ele>
        <time>2015-12-11T08:11:36Z</time>
      </trkpt>
      <trkpt lat="45.00496" lon="4.55746">
        <ele>584</ele>
        <time>2015-12-11T08:11:40Z</time>
      </trkpt>
      <trkpt lat="45.00483" lon="4.5574">
        <ele>585</ele>
        <time>2015-12-11T08:11:45Z</time>
      </trkpt>
      <trkpt lat="45.00477" lon="4.55732">
        <ele>585</ele>
        <time>2015-12-11T08:11:48Z</time>
      </trkpt>
      <trkpt lat="45.00469" lon="4.55725">
        <ele>586</ele>
        <time>2015-12-11T08:11:52Z</time>
      </trkpt>
      <trkpt lat="45.00461" lon="4.55719">
        <ele>586</ele>
        <time>2015-12-11T08:11:55Z</time>
      </trkpt>
      <trkpt lat="45.00449" lon="4.55708">
        <ele>587</ele>
        <time>2015-12-11T08:11:59Z</time>
      </trkpt>
      <trkpt lat="45.00438" lon="4.55703">
        <ele>587</ele>
        <time>2015-12-11T08:12:03Z</time>
      </trkpt>
      <trkpt lat="45.00428" lon="4.557">
        <ele>588</ele>
        <time>2015-12-11T08:12:07Z</time>
      </trkpt>
      <trkpt lat="45.00417" lon="4.55698">
        <ele>588</ele>
        <time>2015-12-11T08:12:11Z</time>
      </trkpt>
      <trkpt lat="45.00404" lon="4.55698">
        <ele>590</ele>
        <time>2015-12-11T08:12:16Z</time>
      </trkpt>
      <trkpt lat="45.00395" lon="4.55705">
        <ele>591</ele>
        <time>2015-12-11T08:12:20Z</time>
      </trkpt>
      <trkpt lat="45.00387" lon="4.55717">
        <ele>592</ele>
        <time>2015-12-11T08:12:25Z</time>
      </trkpt>
      <trkpt lat="45.00381" lon="4.55723">
        <ele>592</ele>
        <time>2015-12-11T08:12:28Z</time>
      </trkpt>
      <trkpt lat="45.00371" lon="4.55734">
        <ele>593</ele>
        <time>2015-12-11T08:12:33Z</time>
      </trkpt>
      <trkpt lat="45.00363" lon="4.55743">
        <ele>594</ele>
        <time>2015-12-11T08:12:37Z</time>
      </trkpt>
      <trkpt lat="45.00356" lon="4.5575">
        <ele>597</ele>
        <time>2015-12-11T08:12:42Z</time>
      </trkpt>
      <trkpt lat="45.00362" lon="4.55751">
        <ele>604</ele>
        <time>2015-12-11T08:14:09Z</time>
      </trkpt>
      <trkpt lat="45.00373" lon="4.55749">
        <ele>604</ele>
        <time>2015-12-11T08:14:13Z</time>
      </trkpt>
      <trkpt lat="45.00388" lon="4.55747">
        <ele>604</ele>
        <time>2015-12-11T08:14:18Z</time>
      </trkpt>
      <trkpt lat="45.00401" lon="4.55746">
        <ele>604</ele>
        <time>2015-12-11T08:14:22Z</time>
      </trkpt>
      <trkpt lat="45.00416" lon="4.55747">
        <ele>604</ele>
        <time>2015-12-11T08:14:27Z</time>
      </trkpt>
      <trkpt lat="45.00429" lon="4.5575">
        <ele>603</ele>
        <time>2015-12-11T08:14:31Z</time>
      </trkpt>
      <trkpt lat="45.00445" lon="4.55756">
        <ele>602</ele>
        <time>2015-12-11T08:14:36Z</time>
      </trkpt>
      <trkpt lat="45.00457" lon="4.55763">
        <ele>602</ele>
        <time>2015-12-11T08:14:40Z</time>
      </trkpt>
      <trkpt lat="45.00466" lon="4.55771">
        <ele>601</ele>
        <time>2015-12-11T08:14:45Z</time>
      </trkpt>
      <trkpt lat="45.00472" lon="4.55775">
        <ele>601</ele>
        <time>2015-12-11T08:14:48Z</time>
      </trkpt>
      <trkpt lat="45.00479" lon="4.55782">
        <ele>601</ele>
        <time>2015-12-11T08:14:52Z</time>
      </trkpt>
      <trkpt lat="45.00488" lon="4.5579">
        <ele>600</ele>
        <time>2015-12-11T08:14:56Z</time>
      </trkpt>
      <trkpt lat="45.00494" lon="4.55794">
        <ele>600</ele>
        <time>2015-12-11T08:14:59Z</time>
      </trkpt>
      <trkpt lat="45.00508" lon="4.55805">
        <ele>600</ele>
        <time>2015-12-11T08:15:04Z</time>
      </trkpt>
      <trkpt lat="45.00516" lon="4.55813">
        <ele>600</ele>
        <time>2015-12-11T08:15:08Z</time>
      </trkpt>
      <trkpt lat="45.00532" lon="4.5582">
        <ele>600</ele>
        <time>2015-12-11T08:15:13Z</time>
      </trkpt>
      <trkpt lat="45.00544" lon="4.55826">
        <ele>599</ele>
        <time>2015-12-11T08:15:17Z</time>
      </trkpt>
      <trkpt lat="45.00557" lon="4.55837">
        <ele>600</ele>
        <time>2015-12-11T08:15:21Z</time>
      </trkpt>
      <trkpt lat="45.00567" lon="4.55846">
        <ele>599</ele>
        <time>2015-12-11T08:15:25Z</time>
      </trkpt>
      <trkpt lat="45.00574" lon="4.55861">
        <ele>599</ele>
        <time>2015-12-11T08:15:29Z</time>
      </trkpt>
      <trkpt lat="45.00587" lon="4.55877">
        <ele>599</ele>
        <time>2015-12-11T08:15:34Z</time>
      </trkpt>
      <trkpt lat="45.00592" lon="4.55894">
        <ele>599</ele>
        <time>2015-12-11T08:15:38Z</time>
      </trkpt>
      <trkpt lat="45.006" lon="4.55914">
        <ele>599</ele>
        <time>2015-12-11T08:15:43Z</time>
      </trkpt>
      <trkpt lat="45.00606" lon="4.5593">
        <ele>599</ele>
        <time>2015-12-11T08:15:47Z</time>
      </trkpt>
      <trkpt lat="45.00613" lon="4.55945">
        <ele>598</ele>
        <time>2015-12-11T08:15:51Z</time>
      </trkpt>
      <trkpt lat="45.00618" lon="4.55957">
        <ele>598</ele>
        <time>2015-12-11T08:15:54Z</time>
      </trkpt>
      <trkpt lat="45.00626" lon="4.55979">
        <ele>598</ele>
        <time>2015-12-11T08:15:59Z</time>
      </trkpt>
      <trkpt lat="45.00633" lon="4.55997">
        <ele>597</ele>
        <time>2015-12-11T08:16:03Z</time>
      </trkpt>
      <trkpt lat="45.00639" lon="4.5601">
        <ele>597</ele>
        <time>2015-12-11T08:16:06Z</time>
      </trkpt>
      <trkpt lat="45.00648" lon="4.56026">
        <ele>597</ele>
        <time>2015-12-11T08:16:10Z</time>
      </trkpt>
      <trkpt lat="45.00657" lon="4.56042">
        <ele>597</ele>
        <time>2015-12-11T08:16:14Z</time>
      </trkpt>
      <trkpt lat="45.00662" lon="4.56052">
        <ele>596</ele>
        <time>2015-12-11T08:16:17Z</time>
      </trkpt>
      <trkpt lat="45.00665" lon="4.56068">
        <ele>596</ele>
        <time>2015-12-11T08:16:21Z</time>
      </trkpt>
      <trkpt lat="45.00673" lon="4.5608">
        <ele>596</ele>
        <time>2015-12-11T08:16:25Z</time>
      </trkpt>
      <trkpt lat="45.00679" lon="4.56096">
        <ele>597</ele>
        <time>2015-12-11T08:16:29Z</time>
      </trkpt>
      <trkpt lat="45.00689" lon="4.56113">
        <ele>597</ele>
        <time>2015-12-11T08:16:34Z</time>
      </trkpt>
      <trkpt lat="45.00697" lon="4.56123">
        <ele>597</ele>
        <time>2015-12-11T08:16:38Z</time>
      </trkpt>
      <trkpt lat="45.00703" lon="4.56129">
        <ele>596</ele>
        <time>2015-12-11T08:16:41Z</time>
      </trkpt>
      <trkpt lat="45.00713" lon="4.56135">
        <ele>596</ele>
        <time>2015-12-11T08:16:45Z</time>
      </trkpt>
      <trkpt lat="45.00719" lon="4.56143">
        <ele>596</ele>
        <time>2015-12-11T08:16:49Z</time>
      </trkpt>
      <trkpt lat="45.00726" lon="4.56151">
        <ele>596</ele>
        <time>2015-12-11T08:16:53Z</time>
      </trkpt>
      <trkpt lat="45.00731" lon="4.56159">
        <ele>595</ele>
        <time>2015-12-11T08:16:56Z</time>
      </trkpt>
      <trkpt lat="45.00737" lon="4.56174">
        <ele>595</ele>
        <time>2015-12-11T08:17:00Z</time>
      </trkpt>
      <trkpt lat="45.00744" lon="4.56194">
        <ele>595</ele>
        <time>2015-12-11T08:17:05Z</time>
      </trkpt>
      <trkpt lat="45.00748" lon="4.5621">
        <ele>595</ele>
        <time>2015-12-11T08:17:09Z</time>
      </trkpt>
      <trkpt lat="45.00755" lon="4.56222">
        <ele>595</ele>
        <time>2015-12-11T08:17:13Z</time>
      </trkpt>
      <trkpt lat="45.00763" lon="4.56231">
        <ele>594</ele>
        <time>2015-12-11T08:17:17Z</time>
      </trkpt>
      <trkpt lat="45.00781" lon="4.56246">
        <ele>595</ele>
        <time>2015-12-11T08:17:22Z</time>
      </trkpt>
      <trkpt lat="45.00796" lon="4.56251">
        <ele>595</ele>
        <time>2015-12-11T08:17:25Z</time>
      </trkpt>
      <trkpt lat="45.00802" lon="4.56261">
        <ele>596</ele>
        <time>2015-12-11T08:17:28Z</time>
      </trkpt>
      <trkpt lat="45.00811" lon="4.5626">
        <ele>597</ele>
        <time>2015-12-11T08:17:33Z</time>
      </trkpt>
      <trkpt lat="45.00815" lon="4.56269">
        <ele>601</ele>
        <time>2015-12-11T08:17:39Z</time>
      </trkpt>
      <trkpt lat="45.00823" lon="4.56276">
        <ele>619</ele>
        <time>2015-12-11T08:19:09Z</time>
      </trkpt>
      <trkpt lat="45.00814" lon="4.56276">
        <ele>621</ele>
        <time>2015-12-11T08:19:32Z</time>
      </trkpt>
      <trkpt lat="45.00808" lon="4.56273">
        <ele>622</ele>
        <time>2015-12-11T08:19:37Z</time>
      </trkpt>
      <trkpt lat="45.00802" lon="4.5627">
        <ele>622</ele>
        <time>2015-12-11T08:19:40Z</time>
      </trkpt>
      <trkpt lat="45.00797" lon="4.56271">
        <ele>622</ele>
        <time>2015-12-11T08:19:43Z</time>
      </trkpt>
      <trkpt lat="45.00789" lon="4.56269">
        <ele>622</ele>
        <time>2015-12-11T08:19:48Z</time>
      </trkpt>
      <trkpt lat="45.00781" lon="4.56266">
        <ele>622</ele>
        <time>2015-12-11T08:19:56Z</time>
      </trkpt>
      <trkpt lat="45.00774" lon="4.56269">
        <ele>622</ele>
        <time>2015-12-11T08:20:03Z</time>
      </trkpt>
      <trkpt lat="45.00767" lon="4.56268">
        <ele>623</ele>
        <time>2015-12-11T08:20:09Z</time>
      </trkpt>
      <trkpt lat="45.00759" lon="4.56265">
        <ele>623</ele>
        <time>2015-12-11T08:20:13Z</time>
      </trkpt>
      <trkpt lat="45.00751" lon="4.56263">
        <ele>623</ele>
        <time>2015-12-11T08:20:19Z</time>
      </trkpt>
      <trkpt lat="45.00743" lon="4.56261">
        <ele>624</ele>
        <time>2015-12-11T08:20:25Z</time>
      </trkpt>
      <trkpt lat="45.00736" lon="4.56258">
        <ele>624</ele>
        <time>2015-12-11T08:20:31Z</time>
      </trkpt>
      <trkpt lat="45.0073" lon="4.56249">
        <ele>626</ele>
        <time>2015-12-11T08:20:43Z</time>
      </trkpt>
      <trkpt lat="45.00722" lon="4.56245">
        <ele>628</ele>
        <time>2015-12-11T08:20:55Z</time>
      </trkpt>
      <trkpt lat="45.00716" lon="4.56242">
        <ele>628</ele>
        <time>2015-12-11T08:21:01Z</time>
      </trkpt>
      <trkpt lat="45.00708" lon="4.56238">
        <ele>628</ele>
        <time>2015-12-11T08:21:07Z</time>
      </trkpt>
      <trkpt lat="45.007" lon="4.56238">
        <ele>628</ele>
        <time>2015-12-11T08:21:13Z</time>
      </trkpt>
      <trkpt lat="45.00692" lon="4.56239">
        <ele>629</ele>
        <time>2015-12-11T08:21:19Z</time>
      </trkpt>
      <trkpt lat="45.00684" lon="4.56239">
        <ele>630</ele>
        <time>2015-12-11T08:21:28Z</time>
      </trkpt>
      <trkpt lat="45.00677" lon="4.56245">
        <ele>631</ele>
        <time>2015-12-11T08:21:35Z</time>
      </trkpt>
      <trkpt lat="45.00669" lon="4.56245">
        <ele>632</ele>
        <time>2015-12-11T08:21:42Z</time>
      </trkpt>
      <trkpt lat="45.00662" lon="4.56243">
        <ele>632</ele>
        <time>2015-12-11T08:21:47Z</time>
      </trkpt>
      <trkpt lat="45.00656" lon="4.56241">
        <ele>632</ele>
        <time>2015-12-11T08:21:52Z</time>
      </trkpt>
      <trkpt lat="45.0065" lon="4.56239">
        <ele>633</ele>
        <time>2015-12-11T08:22:00Z</time>
      </trkpt>
      <trkpt lat="45.00641" lon="4.5624">
        <ele>633</ele>
        <time>2015-12-11T08:22:05Z</time>
      </trkpt>
      <trkpt lat="45.00634" lon="4.5624">
        <ele>634</ele>
        <time>2015-12-11T08:22:11Z</time>
      </trkpt>
      <trkpt lat="45.00627" lon="4.56243">
        <ele>634</ele>
        <time>2015-12-11T08:22:16Z</time>
      </trkpt>
      <trkpt lat="45.00622" lon="4.56244">
        <ele>634</ele>
        <time>2015-12-11T08:22:19Z</time>
      </trkpt>
      <trkpt lat="45.00612" lon="4.56246">
        <ele>634</ele>
        <time>2015-12-11T08:22:23Z</time>
      </trkpt>
      <trkpt lat="45.00598" lon="4.5625">
        <ele>635</ele>
        <time>2015-12-11T08:22:28Z</time>
      </trkpt>
      <trkpt lat="45.00591" lon="4.5625">
        <ele>636</ele>
        <time>2015-12-11T08:22:32Z</time>
      </trkpt>
      <trkpt lat="45.00583" lon="4.56251">
        <ele>636</ele>
        <time>2015-12-11T08:22:36Z</time>
      </trkpt>
      <trkpt lat="45.00572" lon="4.56253">
        <ele>638</ele>
        <time>2015-12-11T08:22:41Z</time>
      </trkpt>
      <trkpt lat="45.00564" lon="4.56253">
        <ele>639</ele>
        <time>2015-12-11T08:22:44Z</time>
      </trkpt>
      <trkpt lat="45.00557" lon="4.56254">
        <ele>641</ele>
        <time>2015-12-11T08:22:49Z</time>
      </trkpt>
      <trkpt lat="45.00548" lon="4.56249">
        <ele>644</ele>
        <time>2015-12-11T08:22:53Z</time>
      </trkpt>
      <trkpt lat="45.0054" lon="4.56251">
        <ele>652</ele>
        <time>2015-12-11T08:23:07Z</time>
      </trkpt>
      <trkpt lat="45.00532" lon="4.56253">
        <ele>654</ele>
        <time>2015-12-11T08:23:13Z</time>
      </trkpt>
      <trkpt lat="45.00525" lon="4.56253">
        <ele>654</ele>
        <time>2015-12-11T08:23:21Z</time>
      </trkpt>
      <trkpt lat="45.00518" lon="4.56251">
        <ele>654</ele>
        <time>2015-12-11T08:23:27Z</time>
      </trkpt>
      <trkpt lat="45.0051" lon="4.56253">
        <ele>655</ele>
        <time>2015-12-11T08:23:32Z</time>
      </trkpt>
      <trkpt lat="45.00505" lon="4.56261">
        <ele>655</ele>
        <time>2015-12-11T08:23:43Z</time>
      </trkpt>
      <trkpt lat="45.00502" lon="4.56271">
        <ele>655</ele>
        <time>2015-12-11T08:23:50Z</time>
      </trkpt>
      <trkpt lat="45.00503" lon="4.56282">
        <ele>654</ele>
        <time>2015-12-11T08:23:57Z</time>
      </trkpt>
      <trkpt lat="45.00506" lon="4.56293">
        <ele>654</ele>
        <time>2015-12-11T08:24:03Z</time>
      </trkpt>
      <trkpt lat="45.00505" lon="4.56306">
        <ele>654</ele>
        <time>2015-12-11T08:24:07Z</time>
      </trkpt>
      <trkpt lat="45.00506" lon="4.56316">
        <ele>654</ele>
        <time>2015-12-11T08:24:13Z</time>
      </trkpt>
      <trkpt lat="45.00506" lon="4.56327">
        <ele>653</ele>
        <time>2015-12-11T08:24:20Z</time>
      </trkpt>
      <trkpt lat="45.00507" lon="4.56336">
        <ele>653</ele>
        <time>2015-12-11T08:24:26Z</time>
      </trkpt>
      <trkpt lat="45.00505" lon="4.56347">
        <ele>652</ele>
        <time>2015-12-11T08:24:35Z</time>
      </trkpt>
      <trkpt lat="45.00507" lon="4.56359">
        <ele>652</ele>
        <time>2015-12-11T08:24:40Z</time>
      </trkpt>
      <trkpt lat="45.00506" lon="4.56375">
        <ele>652</ele>
        <time>2015-12-11T08:24:44Z</time>
      </trkpt>
      <trkpt lat="45.00504" lon="4.56393">
        <ele>652</ele>
        <time>2015-12-11T08:24:48Z</time>
      </trkpt>
      <trkpt lat="45.00504" lon="4.56413">
        <ele>652</ele>
        <time>2015-12-11T08:24:53Z</time>
      </trkpt>
      <trkpt lat="45.00508" lon="4.56437">
        <ele>652</ele>
        <time>2015-12-11T08:24:57Z</time>
      </trkpt>
      <trkpt lat="45.00507" lon="4.56457">
        <ele>652</ele>
        <time>2015-12-11T08:25:01Z</time>
      </trkpt>
      <trkpt lat="45.00507" lon="4.56468">
        <ele>652</ele>
        <time>2015-12-11T08:25:04Z</time>
      </trkpt>
      <trkpt lat="45.00511" lon="4.56495">
        <ele>653</ele>
        <time>2015-12-11T08:25:09Z</time>
      </trkpt>
      <trkpt lat="45.0051" lon="4.56496">
        <ele>653</ele>
        <time>2015-12-11T08:25:17Z</time>
      </trkpt>
      <trkpt lat="45.005" lon="4.56502">
        <ele>651</ele>
        <time>2015-12-11T08:25:21Z</time>
      </trkpt>
      <trkpt lat="45.00496" lon="4.56511">
        <ele>650</ele>
        <time>2015-12-11T08:25:26Z</time>
      </trkpt>
      <trkpt lat="45.00495" lon="4.56526">
        <ele>650</ele>
        <time>2015-12-11T08:25:30Z</time>
      </trkpt>
      <trkpt lat="45.00487" lon="4.5653">
        <ele>647</ele>
        <time>2015-12-11T08:26:33Z</time>
      </trkpt>
      <trkpt lat="45.00492" lon="4.56535">
        <ele>647</ele>
        <time>2015-12-11T08:28:52Z</time>
      </trkpt>
      <trkpt lat="45.0049" lon="4.56523">
        <ele>645</ele>
        <time>2015-12-11T08:29:48Z</time>
      </trkpt>
      <trkpt lat="45.00498" lon="4.56527">
        <ele>642</ele>
        <time>2015-12-11T08:30:34Z</time>
      </trkpt>
      <trkpt lat="45.00499" lon="4.56514">
        <ele>641</ele>
        <time>2015-12-11T08:31:05Z</time>
      </trkpt>
      <trkpt lat="45.00502" lon="4.56505">
        <ele>641</ele>
        <time>2015-12-11T08:31:11Z</time>
      </trkpt>
      <trkpt lat="45.00506" lon="4.56497">
        <ele>641</ele>
        <time>2015-12-11T08:31:18Z</time>
      </trkpt>
      <trkpt lat="45.00508" lon="4.56487">
        <ele>641</ele>
        <time>2015-12-11T08:31:22Z</time>
      </trkpt>
      <trkpt lat="45.0051" lon="4.56476">
        <ele>641</ele>
        <time>2015-12-11T08:31:28Z</time>
      </trkpt>
      <trkpt lat="45.00509" lon="4.56463">
        <ele>640</ele>
        <time>2015-12-11T08:31:35Z</time>
      </trkpt>
      <trkpt lat="45.00506" lon="4.56453">
        <ele>640</ele>
        <time>2015-12-11T08:31:40Z</time>
      </trkpt>
      <trkpt lat="45.00503" lon="4.56444">
        <ele>640</ele>
        <time>2015-12-11T08:31:46Z</time>
      </trkpt>
      <trkpt lat="45.00501" lon="4.56433">
        <ele>640</ele>
        <time>2015-12-11T08:31:54Z</time>
      </trkpt>
      <trkpt lat="45.00498" lon="4.56422">
        <ele>640</ele>
        <time>2015-12-11T08:32:02Z</time>
      </trkpt>
      <trkpt lat="45.00499" lon="4.56411">
        <ele>640</ele>
        <time>2015-12-11T08:32:08Z</time>
      </trkpt>
      <trkpt lat="45.005" lon="4.56398">
        <ele>639</ele>
        <time>2015-12-11T08:32:15Z</time>
      </trkpt>
      <trkpt lat="45.00501" lon="4.56389">
        <ele>639</ele>
        <time>2015-12-11T08:32:21Z</time>
      </trkpt>
      <trkpt lat="45.00501" lon="4.56377">
        <ele>639</ele>
        <time>2015-12-11T08:32:27Z</time>
      </trkpt>
      <trkpt lat="45.00503" lon="4.56366">
        <ele>639</ele>
        <time>2015-12-11T08:32:34Z</time>
      </trkpt>
      <trkpt lat="45.00504" lon="4.56354">
        <ele>639</ele>
        <time>2015-12-11T08:32:39Z</time>
      </trkpt>
      <trkpt lat="45.00506" lon="4.56344">
        <ele>639</ele>
        <time>2015-12-11T08:32:46Z</time>
      </trkpt>
      <trkpt lat="45.0051" lon="4.56334">
        <ele>639</ele>
        <time>2015-12-11T08:32:53Z</time>
      </trkpt>
      <trkpt lat="45.00511" lon="4.56323">
        <ele>639</ele>
        <time>2015-12-11T08:33:02Z</time>
      </trkpt>
      <trkpt lat="45.00507" lon="4.56312">
        <ele>640</ele>
        <time>2015-12-11T08:33:13Z</time>
      </trkpt>
      <trkpt lat="45.00507" lon="4.563">
        <ele>640</ele>
        <time>2015-12-11T08:33:22Z</time>
      </trkpt>
      <trkpt lat="45.00504" lon="4.56289">
        <ele>641</ele>
        <time>2015-12-11T08:33:27Z</time>
      </trkpt>
      <trkpt lat="45.00502" lon="4.56279">
        <ele>642</ele>
        <time>2015-12-11T08:33:33Z</time>
      </trkpt>
      <trkpt lat="45.00496" lon="4.56269">
        <ele>642</ele>
        <time>2015-12-11T08:33:38Z</time>
      </trkpt>
      <trkpt lat="45.00501" lon="4.56258">
        <ele>643</ele>
        <time>2015-12-11T08:33:48Z</time>
      </trkpt>
      <trkpt lat="45.00508" lon="4.56252">
        <ele>644</ele>
        <time>2015-12-11T08:33:57Z</time>
      </trkpt>
      <trkpt lat="45.00515" lon="4.56251">
        <ele>646</ele>
        <time>2015-12-11T08:34:09Z</time>
      </trkpt>
      <trkpt lat="45.00524" lon="4.56249">
        <ele>648</ele>
        <time>2015-12-11T08:34:18Z</time>
      </trkpt>
      <trkpt lat="45.00532" lon="4.56248">
        <ele>649</ele>
        <time>2015-12-11T08:34:25Z</time>
      </trkpt>
      <trkpt lat="45.0054" lon="4.56246">
        <ele>651</ele>
        <time>2015-12-11T08:34:33Z</time>
      </trkpt>
      <trkpt lat="45.00557" lon="4.56247">
        <ele>652</ele>
        <time>2015-12-11T08:34:38Z</time>
      </trkpt>
      <trkpt lat="45.00572" lon="4.56245">
        <ele>653</ele>
        <time>2015-12-11T08:34:43Z</time>
      </trkpt>
      <trkpt lat="45.00585" lon="4.56244">
        <ele>653</ele>
        <time>2015-12-11T08:34:47Z</time>
      </trkpt>
      <trkpt lat="45.00597" lon="4.56243">
        <ele>653</ele>
        <time>2015-12-11T08:34:52Z</time>
      </trkpt>
      <trkpt lat="45.00611" lon="4.56246">
        <ele>652</ele>
        <time>2015-12-11T08:34:56Z</time>
      </trkpt>
      <trkpt lat="45.00624" lon="4.56244">
        <ele>652</ele>
        <time>2015-12-11T08:35:00Z</time>
      </trkpt>
      <trkpt lat="45.00634" lon="4.56244">
        <ele>651</ele>
        <time>2015-12-11T08:35:04Z</time>
      </trkpt>
      <trkpt lat="45.00646" lon="4.56245">
        <ele>650</ele>
        <time>2015-12-11T08:35:08Z</time>
      </trkpt>
      <trkpt lat="45.00657" lon="4.56246">
        <ele>649</ele>
        <time>2015-12-11T08:35:11Z</time>
      </trkpt>
      <trkpt lat="45.00669" lon="4.56249">
        <ele>649</ele>
        <time>2015-12-11T08:35:15Z</time>
      </trkpt>
      <trkpt lat="45.00679" lon="4.56251">
        <ele>648</ele>
        <time>2015-12-11T08:35:19Z</time>
      </trkpt>
      <trkpt lat="45.00691" lon="4.56253">
        <ele>648</ele>
        <time>2015-12-11T08:35:23Z</time>
      </trkpt>
      <trkpt lat="45.00702" lon="4.56255">
        <ele>647</ele>
        <time>2015-12-11T08:35:28Z</time>
      </trkpt>
      <trkpt lat="45.00715" lon="4.56259">
        <ele>646</ele>
        <time>2015-12-11T08:35:32Z</time>
      </trkpt>
      <trkpt lat="45.00726" lon="4.5626">
        <ele>645</ele>
        <time>2015-12-11T08:35:36Z</time>
      </trkpt>
      <trkpt lat="45.00741" lon="4.56258">
        <ele>644</ele>
        <time>2015-12-11T08:35:41Z</time>
      </trkpt>
      <trkpt lat="45.00756" lon="4.56262">
        <ele>644</ele>
        <time>2015-12-11T08:35:46Z</time>
      </trkpt>
      <trkpt lat="45.00766" lon="4.56261">
        <ele>644</ele>
        <time>2015-12-11T08:35:49Z</time>
      </trkpt>
      <trkpt lat="45.00782" lon="4.56263">
        <ele>643</ele>
        <time>2015-12-11T08:35:52Z</time>
      </trkpt>
      <trkpt lat="45.00803" lon="4.56269">
        <ele>642</ele>
        <time>2015-12-11T08:35:56Z</time>
      </trkpt>
      <trkpt lat="45.00824" lon="4.5627">
        <ele>641</ele>
        <time>2015-12-11T08:36:01Z</time>
      </trkpt>
      <trkpt lat="45.00838" lon="4.56265">
        <ele>641</ele>
        <time>2015-12-11T08:36:05Z</time>
      </trkpt>
      <trkpt lat="45.00851" lon="4.56255">
        <ele>643</ele>
        <time>2015-12-11T08:36:09Z</time>
      </trkpt>
      <trkpt lat="45.00867" lon="4.56245">
        <ele>649</ele>
        <time>2015-12-11T08:36:13Z</time>
      </trkpt>
      <trkpt lat="45.00874" lon="4.56234">
        <ele>647</ele>
        <time>2015-12-11T08:36:17Z</time>
      </trkpt>
      <trkpt lat="45.00875" lon="4.5622">
        <ele>645</ele>
        <time>2015-12-11T08:36:21Z</time>
      </trkpt>
      <trkpt lat="45.00876" lon="4.56204">
        <ele>646</ele>
        <time>2015-12-11T08:36:25Z</time>
      </trkpt>
      <trkpt lat="45.00879" lon="4.56189">
        <ele>646</ele>
        <time>2015-12-11T08:36:29Z</time>
      </trkpt>
      <trkpt lat="45.0088" lon="4.56175">
        <ele>645</ele>
        <time>2015-12-11T08:36:33Z</time>
      </trkpt>
      <trkpt lat="45.0088" lon="4.5616">
        <ele>645</ele>
        <time>2015-12-11T08:36:38Z</time>
      </trkpt>
      <trkpt lat="45.0088" lon="4.56146">
        <ele>645</ele>
        <time>2015-12-11T08:36:42Z</time>
      </trkpt>
      <trkpt lat="45.00878" lon="4.56129">
        <ele>645</ele>
        <time>2015-12-11T08:36:47Z</time>
      </trkpt>
      <trkpt lat="45.00877" lon="4.56116">
        <ele>645</ele>
        <time>2015-12-11T08:36:51Z</time>
      </trkpt>
      <trkpt lat="45.00877" lon="4.56102">
        <ele>645</ele>
        <time>2015-12-11T08:36:55Z</time>
      </trkpt>
      <trkpt lat="45.00875" lon="4.56084">
        <ele>644</ele>
        <time>2015-12-11T08:37:00Z</time>
      </trkpt>
      <trkpt lat="45.00875" lon="4.5607">
        <ele>644</ele>
        <time>2015-12-11T08:37:04Z</time>
      </trkpt>
      <trkpt lat="45.00874" lon="4.56055">
        <ele>644</ele>
        <time>2015-12-11T08:37:08Z</time>
      </trkpt>
      <trkpt lat="45.00873" lon="4.5604">
        <ele>644</ele>
        <time>2015-12-11T08:37:12Z</time>
      </trkpt>
      <trkpt lat="45.00872" lon="4.56029">
        <ele>643</ele>
        <time>2015-12-11T08:37:15Z</time>
      </trkpt>
      <trkpt lat="45.00867" lon="4.56018">
        <ele>644</ele>
        <time>2015-12-11T08:37:19Z</time>
      </trkpt>
      <trkpt lat="45.00865" lon="4.56005">
        <ele>645</ele>
        <time>2015-12-11T08:37:24Z</time>
      </trkpt>
      <trkpt lat="45.00867" lon="4.55993">
        <ele>646</ele>
        <time>2015-12-11T08:37:31Z</time>
      </trkpt>
      <trkpt lat="45.00867" lon="4.55984">
        <ele>647</ele>
        <time>2015-12-11T08:37:35Z</time>
      </trkpt>
      <trkpt lat="45.00864" lon="4.55974">
        <ele>648</ele>
        <time>2015-12-11T08:37:39Z</time>
      </trkpt>
      <trkpt lat="45.00865" lon="4.55961">
        <ele>648</ele>
        <time>2015-12-11T08:37:43Z</time>
      </trkpt>
      <trkpt lat="45.00868" lon="4.55944">
        <ele>649</ele>
        <time>2015-12-11T08:37:48Z</time>
      </trkpt>
      <trkpt lat="45.00875" lon="4.55933">
        <ele>650</ele>
        <time>2015-12-11T08:37:52Z</time>
      </trkpt>
      <trkpt lat="45.0088" lon="4.55917">
        <ele>651</ele>
        <time>2015-12-11T08:37:57Z</time>
      </trkpt>
      <trkpt lat="45.00886" lon="4.55907">
        <ele>651</ele>
        <time>2015-12-11T08:38:01Z</time>
      </trkpt>
      <trkpt lat="45.00892" lon="4.55898">
        <ele>653</ele>
        <time>2015-12-11T08:38:05Z</time>
      </trkpt>
      <trkpt lat="45.00898" lon="4.55888">
        <ele>653</ele>
        <time>2015-12-11T08:38:09Z</time>
      </trkpt>
      <trkpt lat="45.00904" lon="4.55875">
        <ele>653</ele>
        <time>2015-12-11T08:38:14Z</time>
      </trkpt>
      <trkpt lat="45.00906" lon="4.55866">
        <ele>653</ele>
        <time>2015-12-11T08:38:17Z</time>
      </trkpt>
      <trkpt lat="45.00908" lon="4.55855">
        <ele>654</ele>
        <time>2015-12-11T08:38:21Z</time>
      </trkpt>
      <trkpt lat="45.00912" lon="4.55842">
        <ele>654</ele>
        <time>2015-12-11T08:38:25Z</time>
      </trkpt>
      <trkpt lat="45.00916" lon="4.55829">
        <ele>655</ele>
        <time>2015-12-11T08:38:29Z</time>
      </trkpt>
      <trkpt lat="45.00918" lon="4.55814">
        <ele>655</ele>
        <time>2015-12-11T08:38:33Z</time>
      </trkpt>
      <trkpt lat="45.00919" lon="4.55797">
        <ele>656</ele>
        <time>2015-12-11T08:38:37Z</time>
      </trkpt>
      <trkpt lat="45.00923" lon="4.55778">
        <ele>657</ele>
        <time>2015-12-11T08:38:42Z</time>
      </trkpt>
      <trkpt lat="45.00924" lon="4.55762">
        <ele>657</ele>
        <time>2015-12-11T08:38:46Z</time>
      </trkpt>
      <trkpt lat="45.00926" lon="4.55745">
        <ele>658</ele>
        <time>2015-12-11T08:38:50Z</time>
      </trkpt>
      <trkpt lat="45.00931" lon="4.55724">
        <ele>658</ele>
        <time>2015-12-11T08:38:55Z</time>
      </trkpt>
      <trkpt lat="45.00935" lon="4.55701">
        <ele>659</ele>
        <time>2015-12-11T08:39:00Z</time>
      </trkpt>
      <trkpt lat="45.00939" lon="4.55678">
        <ele>660</ele>
        <time>2015-12-11T08:39:05Z</time>
      </trkpt>
      <trkpt lat="45.00943" lon="4.55663">
        <ele>661</ele>
        <time>2015-12-11T08:39:09Z</time>
      </trkpt>
      <trkpt lat="45.00946" lon="4.55647">
        <ele>662</ele>
        <time>2015-12-11T08:39:13Z</time>
      </trkpt>
      <trkpt lat="45.00951" lon="4.55633">
        <ele>664</ele>
        <time>2015-12-11T08:39:17Z</time>
      </trkpt>
      <trkpt lat="45.00954" lon="4.55621">
        <ele>665</ele>
        <time>2015-12-11T08:39:21Z</time>
      </trkpt>
      <trkpt lat="45.00958" lon="4.55607">
        <ele>666</ele>
        <time>2015-12-11T08:39:25Z</time>
      </trkpt>
      <trkpt lat="45.00964" lon="4.55592">
        <ele>667</ele>
        <time>2015-12-11T08:39:29Z</time>
      </trkpt>
      <trkpt lat="45.00971" lon="4.55578">
        <ele>669</ele>
        <time>2015-12-11T08:39:34Z</time>
      </trkpt>
      <trkpt lat="45.00976" lon="4.55571">
        <ele>670</ele>
        <time>2015-12-11T08:39:37Z</time>
      </trkpt>
      <trkpt lat="45.00983" lon="4.5556">
        <ele>669</ele>
        <time>2015-12-11T08:39:41Z</time>
      </trkpt>
      <trkpt lat="45.00989" lon="4.5555">
        <ele>670</ele>
        <time>2015-12-11T08:39:45Z</time>
      </trkpt>
      <trkpt lat="45.00992" lon="4.55533">
        <ele>671</ele>
        <time>2015-12-11T08:39:50Z</time>
      </trkpt>
      <trkpt lat="45.00987" lon="4.5554">
        <ele>672</ele>
        <time>2015-12-11T08:39:55Z</time>
      </trkpt>
      <trkpt lat="45.00978" lon="4.55559">
        <ele>671</ele>
        <time>2015-12-11T08:40:00Z</time>
      </trkpt>
      <trkpt lat="45.00963" lon="4.55587">
        <ele>670</ele>
        <time>2015-12-11T08:40:05Z</time>
      </trkpt>
      <trkpt lat="45.00954" lon="4.55611">
        <ele>670</ele>
        <time>2015-12-11T08:40:08Z</time>
      </trkpt>
      <trkpt lat="45.00944" lon="4.55646">
        <ele>669</ele>
        <time>2015-12-11T08:40:12Z</time>
      </trkpt>
      <trkpt lat="45.0093" lon="4.55693">
        <ele>668</ele>
        <time>2015-12-11T08:40:17Z</time>
      </trkpt>
      <trkpt lat="45.00921" lon="4.55735">
        <ele>667</ele>
        <time>2015-12-11T08:40:21Z</time>
      </trkpt>
      <trkpt lat="45.00916" lon="4.55781">
        <ele>665</ele>
        <time>2015-12-11T08:40:25Z</time>
      </trkpt>
      <trkpt lat="45.00912" lon="4.55827">
        <ele>663</ele>
        <time>2015-12-11T08:40:29Z</time>
      </trkpt>
      <trkpt lat="45.00904" lon="4.55871">
        <ele>662</ele>
        <time>2015-12-11T08:40:33Z</time>
      </trkpt>
      <trkpt lat="45.00884" lon="4.55911">
        <ele>661</ele>
        <time>2015-12-11T08:40:37Z</time>
      </trkpt>
      <trkpt lat="45.00866" lon="4.55952">
        <ele>659</ele>
        <time>2015-12-11T08:40:41Z</time>
      </trkpt>
      <trkpt lat="45.00866" lon="4.56">
        <ele>656</ele>
        <time>2015-12-11T08:40:46Z</time>
      </trkpt>
      <trkpt lat="45.0087" lon="4.5602">
        <ele>656</ele>
        <time>2015-12-11T08:40:49Z</time>
      </trkpt>
      <trkpt lat="45.00873" lon="4.56038">
        <ele>654</ele>
        <time>2015-12-11T08:40:54Z</time>
      </trkpt>
      <trkpt lat="45.00877" lon="4.5605">
        <ele>653</ele>
        <time>2015-12-11T08:40:58Z</time>
      </trkpt>
      <trkpt lat="45.00878" lon="4.56058">
        <ele>652</ele>
        <time>2015-12-11T08:41:01Z</time>
      </trkpt>
      <trkpt lat="45.00886" lon="4.56072">
        <ele>651</ele>
        <time>2015-12-11T08:41:06Z</time>
      </trkpt>
      <trkpt lat="45.00891" lon="4.56082">
        <ele>651</ele>
        <time>2015-12-11T08:41:09Z</time>
      </trkpt>
      <trkpt lat="45.00896" lon="4.56094">
        <ele>651</ele>
        <time>2015-12-11T08:41:13Z</time>
      </trkpt>
      <trkpt lat="45.009" lon="4.56109">
        <ele>650</ele>
        <time>2015-12-11T08:41:17Z</time>
      </trkpt>
      <trkpt lat="45.00906" lon="4.56124">
        <ele>649</ele>
        <time>2015-12-11T08:41:22Z</time>
      </trkpt>
      <trkpt lat="45.0091" lon="4.56132">
        <ele>649</ele>
        <time>2015-12-11T08:41:26Z</time>
      </trkpt>
      <trkpt lat="45.00917" lon="4.56144">
        <ele>648</ele>
        <time>2015-12-11T08:41:31Z</time>
      </trkpt>
      <trkpt lat="45.00923" lon="4.56157">
        <ele>648</ele>
        <time>2015-12-11T08:41:36Z</time>
      </trkpt>
      <trkpt lat="45.00927" lon="4.56169">
        <ele>648</ele>
        <time>2015-12-11T08:41:40Z</time>
      </trkpt>
      <trkpt lat="45.00933" lon="4.56185">
        <ele>648</ele>
        <time>2015-12-11T08:41:45Z</time>
      </trkpt>
      <trkpt lat="45.00935" lon="4.562">
        <ele>647</ele>
        <time>2015-12-11T08:41:49Z</time>
      </trkpt>
      <trkpt lat="45.00937" lon="4.56214">
        <ele>647</ele>
        <time>2015-12-11T08:41:53Z</time>
      </trkpt>
      <trkpt lat="45.00941" lon="4.56235">
        <ele>650</ele>
        <time>2015-12-11T08:41:58Z</time>
      </trkpt>
      <trkpt lat="45.00945" lon="4.56248">
        <ele>652</ele>
        <time>2015-12-11T08:42:02Z</time>
      </trkpt>
      <trkpt lat="45.00951" lon="4.56261">
        <ele>653</ele>
        <time>2015-12-11T08:42:06Z</time>
      </trkpt>
      <trkpt lat="45.00954" lon="4.56275">
        <ele>654</ele>
        <time>2015-12-11T08:42:10Z</time>
      </trkpt>
      <trkpt lat="45.00957" lon="4.56289">
        <ele>655</ele>
        <time>2015-12-11T08:42:14Z</time>
      </trkpt>
      <trkpt lat="45.00964" lon="4.56298">
        <ele>658</ele>
        <time>2015-12-11T08:42:19Z</time>
      </trkpt>
      <trkpt lat="45.00972" lon="4.563">
        <ele>661</ele>
        <time>2015-12-11T08:42:25Z</time>
      </trkpt>
      <trkpt lat="45.00973" lon="4.5629">
        <ele>663</ele>
        <time>2015-12-11T08:42:30Z</time>
      </trkpt>
      <trkpt lat="45.00976" lon="4.56278">
        <ele>665</ele>
        <time>2015-12-11T08:42:35Z</time>
      </trkpt>
      <trkpt lat="45.00977" lon="4.56262">
        <ele>667</ele>
        <time>2015-12-11T08:42:40Z</time>
      </trkpt>
      <trkpt lat="45.00978" lon="4.56251">
        <ele>668</ele>
        <time>2015-12-11T08:42:43Z</time>
      </trkpt>
      <trkpt lat="45.0098" lon="4.56238">
        <ele>668</ele>
        <time>2015-12-11T08:42:47Z</time>
      </trkpt>
      <trkpt lat="45.00982" lon="4.56226">
        <ele>668</ele>
        <time>2015-12-11T08:42:52Z</time>
      </trkpt>
      <trkpt lat="45.00982" lon="4.56214">
        <ele>671</ele>
        <time>2015-12-11T08:42:58Z</time>
      </trkpt>
      <trkpt lat="45.00983" lon="4.56202">
        <ele>672</ele>
        <time>2015-12-11T08:43:05Z</time>
      </trkpt>
      <trkpt lat="45.00985" lon="4.56192">
        <ele>674</ele>
        <time>2015-12-11T08:43:13Z</time>
      </trkpt>
      <trkpt lat="45.00989" lon="4.56184">
        <ele>675</ele>
        <time>2015-12-11T08:43:20Z</time>
      </trkpt>
      <trkpt lat="45.00995" lon="4.56175">
        <ele>676</ele>
        <time>2015-12-11T08:43:29Z</time>
      </trkpt>
      <trkpt lat="45.01001" lon="4.56167">
        <ele>677</ele>
        <time>2015-12-11T08:43:37Z</time>
      </trkpt>
      <trkpt lat="45.01003" lon="4.56156">
        <ele>678</ele>
        <time>2015-12-11T08:43:45Z</time>
      </trkpt>
      <trkpt lat="45.01008" lon="4.56148">
        <ele>679</ele>
        <time>2015-12-11T08:43:52Z</time>
      </trkpt>
      <trkpt lat="45.01011" lon="4.56138">
        <ele>680</ele>
        <time>2015-12-11T08:44:00Z</time>
      </trkpt>
      <trkpt lat="45.01013" lon="4.56128">
        <ele>681</ele>
        <time>2015-12-11T08:44:07Z</time>
      </trkpt>
      <trkpt lat="45.01018" lon="4.56118">
        <ele>683</ele>
        <time>2015-12-11T08:44:14Z</time>
      </trkpt>
      <trkpt lat="45.01021" lon="4.56108">
        <ele>684</ele>
        <time>2015-12-11T08:44:20Z</time>
      </trkpt>
      <trkpt lat="45.01027" lon="4.56099">
        <ele>685</ele>
        <time>2015-12-11T08:44:27Z</time>
      </trkpt>
      <trkpt lat="45.01031" lon="4.56088">
        <ele>687</ele>
        <time>2015-12-11T08:44:35Z</time>
      </trkpt>
      <trkpt lat="45.01034" lon="4.56078">
        <ele>688</ele>
        <time>2015-12-11T08:44:41Z</time>
      </trkpt>
      <trkpt lat="45.01037" lon="4.56069">
        <ele>689</ele>
        <time>2015-12-11T08:44:46Z</time>
      </trkpt>
      <trkpt lat="45.01039" lon="4.5606">
        <ele>689</ele>
        <time>2015-12-11T08:44:51Z</time>
      </trkpt>
      <trkpt lat="45.01043" lon="4.56051">
        <ele>690</ele>
        <time>2015-12-11T08:44:57Z</time>
      </trkpt>
      <trkpt lat="45.01044" lon="4.5604">
        <ele>690</ele>
        <time>2015-12-11T08:45:05Z</time>
      </trkpt>
      <trkpt lat="45.01045" lon="4.56028">
        <ele>692</ele>
        <time>2015-12-11T08:45:13Z</time>
      </trkpt>
      <trkpt lat="45.01044" lon="4.56017">
        <ele>693</ele>
        <time>2015-12-11T08:45:20Z</time>
      </trkpt>
      <trkpt lat="45.01043" lon="4.56006">
        <ele>695</ele>
        <time>2015-12-11T08:45:27Z</time>
      </trkpt>
      <trkpt lat="45.01041" lon="4.55995">
        <ele>696</ele>
        <time>2015-12-11T08:45:34Z</time>
      </trkpt>
      <trkpt lat="45.01041" lon="4.55983">
        <ele>696</ele>
        <time>2015-12-11T08:45:40Z</time>
      </trkpt>
      <trkpt lat="45.01041" lon="4.55971">
        <ele>697</ele>
        <time>2015-12-11T08:45:46Z</time>
      </trkpt>
      <trkpt lat="45.0104" lon="4.5596">
        <ele>697</ele>
        <time>2015-12-11T08:45:52Z</time>
      </trkpt>
      <trkpt lat="45.01038" lon="4.55949">
        <ele>697</ele>
        <time>2015-12-11T08:45:58Z</time>
      </trkpt>
      <trkpt lat="45.01037" lon="4.55939">
        <ele>698</ele>
        <time>2015-12-11T08:46:04Z</time>
      </trkpt>
      <trkpt lat="45.01038" lon="4.55927">
        <ele>697</ele>
        <time>2015-12-11T08:46:12Z</time>
      </trkpt>
      <trkpt lat="45.01039" lon="4.55915">
        <ele>697</ele>
        <time>2015-12-11T08:46:19Z</time>
      </trkpt>
      <trkpt lat="45.0104" lon="4.55904">
        <ele>697</ele>
        <time>2015-12-11T08:46:27Z</time>
      </trkpt>
      <trkpt lat="45.01037" lon="4.55892">
        <ele>697</ele>
        <time>2015-12-11T08:46:40Z</time>
      </trkpt>
      <trkpt lat="45.01033" lon="4.55883">
        <ele>724</ele>
        <time>2015-12-11T08:46:55Z</time>
      </trkpt>
      <trkpt lat="45.0104" lon="4.55865">
        <ele>704</ele>
        <time>2015-12-11T08:47:00Z</time>
      </trkpt>
      <trkpt lat="45.01041" lon="4.55853">
        <ele>699</ele>
        <time>2015-12-11T08:47:08Z</time>
      </trkpt>
      <trkpt lat="45.01042" lon="4.55842">
        <ele>697</ele>
        <time>2015-12-11T08:47:17Z</time>
      </trkpt>
      <trkpt lat="45.01043" lon="4.55829">
        <ele>695</ele>
        <time>2015-12-11T08:47:37Z</time>
      </trkpt>
      <trkpt lat="45.01049" lon="4.5582">
        <ele>694</ele>
        <time>2015-12-11T08:47:51Z</time>
      </trkpt>
      <trkpt lat="45.01054" lon="4.55813">
        <ele>694</ele>
        <time>2015-12-11T08:48:00Z</time>
      </trkpt>
      <trkpt lat="45.01061" lon="4.55805">
        <ele>693</ele>
        <time>2015-12-11T08:48:11Z</time>
      </trkpt>
      <trkpt lat="45.01068" lon="4.55798">
        <ele>694</ele>
        <time>2015-12-11T08:48:22Z</time>
      </trkpt>
      <trkpt lat="45.01074" lon="4.55797">
        <ele>693</ele>
        <time>2015-12-11T08:48:27Z</time>
      </trkpt>
      <trkpt lat="45.01081" lon="4.55792">
        <ele>693</ele>
        <time>2015-12-11T08:48:32Z</time>
      </trkpt>
      <trkpt lat="45.01089" lon="4.55787">
        <ele>693</ele>
        <time>2015-12-11T08:48:40Z</time>
      </trkpt>
      <trkpt lat="45.01096" lon="4.55789">
        <ele>693</ele>
        <time>2015-12-11T08:48:43Z</time>
      </trkpt>
      <trkpt lat="45.01102" lon="4.55784">
        <ele>695</ele>
        <time>2015-12-11T08:48:51Z</time>
      </trkpt>
      <trkpt lat="45.01107" lon="4.55775">
        <ele>698</ele>
        <time>2015-12-11T08:48:59Z</time>
      </trkpt>
      <trkpt lat="45.01108" lon="4.55767">
        <ele>699</ele>
        <time>2015-12-11T08:49:03Z</time>
      </trkpt>
      <trkpt lat="45.01107" lon="4.55756">
        <ele>700</ele>
        <time>2015-12-11T08:49:07Z</time>
      </trkpt>
      <trkpt lat="45.01108" lon="4.55745">
        <ele>701</ele>
        <time>2015-12-11T08:49:13Z</time>
      </trkpt>
      <trkpt lat="45.0111" lon="4.55734">
        <ele>702</ele>
        <time>2015-12-11T08:49:19Z</time>
      </trkpt>
      <trkpt lat="45.01114" lon="4.55723">
        <ele>703</ele>
        <time>2015-12-11T08:49:25Z</time>
      </trkpt>
      <trkpt lat="45.01115" lon="4.55711">
        <ele>705</ele>
        <time>2015-12-11T08:49:35Z</time>
      </trkpt>
      <trkpt lat="45.01117" lon="4.557">
        <ele>707</ele>
        <time>2015-12-11T08:49:45Z</time>
      </trkpt>
      <trkpt lat="45.01117" lon="4.55691">
        <ele>708</ele>
        <time>2015-12-11T08:49:51Z</time>
      </trkpt>
      <trkpt lat="45.01119" lon="4.55681">
        <ele>709</ele>
        <time>2015-12-11T08:49:56Z</time>
      </trkpt>
      <trkpt lat="45.01121" lon="4.55669">
        <ele>711</ele>
        <time>2015-12-11T08:50:03Z</time>
      </trkpt>
      <trkpt lat="45.01123" lon="4.55657">
        <ele>713</ele>
        <time>2015-12-11T08:50:11Z</time>
      </trkpt>
      <trkpt lat="45.01121" lon="4.55647">
        <ele>714</ele>
        <time>2015-12-11T08:50:18Z</time>
      </trkpt>
      <trkpt lat="45.0112" lon="4.55637">
        <ele>716</ele>
        <time>2015-12-11T08:50:27Z</time>
      </trkpt>
      <trkpt lat="45.01117" lon="4.55628">
        <ele>718</ele>
        <time>2015-12-11T08:50:33Z</time>
      </trkpt>
      <trkpt lat="45.01116" lon="4.55616">
        <ele>721</ele>
        <time>2015-12-11T08:50:44Z</time>
      </trkpt>
      <trkpt lat="45.01116" lon="4.55605">
        <ele>721</ele>
        <time>2015-12-11T08:50:52Z</time>
      </trkpt>
      <trkpt lat="45.0112" lon="4.55594">
        <ele>722</ele>
        <time>2015-12-11T08:50:57Z</time>
      </trkpt>
      <trkpt lat="45.01126" lon="4.55584">
        <ele>722</ele>
        <time>2015-12-11T08:51:01Z</time>
      </trkpt>
      <trkpt lat="45.01134" lon="4.55572">
        <ele>723</ele>
        <time>2015-12-11T08:51:05Z</time>
      </trkpt>
      <trkpt lat="45.01143" lon="4.55562">
        <ele>723</ele>
        <time>2015-12-11T08:51:09Z</time>
      </trkpt>
      <trkpt lat="45.01153" lon="4.55543">
        <ele>723</ele>
        <time>2015-12-11T08:51:13Z</time>
      </trkpt>
      <trkpt lat="45.01166" lon="4.5552">
        <ele>722</ele>
        <time>2015-12-11T08:51:18Z</time>
      </trkpt>
      <trkpt lat="45.01173" lon="4.55507">
        <ele>721</ele>
        <time>2015-12-11T08:51:21Z</time>
      </trkpt>
      <trkpt lat="45.01181" lon="4.5548">
        <ele>719</ele>
        <time>2015-12-11T08:51:26Z</time>
      </trkpt>
      <trkpt lat="45.01189" lon="4.55448">
        <ele>717</ele>
        <time>2015-12-11T08:51:31Z</time>
      </trkpt>
      <trkpt lat="45.01193" lon="4.55421">
        <ele>715</ele>
        <time>2015-12-11T08:51:35Z</time>
      </trkpt>
      <trkpt lat="45.01202" lon="4.55385">
        <ele>714</ele>
        <time>2015-12-11T08:51:40Z</time>
      </trkpt>
      <trkpt lat="45.0121" lon="4.55364">
        <ele>713</ele>
        <time>2015-12-11T08:51:44Z</time>
      </trkpt>
      <trkpt lat="45.01221" lon="4.55334">
        <ele>712</ele>
        <time>2015-12-11T08:51:48Z</time>
      </trkpt>
      <trkpt lat="45.01227" lon="4.5531">
        <ele>709</ele>
        <time>2015-12-11T08:51:52Z</time>
      </trkpt>
      <trkpt lat="45.0123" lon="4.55294">
        <ele>708</ele>
        <time>2015-12-11T08:51:55Z</time>
      </trkpt>
      <trkpt lat="45.01232" lon="4.55276">
        <ele>706</ele>
        <time>2015-12-11T08:52:00Z</time>
      </trkpt>
      <trkpt lat="45.01236" lon="4.55262">
        <ele>706</ele>
        <time>2015-12-11T08:52:04Z</time>
      </trkpt>
      <trkpt lat="45.01243" lon="4.55246">
        <ele>705</ele>
        <time>2015-12-11T08:52:09Z</time>
      </trkpt>
      <trkpt lat="45.01249" lon="4.55233">
        <ele>704</ele>
        <time>2015-12-11T08:52:13Z</time>
      </trkpt>
      <trkpt lat="45.01253" lon="4.55218">
        <ele>702</ele>
        <time>2015-12-11T08:52:18Z</time>
      </trkpt>
      <trkpt lat="45.0126" lon="4.55192">
        <ele>702</ele>
        <time>2015-12-11T08:52:23Z</time>
      </trkpt>
      <trkpt lat="45.01265" lon="4.5518">
        <ele>701</ele>
        <time>2015-12-11T08:52:27Z</time>
      </trkpt>
      <trkpt lat="45.01271" lon="4.55166">
        <ele>699</ele>
        <time>2015-12-11T08:52:31Z</time>
      </trkpt>
      <trkpt lat="45.01275" lon="4.55153">
        <ele>698</ele>
        <time>2015-12-11T08:52:35Z</time>
      </trkpt>
      <trkpt lat="45.01281" lon="4.55135">
        <ele>696</ele>
        <time>2015-12-11T08:52:40Z</time>
      </trkpt>
      <trkpt lat="45.01289" lon="4.55126">
        <ele>696</ele>
        <time>2015-12-11T08:52:44Z</time>
      </trkpt>
      <trkpt lat="45.01298" lon="4.55114">
        <ele>694</ele>
        <time>2015-12-11T08:52:48Z</time>
      </trkpt>
      <trkpt lat="45.01317" lon="4.55095">
        <ele>692</ele>
        <time>2015-12-11T08:52:53Z</time>
      </trkpt>
      <trkpt lat="45.01333" lon="4.55082">
        <ele>691</ele>
        <time>2015-12-11T08:52:57Z</time>
      </trkpt>
      <trkpt lat="45.01345" lon="4.55075">
        <ele>690</ele>
        <time>2015-12-11T08:53:02Z</time>
      </trkpt>
      <trkpt lat="45.01354" lon="4.55064">
        <ele>689</ele>
        <time>2015-12-11T08:53:07Z</time>
      </trkpt>
      <trkpt lat="45.01354" lon="4.55042">
        <ele>690</ele>
        <time>2015-12-11T08:53:12Z</time>
      </trkpt>
      <trkpt lat="45.0135" lon="4.55021">
        <ele>692</ele>
        <time>2015-12-11T08:53:16Z</time>
      </trkpt>
      <trkpt lat="45.01348" lon="4.5501">
        <ele>695</ele>
        <time>2015-12-11T08:53:22Z</time>
      </trkpt>
      <trkpt lat="45.01351" lon="4.55">
        <ele>696</ele>
        <time>2015-12-11T08:53:31Z</time>
      </trkpt>
      <trkpt lat="45.01357" lon="4.54991">
        <ele>697</ele>
        <time>2015-12-11T08:53:45Z</time>
      </trkpt>
      <trkpt lat="45.01364" lon="4.54984">
        <ele>698</ele>
        <time>2015-12-11T08:53:57Z</time>
      </trkpt>
      <trkpt lat="45.01372" lon="4.54979">
        <ele>698</ele>
        <time>2015-12-11T08:54:07Z</time>
      </trkpt>
      <trkpt lat="45.01379" lon="4.54972">
        <ele>699</ele>
        <time>2015-12-11T08:54:15Z</time>
      </trkpt>
      <trkpt lat="45.01384" lon="4.54964">
        <ele>700</ele>
        <time>2015-12-11T08:54:23Z</time>
      </trkpt>
      <trkpt lat="45.01392" lon="4.54957">
        <ele>700</ele>
        <time>2015-12-11T08:54:34Z</time>
      </trkpt>
      <trkpt lat="45.014" lon="4.54955">
        <ele>700</ele>
        <time>2015-12-11T08:54:42Z</time>
      </trkpt>
      <trkpt lat="45.01409" lon="4.54952">
        <ele>700</ele>
        <time>2015-12-11T08:54:52Z</time>
      </trkpt>
      <trkpt lat="45.01416" lon="4.54949">
        <ele>700</ele>
        <time>2015-12-11T08:54:59Z</time>
      </trkpt>
      <trkpt lat="45.01423" lon="4.54944">
        <ele>700</ele>
        <time>2015-12-11T08:55:08Z</time>
      </trkpt>
      <trkpt lat="45.01431" lon="4.54942">
        <ele>701</ele>
        <time>2015-12-11T08:55:19Z</time>
      </trkpt>
      <trkpt lat="45.01438" lon="4.54936">
        <ele>702</ele>
        <time>2015-12-11T08:55:28Z</time>
      </trkpt>
      <trkpt lat="45.01445" lon="4.54929">
        <ele>703</ele>
        <time>2015-12-11T08:55:40Z</time>
      </trkpt>
      <trkpt lat="45.01451" lon="4.54922">
        <ele>705</ele>
        <time>2015-12-11T08:55:51Z</time>
      </trkpt>
      <trkpt lat="45.01456" lon="4.54918">
        <ele>706</ele>
        <time>2015-12-11T08:55:59Z</time>
      </trkpt>
      <trkpt lat="45.01464" lon="4.54914">
        <ele>707</ele>
        <time>2015-12-11T08:56:06Z</time>
      </trkpt>
      <trkpt lat="45.01471" lon="4.5491">
        <ele>708</ele>
        <time>2015-12-11T08:56:11Z</time>
      </trkpt>
      <trkpt lat="45.01478" lon="4.54905">
        <ele>711</ele>
        <time>2015-12-11T08:56:19Z</time>
      </trkpt>
      <trkpt lat="45.01482" lon="4.54895">
        <ele>712</ele>
        <time>2015-12-11T08:56:28Z</time>
      </trkpt>
      <trkpt lat="45.01488" lon="4.54886">
        <ele>713</ele>
        <time>2015-12-11T08:56:36Z</time>
      </trkpt>
      <trkpt lat="45.01493" lon="4.54878">
        <ele>714</ele>
        <time>2015-12-11T08:56:45Z</time>
      </trkpt>
      <trkpt lat="45.015" lon="4.54873">
        <ele>716</ele>
        <time>2015-12-11T08:57:04Z</time>
      </trkpt>
      <trkpt lat="45.01506" lon="4.54867">
        <ele>718</ele>
        <time>2015-12-11T08:57:13Z</time>
      </trkpt>
      <trkpt lat="45.01512" lon="4.5486">
        <ele>720</ele>
        <time>2015-12-11T08:57:25Z</time>
      </trkpt>
      <trkpt lat="45.01515" lon="4.54852">
        <ele>721</ele>
        <time>2015-12-11T08:57:31Z</time>
      </trkpt>
      <trkpt lat="45.01522" lon="4.54846">
        <ele>722</ele>
        <time>2015-12-11T08:57:37Z</time>
      </trkpt>
      <trkpt lat="45.01529" lon="4.54839">
        <ele>724</ele>
        <time>2015-12-11T08:57:44Z</time>
      </trkpt>
      <trkpt lat="45.01535" lon="4.54831">
        <ele>725</ele>
        <time>2015-12-11T08:57:51Z</time>
      </trkpt>
      <trkpt lat="45.0154" lon="4.54823">
        <ele>726</ele>
        <time>2015-12-11T08:57:58Z</time>
      </trkpt>
      <trkpt lat="45.01544" lon="4.54814">
        <ele>728</ele>
        <time>2015-12-11T08:58:04Z</time>
      </trkpt>
      <trkpt lat="45.01547" lon="4.54803">
        <ele>729</ele>
        <time>2015-12-11T08:58:11Z</time>
      </trkpt>
      <trkpt lat="45.01553" lon="4.54794">
        <ele>731</ele>
        <time>2015-12-11T08:58:19Z</time>
      </trkpt>
      <trkpt lat="45.01557" lon="4.54784">
        <ele>732</ele>
        <time>2015-12-11T08:58:28Z</time>
      </trkpt>
      <trkpt lat="45.01559" lon="4.54772">
        <ele>735</ele>
        <time>2015-12-11T08:58:40Z</time>
      </trkpt>
      <trkpt lat="45.01561" lon="4.54761">
        <ele>737</ele>
        <time>2015-12-11T08:58:49Z</time>
      </trkpt>
      <trkpt lat="45.01563" lon="4.5475">
        <ele>738</ele>
        <time>2015-12-11T08:58:57Z</time>
      </trkpt>
      <trkpt lat="45.01565" lon="4.5474">
        <ele>740</ele>
        <time>2015-12-11T08:59:06Z</time>
      </trkpt>
      <trkpt lat="45.01567" lon="4.54729">
        <ele>742</ele>
        <time>2015-12-11T08:59:16Z</time>
      </trkpt>
      <trkpt lat="45.01569" lon="4.54717">
        <ele>744</ele>
        <time>2015-12-11T08:59:28Z</time>
      </trkpt>
      <trkpt lat="45.01572" lon="4.54707">
        <ele>745</ele>
        <time>2015-12-11T08:59:48Z</time>
      </trkpt>
      <trkpt lat="45.01575" lon="4.54696">
        <ele>746</ele>
        <time>2015-12-11T09:00:00Z</time>
      </trkpt>
      <trkpt lat="45.01577" lon="4.54684">
        <ele>747</ele>
        <time>2015-12-11T09:00:13Z</time>
      </trkpt>
      <trkpt lat="45.01579" lon="4.54673">
        <ele>748</ele>
        <time>2015-12-11T09:00:27Z</time>
      </trkpt>
      <trkpt lat="45.01582" lon="4.54661">
        <ele>750</ele>
        <time>2015-12-11T09:00:39Z</time>
      </trkpt>
      <trkpt lat="45.01584" lon="4.54649">
        <ele>751</ele>
        <time>2015-12-11T09:00:51Z</time>
      </trkpt>
      <trkpt lat="45.01587" lon="4.54638">
        <ele>753</ele>
        <time>2015-12-11T09:01:05Z</time>
      </trkpt>
      <trkpt lat="45.01592" lon="4.54629">
        <ele>754</ele>
        <time>2015-12-11T09:01:13Z</time>
      </trkpt>
      <trkpt lat="45.01598" lon="4.5462">
        <ele>755</ele>
        <time>2015-12-11T09:01:24Z</time>
      </trkpt>
      <trkpt lat="45.01602" lon="4.54609">
        <ele>756</ele>
        <time>2015-12-11T09:01:37Z</time>
      </trkpt>
      <trkpt lat="45.01606" lon="4.546">
        <ele>757</ele>
        <time>2015-12-11T09:01:46Z</time>
      </trkpt>
      <trkpt lat="45.01611" lon="4.5459">
        <ele>759</ele>
        <time>2015-12-11T09:02:02Z</time>
      </trkpt>
      <trkpt lat="45.01616" lon="4.5458">
        <ele>761</ele>
        <time>2015-12-11T09:02:18Z</time>
      </trkpt>
      <trkpt lat="45.0162" lon="4.5457">
        <ele>762</ele>
        <time>2015-12-11T09:02:31Z</time>
      </trkpt>
      <trkpt lat="45.01624" lon="4.54559">
        <ele>764</ele>
        <time>2015-12-11T09:02:41Z</time>
      </trkpt>
      <trkpt lat="45.01627" lon="4.54548">
        <ele>765</ele>
        <time>2015-12-11T09:02:51Z</time>
      </trkpt>
      <trkpt lat="45.01628" lon="4.54539">
        <ele>767</ele>
        <time>2015-12-11T09:02:58Z</time>
      </trkpt>
      <trkpt lat="45.01631" lon="4.54527">
        <ele>768</ele>
        <time>2015-12-11T09:03:05Z</time>
      </trkpt>
      <trkpt lat="45.01633" lon="4.54515">
        <ele>769</ele>
        <time>2015-12-11T09:03:15Z</time>
      </trkpt>
      <trkpt lat="45.01635" lon="4.54503">
        <ele>771</ele>
        <time>2015-12-11T09:03:27Z</time>
      </trkpt>
      <trkpt lat="45.01638" lon="4.54492">
        <ele>774</ele>
        <time>2015-12-11T09:03:43Z</time>
      </trkpt>
      <trkpt lat="45.01641" lon="4.54481">
        <ele>776</ele>
        <time>2015-12-11T09:03:53Z</time>
      </trkpt>
      <trkpt lat="45.01648" lon="4.54473">
        <ele>777</ele>
        <time>2015-12-11T09:04:02Z</time>
      </trkpt>
      <trkpt lat="45.01653" lon="4.54462">
        <ele>779</ele>
        <time>2015-12-11T09:04:12Z</time>
      </trkpt>
      <trkpt lat="45.01657" lon="4.54451">
        <ele>780</ele>
        <time>2015-12-11T09:04:21Z</time>
      </trkpt>
      <trkpt lat="45.01659" lon="4.5444">
        <ele>781</ele>
        <time>2015-12-11T09:04:30Z</time>
      </trkpt>
      <trkpt lat="45.01659" lon="4.54429">
        <ele>782</ele>
        <time>2015-12-11T09:04:37Z</time>
      </trkpt>
      <trkpt lat="45.01659" lon="4.54417">
        <ele>784</ele>
        <time>2015-12-11T09:04:46Z</time>
      </trkpt>
      <trkpt lat="45.01659" lon="4.54407">
        <ele>786</ele>
        <time>2015-12-11T09:04:55Z</time>
      </trkpt>
      <trkpt lat="45.01657" lon="4.54395">
        <ele>789</ele>
        <time>2015-12-11T09:05:10Z</time>
      </trkpt>
      <trkpt lat="45.01665" lon="4.54393">
        <ele>793</ele>
        <time>2015-12-11T09:05:31Z</time>
      </trkpt>
      <trkpt lat="45.01669" lon="4.54401">
        <ele>794</ele>
        <time>2015-12-11T09:05:35Z</time>
      </trkpt>
      <trkpt lat="45.01672" lon="4.5441">
        <ele>794</ele>
        <time>2015-12-11T09:05:38Z</time>
      </trkpt>
      <trkpt lat="45.01675" lon="4.54424">
        <ele>795</ele>
        <time>2015-12-11T09:05:42Z</time>
      </trkpt>
      <trkpt lat="45.01678" lon="4.54435">
        <ele>796</ele>
        <time>2015-12-11T09:05:46Z</time>
      </trkpt>
      <trkpt lat="45.01679" lon="4.54444">
        <ele>796</ele>
        <time>2015-12-11T09:05:49Z</time>
      </trkpt>
      <trkpt lat="45.01678" lon="4.54457">
        <ele>797</ele>
        <time>2015-12-11T09:05:54Z</time>
      </trkpt>
      <trkpt lat="45.01678" lon="4.54464">
        <ele>798</ele>
        <time>2015-12-11T09:05:57Z</time>
      </trkpt>
      <trkpt lat="45.01679" lon="4.54479">
        <ele>798</ele>
        <time>2015-12-11T09:06:01Z</time>
      </trkpt>
      <trkpt lat="45.0168" lon="4.54491">
        <ele>799</ele>
        <time>2015-12-11T09:06:05Z</time>
      </trkpt>
      <trkpt lat="45.01682" lon="4.54501">
        <ele>799</ele>
        <time>2015-12-11T09:06:09Z</time>
      </trkpt>
      <trkpt lat="45.01682" lon="4.54512">
        <ele>800</ele>
        <time>2015-12-11T09:06:13Z</time>
      </trkpt>
      <trkpt lat="45.01682" lon="4.54524">
        <ele>802</ele>
        <time>2015-12-11T09:06:19Z</time>
      </trkpt>
      <trkpt lat="45.01691" lon="4.54524">
        <ele>805</ele>
        <time>2015-12-11T09:06:56Z</time>
      </trkpt>
      <trkpt lat="45.01689" lon="4.5453">
        <ele>805</ele>
        <time>2015-12-11T09:07:05Z</time>
      </trkpt>
      <trkpt lat="45.0169" lon="4.54547">
        <ele>805</ele>
        <time>2015-12-11T09:07:09Z</time>
      </trkpt>
      <trkpt lat="45.01691" lon="4.54558">
        <ele>805</ele>
        <time>2015-12-11T09:07:13Z</time>
      </trkpt>
      <trkpt lat="45.01692" lon="4.54571">
        <ele>805</ele>
        <time>2015-12-11T09:07:17Z</time>
      </trkpt>
      <trkpt lat="45.01694" lon="4.54583">
        <ele>805</ele>
        <time>2015-12-11T09:07:21Z</time>
      </trkpt>
      <trkpt lat="45.01695" lon="4.54596">
        <ele>805</ele>
        <time>2015-12-11T09:07:25Z</time>
      </trkpt>
      <trkpt lat="45.01698" lon="4.54606">
        <ele>805</ele>
        <time>2015-12-11T09:07:29Z</time>
      </trkpt>
      <trkpt lat="45.01703" lon="4.54614">
        <ele>806</ele>
        <time>2015-12-11T09:07:33Z</time>
      </trkpt>
      <trkpt lat="45.01707" lon="4.54623">
        <ele>806</ele>
        <time>2015-12-11T09:07:37Z</time>
      </trkpt>
      <trkpt lat="45.01714" lon="4.54626">
        <ele>805</ele>
        <time>2015-12-11T09:07:45Z</time>
      </trkpt>
      <trkpt lat="45.01719" lon="4.54636">
        <ele>805</ele>
        <time>2015-12-11T09:07:57Z</time>
      </trkpt>
      <trkpt lat="45.01727" lon="4.54639">
        <ele>806</ele>
        <time>2015-12-11T09:08:05Z</time>
      </trkpt>
      <trkpt lat="45.01733" lon="4.54639">
        <ele>807</ele>
        <time>2015-12-11T09:08:10Z</time>
      </trkpt>
      <trkpt lat="45.01741" lon="4.54636">
        <ele>807</ele>
        <time>2015-12-11T09:08:14Z</time>
      </trkpt>
      <trkpt lat="45.01748" lon="4.54636">
        <ele>809</ele>
        <time>2015-12-11T09:08:21Z</time>
      </trkpt>
      <trkpt lat="45.01756" lon="4.54636">
        <ele>809</ele>
        <time>2015-12-11T09:08:28Z</time>
      </trkpt>
      <trkpt lat="45.01763" lon="4.54636">
        <ele>812</ele>
        <time>2015-12-11T09:08:43Z</time>
      </trkpt>
      <trkpt lat="45.0177" lon="4.54637">
        <ele>812</ele>
        <time>2015-12-11T09:08:49Z</time>
      </trkpt>
      <trkpt lat="45.01778" lon="4.54638">
        <ele>812</ele>
        <time>2015-12-11T09:08:57Z</time>
      </trkpt>
      <trkpt lat="45.01785" lon="4.54638">
        <ele>813</ele>
        <time>2015-12-11T09:09:03Z</time>
      </trkpt>
      <trkpt lat="45.01793" lon="4.54639">
        <ele>814</ele>
        <time>2015-12-11T09:09:13Z</time>
      </trkpt>
      <trkpt lat="45.01801" lon="4.54637">
        <ele>816</ele>
        <time>2015-12-11T09:09:22Z</time>
      </trkpt>
      <trkpt lat="45.01808" lon="4.54637">
        <ele>816</ele>
        <time>2015-12-11T09:09:31Z</time>
      </trkpt>
      <trkpt lat="45.01816" lon="4.54636">
        <ele>818</ele>
        <time>2015-12-11T09:09:35Z</time>
      </trkpt>
      <trkpt lat="45.01822" lon="4.54638">
        <ele>820</ele>
        <time>2015-12-11T09:09:43Z</time>
      </trkpt>
      <trkpt lat="45.01831" lon="4.54638">
        <ele>822</ele>
        <time>2015-12-11T09:09:52Z</time>
      </trkpt>
      <trkpt lat="45.01837" lon="4.54642">
        <ele>826</ele>
        <time>2015-12-11T09:10:01Z</time>
      </trkpt>
      <trkpt lat="45.01844" lon="4.54644">
        <ele>826</ele>
        <time>2015-12-11T09:10:07Z</time>
      </trkpt>
      <trkpt lat="45.01851" lon="4.54649">
        <ele>827</ele>
        <time>2015-12-11T09:10:12Z</time>
      </trkpt>
      <trkpt lat="45.01857" lon="4.54653">
        <ele>827</ele>
        <time>2015-12-11T09:10:17Z</time>
      </trkpt>
      <trkpt lat="45.01865" lon="4.54658">
        <ele>828</ele>
        <time>2015-12-11T09:10:22Z</time>
      </trkpt>
      <trkpt lat="45.01873" lon="4.5466">
        <ele>829</ele>
        <time>2015-12-11T09:10:27Z</time>
      </trkpt>
      <trkpt lat="45.0188" lon="4.54663">
        <ele>830</ele>
        <time>2015-12-11T09:10:34Z</time>
      </trkpt>
      <trkpt lat="45.01888" lon="4.54664">
        <ele>831</ele>
        <time>2015-12-11T09:10:39Z</time>
      </trkpt>
      <trkpt lat="45.01896" lon="4.54665">
        <ele>832</ele>
        <time>2015-12-11T09:10:43Z</time>
      </trkpt>
      <trkpt lat="45.01901" lon="4.54667">
        <ele>833</ele>
        <time>2015-12-11T09:10:48Z</time>
      </trkpt>
      <trkpt lat="45.01906" lon="4.54673">
        <ele>833</ele>
        <time>2015-12-11T09:10:52Z</time>
      </trkpt>
      <trkpt lat="45.01912" lon="4.54678">
        <ele>835</ele>
        <time>2015-12-11T09:10:56Z</time>
      </trkpt>
      <trkpt lat="45.01919" lon="4.54686">
        <ele>836</ele>
        <time>2015-12-11T09:11:03Z</time>
      </trkpt>
      <trkpt lat="45.01925" lon="4.54696">
        <ele>838</ele>
        <time>2015-12-11T09:11:15Z</time>
      </trkpt>
      <trkpt lat="45.01931" lon="4.54701">
        <ele>839</ele>
        <time>2015-12-11T09:11:23Z</time>
      </trkpt>
      <trkpt lat="45.01938" lon="4.54706">
        <ele>840</ele>
        <time>2015-12-11T09:11:29Z</time>
      </trkpt>
      <trkpt lat="45.01941" lon="4.54716">
        <ele>840</ele>
        <time>2015-12-11T09:11:36Z</time>
      </trkpt>
      <trkpt lat="45.01946" lon="4.54727">
        <ele>841</ele>
        <time>2015-12-11T09:11:43Z</time>
      </trkpt>
      <trkpt lat="45.0195" lon="4.54736">
        <ele>842</ele>
        <time>2015-12-11T09:11:55Z</time>
      </trkpt>
      <trkpt lat="45.01956" lon="4.54745">
        <ele>843</ele>
        <time>2015-12-11T09:12:08Z</time>
      </trkpt>
      <trkpt lat="45.0196" lon="4.54756">
        <ele>846</ele>
        <time>2015-12-11T09:12:24Z</time>
      </trkpt>
      <trkpt lat="45.01964" lon="4.54767">
        <ele>846</ele>
        <time>2015-12-11T09:12:36Z</time>
      </trkpt>
      <trkpt lat="45.01968" lon="4.54778">
        <ele>847</ele>
        <time>2015-12-11T09:12:45Z</time>
      </trkpt>
      <trkpt lat="45.01975" lon="4.54785">
        <ele>847</ele>
        <time>2015-12-11T09:12:52Z</time>
      </trkpt>
      <trkpt lat="45.01979" lon="4.54794">
        <ele>847</ele>
        <time>2015-12-11T09:12:58Z</time>
      </trkpt>
      <trkpt lat="45.01982" lon="4.54805">
        <ele>849</ele>
        <time>2015-12-11T09:13:07Z</time>
      </trkpt>
      <trkpt lat="45.01991" lon="4.54804">
        <ele>851</ele>
        <time>2015-12-11T09:13:22Z</time>
      </trkpt>
      <trkpt lat="45.01996" lon="4.54797">
        <ele>851</ele>
        <time>2015-12-11T09:13:27Z</time>
      </trkpt>
      <trkpt lat="45.02001" lon="4.5479">
        <ele>851</ele>
        <time>2015-12-11T09:13:30Z</time>
      </trkpt>
      <trkpt lat="45.02006" lon="4.54784">
        <ele>852</ele>
        <time>2015-12-11T09:13:33Z</time>
      </trkpt>
      <trkpt lat="45.02013" lon="4.54778">
        <ele>852</ele>
        <time>2015-12-11T09:13:37Z</time>
      </trkpt>
      <trkpt lat="45.0202" lon="4.5477">
        <ele>852</ele>
        <time>2015-12-11T09:13:42Z</time>
      </trkpt>
      <trkpt lat="45.02027" lon="4.54764">
        <ele>853</ele>
        <time>2015-12-11T09:13:47Z</time>
      </trkpt>
      <trkpt lat="45.02034" lon="4.54757">
        <ele>853</ele>
        <time>2015-12-11T09:13:52Z</time>
      </trkpt>
      <trkpt lat="45.02038" lon="4.5475">
        <ele>854</ele>
        <time>2015-12-11T09:13:57Z</time>
      </trkpt>
      <trkpt lat="45.02043" lon="4.54744">
        <ele>854</ele>
        <time>2015-12-11T09:14:01Z</time>
      </trkpt>
      <trkpt lat="45.02049" lon="4.54739">
        <ele>854</ele>
        <time>2015-12-11T09:14:04Z</time>
      </trkpt>
      <trkpt lat="45.02056" lon="4.54735">
        <ele>854</ele>
        <time>2015-12-11T09:14:08Z</time>
      </trkpt>
      <trkpt lat="45.02063" lon="4.54727">
        <ele>855</ele>
        <time>2015-12-11T09:14:13Z</time>
      </trkpt>
      <trkpt lat="45.0207" lon="4.54721">
        <ele>855</ele>
        <time>2015-12-11T09:14:19Z</time>
      </trkpt>
      <trkpt lat="45.02078" lon="4.54714">
        <ele>855</ele>
        <time>2015-12-11T09:14:23Z</time>
      </trkpt>
      <trkpt lat="45.02083" lon="4.54711">
        <ele>855</ele>
        <time>2015-12-11T09:14:26Z</time>
      </trkpt>
      <trkpt lat="45.02089" lon="4.54704">
        <ele>856</ele>
        <time>2015-12-11T09:14:31Z</time>
      </trkpt>
      <trkpt lat="45.02094" lon="4.54695">
        <ele>856</ele>
        <time>2015-12-11T09:14:37Z</time>
      </trkpt>
      <trkpt lat="45.021" lon="4.54689">
        <ele>856</ele>
        <time>2015-12-11T09:14:42Z</time>
      </trkpt>
      <trkpt lat="45.02105" lon="4.54682">
        <ele>857</ele>
        <time>2015-12-11T09:14:45Z</time>
      </trkpt>
      <trkpt lat="45.02112" lon="4.54674">
        <ele>857</ele>
        <time>2015-12-11T09:14:49Z</time>
      </trkpt>
      <trkpt lat="45.0212" lon="4.54665">
        <ele>857</ele>
        <time>2015-12-11T09:14:53Z</time>
      </trkpt>
      <trkpt lat="45.02126" lon="4.54657">
        <ele>857</ele>
        <time>2015-12-11T09:14:57Z</time>
      </trkpt>
      <trkpt lat="45.02133" lon="4.5465">
        <ele>857</ele>
        <time>2015-12-11T09:15:01Z</time>
      </trkpt>
      <trkpt lat="45.0214" lon="4.54641">
        <ele>857</ele>
        <time>2015-12-11T09:15:05Z</time>
      </trkpt>
      <trkpt lat="45.02149" lon="4.54631">
        <ele>857</ele>
        <time>2015-12-11T09:15:09Z</time>
      </trkpt>
      <trkpt lat="45.02156" lon="4.5462">
        <ele>858</ele>
        <time>2015-12-11T09:15:13Z</time>
      </trkpt>
      <trkpt lat="45.02162" lon="4.54611">
        <ele>858</ele>
        <time>2015-12-11T09:15:16Z</time>
      </trkpt>
      <trkpt lat="45.02171" lon="4.546">
        <ele>859</ele>
        <time>2015-12-11T09:15:20Z</time>
      </trkpt>
      <trkpt lat="45.02175" lon="4.5459">
        <ele>860</ele>
        <time>2015-12-11T09:15:23Z</time>
      </trkpt>
      <trkpt lat="45.02179" lon="4.54575">
        <ele>862</ele>
        <time>2015-12-11T09:15:27Z</time>
      </trkpt>
      <trkpt lat="45.02183" lon="4.5456">
        <ele>863</ele>
        <time>2015-12-11T09:15:31Z</time>
      </trkpt>
      <trkpt lat="45.02189" lon="4.5455">
        <ele>864</ele>
        <time>2015-12-11T09:15:35Z</time>
      </trkpt>
      <trkpt lat="45.02194" lon="4.54543">
        <ele>865</ele>
        <time>2015-12-11T09:15:38Z</time>
      </trkpt>
      <trkpt lat="45.02203" lon="4.54532">
        <ele>865</ele>
        <time>2015-12-11T09:15:42Z</time>
      </trkpt>
      <trkpt lat="45.0221" lon="4.54522">
        <ele>866</ele>
        <time>2015-12-11T09:15:46Z</time>
      </trkpt>
      <trkpt lat="45.02215" lon="4.54511">
        <ele>867</ele>
        <time>2015-12-11T09:15:50Z</time>
      </trkpt>
      <trkpt lat="45.02218" lon="4.545">
        <ele>867</ele>
        <time>2015-12-11T09:15:54Z</time>
      </trkpt>
      <trkpt lat="45.02222" lon="4.54491">
        <ele>868</ele>
        <time>2015-12-11T09:15:58Z</time>
      </trkpt>
      <trkpt lat="45.02227" lon="4.54483">
        <ele>867</ele>
        <time>2015-12-11T09:16:01Z</time>
      </trkpt>
      <trkpt lat="45.02236" lon="4.54468">
        <ele>866</ele>
        <time>2015-12-11T09:16:06Z</time>
      </trkpt>
      <trkpt lat="45.02246" lon="4.54454">
        <ele>866</ele>
        <time>2015-12-11T09:16:11Z</time>
      </trkpt>
      <trkpt lat="45.0225" lon="4.54446">
        <ele>865</ele>
        <time>2015-12-11T09:16:14Z</time>
      </trkpt>
      <trkpt lat="45.02257" lon="4.54438">
        <ele>866</ele>
        <time>2015-12-11T09:16:18Z</time>
      </trkpt>
      <trkpt lat="45.02268" lon="4.54433">
        <ele>867</ele>
        <time>2015-12-11T09:16:23Z</time>
      </trkpt>
      <trkpt lat="45.02277" lon="4.54429">
        <ele>868</ele>
        <time>2015-12-11T09:16:27Z</time>
      </trkpt>
      <trkpt lat="45.02288" lon="4.54422">
        <ele>868</ele>
        <time>2015-12-11T09:16:31Z</time>
      </trkpt>
      <trkpt lat="45.02293" lon="4.54414">
        <ele>869</ele>
        <time>2015-12-11T09:16:36Z</time>
      </trkpt>
      <trkpt lat="45.02298" lon="4.54407">
        <ele>870</ele>
        <time>2015-12-11T09:16:40Z</time>
      </trkpt>
      <trkpt lat="45.02302" lon="4.54399">
        <ele>870</ele>
        <time>2015-12-11T09:16:44Z</time>
      </trkpt>
      <trkpt lat="45.02309" lon="4.54388">
        <ele>871</ele>
        <time>2015-12-11T09:16:49Z</time>
      </trkpt>
      <trkpt lat="45.02314" lon="4.54378">
        <ele>871</ele>
        <time>2015-12-11T09:16:53Z</time>
      </trkpt>
      <trkpt lat="45.02318" lon="4.54369">
        <ele>871</ele>
        <time>2015-12-11T09:16:57Z</time>
      </trkpt>
      <trkpt lat="45.02323" lon="4.5436">
        <ele>871</ele>
        <time>2015-12-11T09:17:01Z</time>
      </trkpt>
      <trkpt lat="45.02329" lon="4.54351">
        <ele>871</ele>
        <time>2015-12-11T09:17:05Z</time>
      </trkpt>
      <trkpt lat="45.02336" lon="4.54343">
        <ele>871</ele>
        <time>2015-12-11T09:17:09Z</time>
      </trkpt>
      <trkpt lat="45.02346" lon="4.54337">
        <ele>872</ele>
        <time>2015-12-11T09:17:13Z</time>
      </trkpt>
      <trkpt lat="45.02354" lon="4.54328">
        <ele>872</ele>
        <time>2015-12-11T09:17:18Z</time>
      </trkpt>
      <trkpt lat="45.02363" lon="4.54322">
        <ele>872</ele>
        <time>2015-12-11T09:17:22Z</time>
      </trkpt>
      <trkpt lat="45.02375" lon="4.54318">
        <ele>872</ele>
        <time>2015-12-11T09:17:26Z</time>
      </trkpt>
      <trkpt lat="45.02387" lon="4.54315">
        <ele>873</ele>
        <time>2015-12-11T09:17:31Z</time>
      </trkpt>
      <trkpt lat="45.02395" lon="4.54312">
        <ele>874</ele>
        <time>2015-12-11T09:17:35Z</time>
      </trkpt>
      <trkpt lat="45.02403" lon="4.54311">
        <ele>874</ele>
        <time>2015-12-11T09:17:39Z</time>
      </trkpt>
      <trkpt lat="45.02412" lon="4.54309">
        <ele>875</ele>
        <time>2015-12-11T09:17:43Z</time>
      </trkpt>
      <trkpt lat="45.0242" lon="4.54305">
        <ele>876</ele>
        <time>2015-12-11T09:17:47Z</time>
      </trkpt>
      <trkpt lat="45.02431" lon="4.54301">
        <ele>877</ele>
        <time>2015-12-11T09:17:52Z</time>
      </trkpt>
      <trkpt lat="45.02439" lon="4.54298">
        <ele>877</ele>
        <time>2015-12-11T09:17:55Z</time>
      </trkpt>
      <trkpt lat="45.02448" lon="4.54294">
        <ele>878</ele>
        <time>2015-12-11T09:17:59Z</time>
      </trkpt>
      <trkpt lat="45.02455" lon="4.54292">
        <ele>879</ele>
        <time>2015-12-11T09:18:02Z</time>
      </trkpt>
      <trkpt lat="45.02464" lon="4.54291">
        <ele>881</ele>
        <time>2015-12-11T09:18:06Z</time>
      </trkpt>
      <trkpt lat="45.02481" lon="4.54286">
        <ele>880</ele>
        <time>2015-12-11T09:18:11Z</time>
      </trkpt>
      <trkpt lat="45.02494" lon="4.54281">
        <ele>880</ele>
        <time>2015-12-11T09:18:15Z</time>
      </trkpt>
      <trkpt lat="45.02506" lon="4.54275">
        <ele>879</ele>
        <time>2015-12-11T09:18:19Z</time>
      </trkpt>
      <trkpt lat="45.02515" lon="4.54272">
        <ele>879</ele>
        <time>2015-12-11T09:18:22Z</time>
      </trkpt>
      <trkpt lat="45.02534" lon="4.54268">
        <ele>878</ele>
        <time>2015-12-11T09:18:27Z</time>
      </trkpt>
      <trkpt lat="45.02543" lon="4.54268">
        <ele>878</ele>
        <time>2015-12-11T09:18:30Z</time>
      </trkpt>
      <trkpt lat="45.0256" lon="4.54265">
        <ele>878</ele>
        <time>2015-12-11T09:18:34Z</time>
      </trkpt>
      <trkpt lat="45.02572" lon="4.54263">
        <ele>877</ele>
        <time>2015-12-11T09:18:37Z</time>
      </trkpt>
      <trkpt lat="45.0259" lon="4.54262">
        <ele>876</ele>
        <time>2015-12-11T09:18:41Z</time>
      </trkpt>
      <trkpt lat="45.026" lon="4.54262">
        <ele>876</ele>
        <time>2015-12-11T09:18:44Z</time>
      </trkpt>
      <trkpt lat="45.02614" lon="4.54264">
        <ele>877</ele>
        <time>2015-12-11T09:18:48Z</time>
      </trkpt>
      <trkpt lat="45.02624" lon="4.54266">
        <ele>875</ele>
        <time>2015-12-11T09:18:51Z</time>
      </trkpt>
      <trkpt lat="45.0264" lon="4.54267">
        <ele>876</ele>
        <time>2015-12-11T09:18:55Z</time>
      </trkpt>
      <trkpt lat="45.0265" lon="4.54268">
        <ele>875</ele>
        <time>2015-12-11T09:18:58Z</time>
      </trkpt>
      <trkpt lat="45.02668" lon="4.54266">
        <ele>874</ele>
        <time>2015-12-11T09:19:03Z</time>
      </trkpt>
      <trkpt lat="45.02682" lon="4.54266">
        <ele>875</ele>
        <time>2015-12-11T09:19:07Z</time>
      </trkpt>
      <trkpt lat="45.02694" lon="4.54267">
        <ele>875</ele>
        <time>2015-12-11T09:19:11Z</time>
      </trkpt>
      <trkpt lat="45.02703" lon="4.54268">
        <ele>874</ele>
        <time>2015-12-11T09:19:15Z</time>
      </trkpt>
      <trkpt lat="45.02712" lon="4.5427">
        <ele>873</ele>
        <time>2015-12-11T09:19:19Z</time>
      </trkpt>
      <trkpt lat="45.02724" lon="4.54271">
        <ele>873</ele>
        <time>2015-12-11T09:19:23Z</time>
      </trkpt>
      <trkpt lat="45.02736" lon="4.54271">
        <ele>874</ele>
        <time>2015-12-11T09:19:27Z</time>
      </trkpt>
      <trkpt lat="45.02753" lon="4.54273">
        <ele>874</ele>
        <time>2015-12-11T09:19:32Z</time>
      </trkpt>
      <trkpt lat="45.02764" lon="4.54272">
        <ele>874</ele>
        <time>2015-12-11T09:19:35Z</time>
      </trkpt>
      <trkpt lat="45.0278" lon="4.54267">
        <ele>871</ele>
        <time>2015-12-11T09:19:39Z</time>
      </trkpt>
      <trkpt lat="45.02788" lon="4.54264">
        <ele>871</ele>
        <time>2015-12-11T09:19:42Z</time>
      </trkpt>
      <trkpt lat="45.02803" lon="4.54279">
        <ele>870</ele>
        <time>2015-12-11T09:19:46Z</time>
      </trkpt>
      <trkpt lat="45.02826" lon="4.54292">
        <ele>870</ele>
        <time>2015-12-11T09:19:51Z</time>
      </trkpt>
      <trkpt lat="45.0284" lon="4.54294">
        <ele>869</ele>
        <time>2015-12-11T09:19:55Z</time>
      </trkpt>
      <trkpt lat="45.02846" lon="4.54298">
        <ele>869</ele>
        <time>2015-12-11T09:19:58Z</time>
      </trkpt>
      <trkpt lat="45.02858" lon="4.54299">
        <ele>869</ele>
        <time>2015-12-11T09:20:02Z</time>
      </trkpt>
      <trkpt lat="45.02865" lon="4.54306">
        <ele>869</ele>
        <time>2015-12-11T09:20:06Z</time>
      </trkpt>
      <trkpt lat="45.02873" lon="4.54315">
        <ele>869</ele>
        <time>2015-12-11T09:20:10Z</time>
      </trkpt>
      <trkpt lat="45.02881" lon="4.54321">
        <ele>869</ele>
        <time>2015-12-11T09:20:14Z</time>
      </trkpt>
      <trkpt lat="45.02892" lon="4.5432">
        <ele>869</ele>
        <time>2015-12-11T09:20:18Z</time>
      </trkpt>
      <trkpt lat="45.02897" lon="4.54312">
        <ele>868</ele>
        <time>2015-12-11T09:20:22Z</time>
      </trkpt>
      <trkpt lat="45.02916" lon="4.54321">
        <ele>867</ele>
        <time>2015-12-11T09:20:27Z</time>
      </trkpt>
      <trkpt lat="45.02922" lon="4.54312">
        <ele>867</ele>
        <time>2015-12-11T09:20:31Z</time>
      </trkpt>
      <trkpt lat="45.02929" lon="4.54309">
        <ele>867</ele>
        <time>2015-12-11T09:20:35Z</time>
      </trkpt>
      <trkpt lat="45.02934" lon="4.54305">
        <ele>867</ele>
        <time>2015-12-11T09:20:38Z</time>
      </trkpt>
      <trkpt lat="45.02943" lon="4.543">
        <ele>868</ele>
        <time>2015-12-11T09:20:43Z</time>
      </trkpt>
      <trkpt lat="45.0295" lon="4.54299">
        <ele>869</ele>
        <time>2015-12-11T09:20:49Z</time>
      </trkpt>
      <trkpt lat="45.02958" lon="4.54302">
        <ele>871</ele>
        <time>2015-12-11T09:20:55Z</time>
      </trkpt>
      <trkpt lat="45.02965" lon="4.54305">
        <ele>871</ele>
        <time>2015-12-11T09:21:01Z</time>
      </trkpt>
      <trkpt lat="45.02973" lon="4.54309">
        <ele>872</ele>
        <time>2015-12-11T09:21:09Z</time>
      </trkpt>
      <trkpt lat="45.02982" lon="4.54312">
        <ele>872</ele>
        <time>2015-12-11T09:21:16Z</time>
      </trkpt>
      <trkpt lat="45.0299" lon="4.54314">
        <ele>872</ele>
        <time>2015-12-11T09:21:27Z</time>
      </trkpt>
      <trkpt lat="45.02996" lon="4.5431">
        <ele>873</ele>
        <time>2015-12-11T09:21:35Z</time>
      </trkpt>
      <trkpt lat="45.03004" lon="4.54304">
        <ele>874</ele>
        <time>2015-12-11T09:21:43Z</time>
      </trkpt>
      <trkpt lat="45.03011" lon="4.54296">
        <ele>875</ele>
        <time>2015-12-11T09:21:50Z</time>
      </trkpt>
      <trkpt lat="45.03015" lon="4.54287">
        <ele>876</ele>
        <time>2015-12-11T09:21:57Z</time>
      </trkpt>
      <trkpt lat="45.03019" lon="4.54279">
        <ele>877</ele>
        <time>2015-12-11T09:22:03Z</time>
      </trkpt>
      <trkpt lat="45.03025" lon="4.5427">
        <ele>877</ele>
        <time>2015-12-11T09:22:09Z</time>
      </trkpt>
      <trkpt lat="45.03029" lon="4.5426">
        <ele>879</ele>
        <time>2015-12-11T09:22:16Z</time>
      </trkpt>
      <trkpt lat="45.03035" lon="4.54252">
        <ele>880</ele>
        <time>2015-12-11T09:22:23Z</time>
      </trkpt>
      <trkpt lat="45.0304" lon="4.54245">
        <ele>881</ele>
        <time>2015-12-11T09:22:28Z</time>
      </trkpt>
      <trkpt lat="45.03044" lon="4.54236">
        <ele>882</ele>
        <time>2015-12-11T09:22:33Z</time>
      </trkpt>
      <trkpt lat="45.03047" lon="4.54227">
        <ele>883</ele>
        <time>2015-12-11T09:22:39Z</time>
      </trkpt>
      <trkpt lat="45.03051" lon="4.54216">
        <ele>885</ele>
        <time>2015-12-11T09:22:46Z</time>
      </trkpt>
      <trkpt lat="45.03055" lon="4.54206">
        <ele>886</ele>
        <time>2015-12-11T09:22:53Z</time>
      </trkpt>
      <trkpt lat="45.0306" lon="4.54196">
        <ele>886</ele>
        <time>2015-12-11T09:23:03Z</time>
      </trkpt>
      <trkpt lat="45.03064" lon="4.54186">
        <ele>887</ele>
        <time>2015-12-11T09:23:07Z</time>
      </trkpt>
      <trkpt lat="45.0307" lon="4.5417">
        <ele>887</ele>
        <time>2015-12-11T09:23:10Z</time>
      </trkpt>
      <trkpt lat="45.03072" lon="4.54159">
        <ele>888</ele>
        <time>2015-12-11T09:23:16Z</time>
      </trkpt>
      <trkpt lat="45.03076" lon="4.54152">
        <ele>888</ele>
        <time>2015-12-11T09:23:20Z</time>
      </trkpt>
      <trkpt lat="45.03079" lon="4.54143">
        <ele>888</ele>
        <time>2015-12-11T09:23:24Z</time>
      </trkpt>
      <trkpt lat="45.03084" lon="4.54133">
        <ele>889</ele>
        <time>2015-12-11T09:23:28Z</time>
      </trkpt>
      <trkpt lat="45.0309" lon="4.54123">
        <ele>889</ele>
        <time>2015-12-11T09:23:33Z</time>
      </trkpt>
      <trkpt lat="45.03097" lon="4.54117">
        <ele>890</ele>
        <time>2015-12-11T09:23:37Z</time>
      </trkpt>
      <trkpt lat="45.03101" lon="4.5411">
        <ele>890</ele>
        <time>2015-12-11T09:23:41Z</time>
      </trkpt>
      <trkpt lat="45.03105" lon="4.54099">
        <ele>890</ele>
        <time>2015-12-11T09:23:47Z</time>
      </trkpt>
      <trkpt lat="45.03108" lon="4.5409">
        <ele>891</ele>
        <time>2015-12-11T09:23:52Z</time>
      </trkpt>
      <trkpt lat="45.03113" lon="4.54079">
        <ele>891</ele>
        <time>2015-12-11T09:23:59Z</time>
      </trkpt>
      <trkpt lat="45.03116" lon="4.5407">
        <ele>893</ele>
        <time>2015-12-11T09:24:07Z</time>
      </trkpt>
      <trkpt lat="45.0312" lon="4.54062">
        <ele>894</ele>
        <time>2015-12-11T09:24:14Z</time>
      </trkpt>
      <trkpt lat="45.03123" lon="4.54051">
        <ele>895</ele>
        <time>2015-12-11T09:24:21Z</time>
      </trkpt>
      <trkpt lat="45.03128" lon="4.54042">
        <ele>897</ele>
        <time>2015-12-11T09:24:26Z</time>
      </trkpt>
      <trkpt lat="45.03131" lon="4.54033">
        <ele>897</ele>
        <time>2015-12-11T09:24:34Z</time>
      </trkpt>
      <trkpt lat="45.03134" lon="4.54022">
        <ele>898</ele>
        <time>2015-12-11T09:24:43Z</time>
      </trkpt>
      <trkpt lat="45.0314" lon="4.54014">
        <ele>900</ele>
        <time>2015-12-11T09:24:50Z</time>
      </trkpt>
      <trkpt lat="45.03146" lon="4.54007">
        <ele>900</ele>
        <time>2015-12-11T09:24:57Z</time>
      </trkpt>
      <trkpt lat="45.03149" lon="4.53996">
        <ele>901</ele>
        <time>2015-12-11T09:25:05Z</time>
      </trkpt>
      <trkpt lat="45.03152" lon="4.53987">
        <ele>902</ele>
        <time>2015-12-11T09:25:11Z</time>
      </trkpt>
      <trkpt lat="45.03157" lon="4.53977">
        <ele>903</ele>
        <time>2015-12-11T09:25:19Z</time>
      </trkpt>
      <trkpt lat="45.03156" lon="4.53968">
        <ele>903</ele>
        <time>2015-12-11T09:25:22Z</time>
      </trkpt>
      <trkpt lat="45.03157" lon="4.53956">
        <ele>904</ele>
        <time>2015-12-11T09:25:27Z</time>
      </trkpt>
      <trkpt lat="45.0316" lon="4.53944">
        <ele>906</ele>
        <time>2015-12-11T09:25:34Z</time>
      </trkpt>
      <trkpt lat="45.03165" lon="4.53935">
        <ele>908</ele>
        <time>2015-12-11T09:25:41Z</time>
      </trkpt>
      <trkpt lat="45.03167" lon="4.53923">
        <ele>909</ele>
        <time>2015-12-11T09:25:49Z</time>
      </trkpt>
      <trkpt lat="45.03169" lon="4.53915">
        <ele>910</ele>
        <time>2015-12-11T09:25:52Z</time>
      </trkpt>
      <trkpt lat="45.03173" lon="4.53909">
        <ele>910</ele>
        <time>2015-12-11T09:25:55Z</time>
      </trkpt>
      <trkpt lat="45.0318" lon="4.53895">
        <ele>910</ele>
        <time>2015-12-11T09:25:59Z</time>
      </trkpt>
      <trkpt lat="45.03187" lon="4.5388">
        <ele>910</ele>
        <time>2015-12-11T09:26:03Z</time>
      </trkpt>
      <trkpt lat="45.03194" lon="4.53867">
        <ele>910</ele>
        <time>2015-12-11T09:26:07Z</time>
      </trkpt>
      <trkpt lat="45.03199" lon="4.53857">
        <ele>911</ele>
        <time>2015-12-11T09:26:10Z</time>
      </trkpt>
      <trkpt lat="45.03203" lon="4.53845">
        <ele>911</ele>
        <time>2015-12-11T09:26:13Z</time>
      </trkpt>
      <trkpt lat="45.0321" lon="4.53833">
        <ele>912</ele>
        <time>2015-12-11T09:26:17Z</time>
      </trkpt>
      <trkpt lat="45.03217" lon="4.53818">
        <ele>912</ele>
        <time>2015-12-11T09:26:21Z</time>
      </trkpt>
      <trkpt lat="45.03226" lon="4.53801">
        <ele>913</ele>
        <time>2015-12-11T09:26:26Z</time>
      </trkpt>
      <trkpt lat="45.03235" lon="4.53781">
        <ele>913</ele>
        <time>2015-12-11T09:26:31Z</time>
      </trkpt>
      <trkpt lat="45.03241" lon="4.53767">
        <ele>915</ele>
        <time>2015-12-11T09:26:35Z</time>
      </trkpt>
      <trkpt lat="45.03247" lon="4.53752">
        <ele>917</ele>
        <time>2015-12-11T09:26:39Z</time>
      </trkpt>
      <trkpt lat="45.03254" lon="4.53741">
        <ele>918</ele>
        <time>2015-12-11T09:26:43Z</time>
      </trkpt>
      <trkpt lat="45.03259" lon="4.53724">
        <ele>919</ele>
        <time>2015-12-11T09:26:47Z</time>
      </trkpt>
      <trkpt lat="45.03263" lon="4.53712">
        <ele>919</ele>
        <time>2015-12-11T09:26:50Z</time>
      </trkpt>
      <trkpt lat="45.03266" lon="4.537">
        <ele>919</ele>
        <time>2015-12-11T09:26:53Z</time>
      </trkpt>
      <trkpt lat="45.03267" lon="4.53685">
        <ele>919</ele>
        <time>2015-12-11T09:26:57Z</time>
      </trkpt>
      <trkpt lat="45.03274" lon="4.53669">
        <ele>920</ele>
        <time>2015-12-11T09:27:01Z</time>
      </trkpt>
      <trkpt lat="45.03279" lon="4.53657">
        <ele>921</ele>
        <time>2015-12-11T09:27:06Z</time>
      </trkpt>
      <trkpt lat="45.03283" lon="4.53648">
        <ele>921</ele>
        <time>2015-12-11T09:27:09Z</time>
      </trkpt>
      <trkpt lat="45.03289" lon="4.5364">
        <ele>922</ele>
        <time>2015-12-11T09:27:13Z</time>
      </trkpt>
      <trkpt lat="45.03294" lon="4.53632">
        <ele>923</ele>
        <time>2015-12-11T09:27:19Z</time>
      </trkpt>
      <trkpt lat="45.03299" lon="4.53625">
        <ele>922</ele>
        <time>2015-12-11T09:27:23Z</time>
      </trkpt>
      <trkpt lat="45.03302" lon="4.53616">
        <ele>922</ele>
        <time>2015-12-11T09:27:29Z</time>
      </trkpt>
      <trkpt lat="45.03305" lon="4.5361">
        <ele>922</ele>
        <time>2015-12-11T09:27:33Z</time>
      </trkpt>
      <trkpt lat="45.0331" lon="4.536">
        <ele>922</ele>
        <time>2015-12-11T09:27:37Z</time>
      </trkpt>
      <trkpt lat="45.03317" lon="4.53592">
        <ele>923</ele>
        <time>2015-12-11T09:27:42Z</time>
      </trkpt>
      <trkpt lat="45.03318" lon="4.53583">
        <ele>923</ele>
        <time>2015-12-11T09:27:45Z</time>
      </trkpt>
      <trkpt lat="45.03324" lon="4.53577">
        <ele>924</ele>
        <time>2015-12-11T09:27:49Z</time>
      </trkpt>
      <trkpt lat="45.03329" lon="4.53571">
        <ele>924</ele>
        <time>2015-12-11T09:27:53Z</time>
      </trkpt>
      <trkpt lat="45.03336" lon="4.53566">
        <ele>925</ele>
        <time>2015-12-11T09:27:57Z</time>
      </trkpt>
      <trkpt lat="45.03341" lon="4.5356">
        <ele>925</ele>
        <time>2015-12-11T09:28:02Z</time>
      </trkpt>
      <trkpt lat="45.03352" lon="4.53554">
        <ele>926</ele>
        <time>2015-12-11T09:28:07Z</time>
      </trkpt>
      <trkpt lat="45.03359" lon="4.53547">
        <ele>927</ele>
        <time>2015-12-11T09:28:11Z</time>
      </trkpt>
      <trkpt lat="45.03364" lon="4.53544">
        <ele>928</ele>
        <time>2015-12-11T09:28:15Z</time>
      </trkpt>
      <trkpt lat="45.03369" lon="4.5354">
        <ele>928</ele>
        <time>2015-12-11T09:28:18Z</time>
      </trkpt>
      <trkpt lat="45.03378" lon="4.53533">
        <ele>928</ele>
        <time>2015-12-11T09:28:22Z</time>
      </trkpt>
      <trkpt lat="45.03396" lon="4.53528">
        <ele>928</ele>
        <time>2015-12-11T09:28:27Z</time>
      </trkpt>
      <trkpt lat="45.03409" lon="4.53527">
        <ele>928</ele>
        <time>2015-12-11T09:28:31Z</time>
      </trkpt>
      <trkpt lat="45.03421" lon="4.5353">
        <ele>928</ele>
        <time>2015-12-11T09:28:35Z</time>
      </trkpt>
      <trkpt lat="45.03447" lon="4.53531">
        <ele>929</ele>
        <time>2015-12-11T09:28:40Z</time>
      </trkpt>
      <trkpt lat="45.03459" lon="4.5353">
        <ele>929</ele>
        <time>2015-12-11T09:28:43Z</time>
      </trkpt>
      <trkpt lat="45.03475" lon="4.53528">
        <ele>927</ele>
        <time>2015-12-11T09:28:47Z</time>
      </trkpt>
      <trkpt lat="45.03496" lon="4.53537">
        <ele>925</ele>
        <time>2015-12-11T09:28:51Z</time>
      </trkpt>
      <trkpt lat="45.03513" lon="4.53543">
        <ele>924</ele>
        <time>2015-12-11T09:28:55Z</time>
      </trkpt>
      <trkpt lat="45.03526" lon="4.53548">
        <ele>922</ele>
        <time>2015-12-11T09:28:59Z</time>
      </trkpt>
      <trkpt lat="45.03536" lon="4.53539">
        <ele>922</ele>
        <time>2015-12-11T09:29:04Z</time>
      </trkpt>
      <trkpt lat="45.03543" lon="4.5354">
        <ele>922</ele>
        <time>2015-12-11T09:29:07Z</time>
      </trkpt>
      <trkpt lat="45.03552" lon="4.53546">
        <ele>922</ele>
        <time>2015-12-11T09:29:10Z</time>
      </trkpt>
      <trkpt lat="45.03561" lon="4.53553">
        <ele>922</ele>
        <time>2015-12-11T09:29:13Z</time>
      </trkpt>
      <trkpt lat="45.0358" lon="4.53563">
        <ele>921</ele>
        <time>2015-12-11T09:29:18Z</time>
      </trkpt>
      <trkpt lat="45.036" lon="4.53569">
        <ele>921</ele>
        <time>2015-12-11T09:29:23Z</time>
      </trkpt>
      <trkpt lat="45.03613" lon="4.5357">
        <ele>921</ele>
        <time>2015-12-11T09:29:26Z</time>
      </trkpt>
      <trkpt lat="45.03634" lon="4.53573">
        <ele>921</ele>
        <time>2015-12-11T09:29:31Z</time>
      </trkpt>
      <trkpt lat="45.0365" lon="4.53577">
        <ele>920</ele>
        <time>2015-12-11T09:29:35Z</time>
      </trkpt>
      <trkpt lat="45.03667" lon="4.53581">
        <ele>920</ele>
        <time>2015-12-11T09:29:39Z</time>
      </trkpt>
      <trkpt lat="45.03679" lon="4.53585">
        <ele>920</ele>
        <time>2015-12-11T09:29:42Z</time>
      </trkpt>
      <trkpt lat="45.03694" lon="4.53594">
        <ele>922</ele>
        <time>2015-12-11T09:29:46Z</time>
      </trkpt>
      <trkpt lat="45.03706" lon="4.53606">
        <ele>923</ele>
        <time>2015-12-11T09:29:49Z</time>
      </trkpt>
      <trkpt lat="45.03722" lon="4.53631">
        <ele>923</ele>
        <time>2015-12-11T09:29:54Z</time>
      </trkpt>
      <trkpt lat="45.03736" lon="4.53653">
        <ele>923</ele>
        <time>2015-12-11T09:29:58Z</time>
      </trkpt>
      <trkpt lat="45.03755" lon="4.53682">
        <ele>921</ele>
        <time>2015-12-11T09:30:03Z</time>
      </trkpt>
      <trkpt lat="45.03773" lon="4.53697">
        <ele>920</ele>
        <time>2015-12-11T09:30:07Z</time>
      </trkpt>
      <trkpt lat="45.03795" lon="4.53699">
        <ele>919</ele>
        <time>2015-12-11T09:30:11Z</time>
      </trkpt>
      <trkpt lat="45.03823" lon="4.53699">
        <ele>918</ele>
        <time>2015-12-11T09:30:16Z</time>
      </trkpt>
      <trkpt lat="45.0384" lon="4.53693">
        <ele>917</ele>
        <time>2015-12-11T09:30:19Z</time>
      </trkpt>
      <trkpt lat="45.03866" lon="4.53672">
        <ele>915</ele>
        <time>2015-12-11T09:30:24Z</time>
      </trkpt>
      <trkpt lat="45.03881" lon="4.53648">
        <ele>915</ele>
        <time>2015-12-11T09:30:28Z</time>
      </trkpt>
      <trkpt lat="45.03898" lon="4.53625">
        <ele>915</ele>
        <time>2015-12-11T09:30:32Z</time>
      </trkpt>
      <trkpt lat="45.03911" lon="4.53599">
        <ele>915</ele>
        <time>2015-12-11T09:30:36Z</time>
      </trkpt>
      <trkpt lat="45.03918" lon="4.5358">
        <ele>915</ele>
        <time>2015-12-11T09:30:39Z</time>
      </trkpt>
      <trkpt lat="45.0393" lon="4.53556">
        <ele>915</ele>
        <time>2015-12-11T09:30:43Z</time>
      </trkpt>
      <trkpt lat="45.03948" lon="4.53531">
        <ele>913</ele>
        <time>2015-12-11T09:30:48Z</time>
      </trkpt>
      <trkpt lat="45.03966" lon="4.5351">
        <ele>913</ele>
        <time>2015-12-11T09:30:53Z</time>
      </trkpt>
      <trkpt lat="45.03979" lon="4.5349">
        <ele>913</ele>
        <time>2015-12-11T09:30:57Z</time>
      </trkpt>
      <trkpt lat="45.03993" lon="4.53462">
        <ele>913</ele>
        <time>2015-12-11T09:31:02Z</time>
      </trkpt>
      <trkpt lat="45.04003" lon="4.53432">
        <ele>913</ele>
        <time>2015-12-11T09:31:07Z</time>
      </trkpt>
      <trkpt lat="45.04007" lon="4.53407">
        <ele>912</ele>
        <time>2015-12-11T09:31:11Z</time>
      </trkpt>
      <trkpt lat="45.04009" lon="4.53378">
        <ele>911</ele>
        <time>2015-12-11T09:31:16Z</time>
      </trkpt>
      <trkpt lat="45.04007" lon="4.53353">
        <ele>911</ele>
        <time>2015-12-11T09:31:20Z</time>
      </trkpt>
      <trkpt lat="45.04004" lon="4.5332">
        <ele>911</ele>
        <time>2015-12-11T09:31:24Z</time>
      </trkpt>
      <trkpt lat="45.03994" lon="4.53284">
        <ele>911</ele>
        <time>2015-12-11T09:31:29Z</time>
      </trkpt>
      <trkpt lat="45.03985" lon="4.53255">
        <ele>911</ele>
        <time>2015-12-11T09:31:33Z</time>
      </trkpt>
      <trkpt lat="45.03979" lon="4.53233">
        <ele>911</ele>
        <time>2015-12-11T09:31:36Z</time>
      </trkpt>
      <trkpt lat="45.03975" lon="4.53203">
        <ele>910</ele>
        <time>2015-12-11T09:31:41Z</time>
      </trkpt>
      <trkpt lat="45.0397" lon="4.53176">
        <ele>910</ele>
        <time>2015-12-11T09:31:45Z</time>
      </trkpt>
      <trkpt lat="45.03961" lon="4.53144">
        <ele>909</ele>
        <time>2015-12-11T09:31:50Z</time>
      </trkpt>
      <trkpt lat="45.03956" lon="4.53121">
        <ele>909</ele>
        <time>2015-12-11T09:31:54Z</time>
      </trkpt>
      <trkpt lat="45.03952" lon="4.53101">
        <ele>909</ele>
        <time>2015-12-11T09:31:57Z</time>
      </trkpt>
      <trkpt lat="45.0395" lon="4.53074">
        <ele>908</ele>
        <time>2015-12-11T09:32:01Z</time>
      </trkpt>
      <trkpt lat="45.03949" lon="4.53055">
        <ele>908</ele>
        <time>2015-12-11T09:32:04Z</time>
      </trkpt>
      <trkpt lat="45.0395" lon="4.53035">
        <ele>908</ele>
        <time>2015-12-11T09:32:07Z</time>
      </trkpt>
      <trkpt lat="45.03951" lon="4.53005">
        <ele>907</ele>
        <time>2015-12-11T09:32:11Z</time>
      </trkpt>
      <trkpt lat="45.03956" lon="4.52968">
        <ele>906</ele>
        <time>2015-12-11T09:32:16Z</time>
      </trkpt>
      <trkpt lat="45.0396" lon="4.52933">
        <ele>905</ele>
        <time>2015-12-11T09:32:21Z</time>
      </trkpt>
      <trkpt lat="45.03964" lon="4.52904">
        <ele>905</ele>
        <time>2015-12-11T09:32:25Z</time>
      </trkpt>
      <trkpt lat="45.03965" lon="4.52873">
        <ele>905</ele>
        <time>2015-12-11T09:32:29Z</time>
      </trkpt>
      <trkpt lat="45.03967" lon="4.52842">
        <ele>905</ele>
        <time>2015-12-11T09:32:33Z</time>
      </trkpt>
      <trkpt lat="45.03966" lon="4.52811">
        <ele>906</ele>
        <time>2015-12-11T09:32:37Z</time>
      </trkpt>
      <trkpt lat="45.03966" lon="4.52779">
        <ele>907</ele>
        <time>2015-12-11T09:32:41Z</time>
      </trkpt>
      <trkpt lat="45.03966" lon="4.52752">
        <ele>908</ele>
        <time>2015-12-11T09:32:45Z</time>
      </trkpt>
      <trkpt lat="45.03968" lon="4.52722">
        <ele>908</ele>
        <time>2015-12-11T09:32:49Z</time>
      </trkpt>
      <trkpt lat="45.03974" lon="4.52689">
        <ele>909</ele>
        <time>2015-12-11T09:32:54Z</time>
      </trkpt>
      <trkpt lat="45.03979" lon="4.52669">
        <ele>909</ele>
        <time>2015-12-11T09:32:57Z</time>
      </trkpt>
      <trkpt lat="45.03982" lon="4.52638">
        <ele>908</ele>
        <time>2015-12-11T09:33:01Z</time>
      </trkpt>
      <trkpt lat="45.03984" lon="4.5261">
        <ele>908</ele>
        <time>2015-12-11T09:33:06Z</time>
      </trkpt>
      <trkpt lat="45.03983" lon="4.52574">
        <ele>908</ele>
        <time>2015-12-11T09:33:10Z</time>
      </trkpt>
      <trkpt lat="45.03982" lon="4.52551">
        <ele>908</ele>
        <time>2015-12-11T09:33:13Z</time>
      </trkpt>
      <trkpt lat="45.03981" lon="4.52515">
        <ele>910</ele>
        <time>2015-12-11T09:33:17Z</time>
      </trkpt>
      <trkpt lat="45.03978" lon="4.52488">
        <ele>911</ele>
        <time>2015-12-11T09:33:21Z</time>
      </trkpt>
      <trkpt lat="45.03971" lon="4.52462">
        <ele>911</ele>
        <time>2015-12-11T09:33:25Z</time>
      </trkpt>
      <trkpt lat="45.03964" lon="4.52444">
        <ele>911</ele>
        <time>2015-12-11T09:33:28Z</time>
      </trkpt>
      <trkpt lat="45.0395" lon="4.52417">
        <ele>909</ele>
        <time>2015-12-11T09:33:33Z</time>
      </trkpt>
      <trkpt lat="45.03942" lon="4.52392">
        <ele>910</ele>
        <time>2015-12-11T09:33:37Z</time>
      </trkpt>
      <trkpt lat="45.03942" lon="4.52366">
        <ele>910</ele>
        <time>2015-12-11T09:33:41Z</time>
      </trkpt>
      <trkpt lat="45.03947" lon="4.52342">
        <ele>911</ele>
        <time>2015-12-11T09:33:45Z</time>
      </trkpt>
      <trkpt lat="45.03955" lon="4.52318">
        <ele>911</ele>
        <time>2015-12-11T09:33:49Z</time>
      </trkpt>
      <trkpt lat="45.03961" lon="4.52289">
        <ele>913</ele>
        <time>2015-12-11T09:33:53Z</time>
      </trkpt>
      <trkpt lat="45.03964" lon="4.5226">
        <ele>913</ele>
        <time>2015-12-11T09:33:57Z</time>
      </trkpt>
      <trkpt lat="45.03963" lon="4.52246">
        <ele>914</ele>
        <time>2015-12-11T09:34:00Z</time>
      </trkpt>
      <trkpt lat="45.03952" lon="4.52229">
        <ele>913</ele>
        <time>2015-12-11T09:34:04Z</time>
      </trkpt>
      <trkpt lat="45.03937" lon="4.52207">
        <ele>911</ele>
        <time>2015-12-11T09:34:09Z</time>
      </trkpt>
      <trkpt lat="45.0392" lon="4.52183">
        <ele>910</ele>
        <time>2015-12-11T09:34:14Z</time>
      </trkpt>
      <trkpt lat="45.0391" lon="4.52169">
        <ele>909</ele>
        <time>2015-12-11T09:34:18Z</time>
      </trkpt>
      <trkpt lat="45.03901" lon="4.52152">
        <ele>908</ele>
        <time>2015-12-11T09:34:22Z</time>
      </trkpt>
      <trkpt lat="45.03889" lon="4.52138">
        <ele>907</ele>
        <time>2015-12-11T09:34:26Z</time>
      </trkpt>
      <trkpt lat="45.03872" lon="4.52123">
        <ele>906</ele>
        <time>2015-12-11T09:34:31Z</time>
      </trkpt>
      <trkpt lat="45.03864" lon="4.52107">
        <ele>905</ele>
        <time>2015-12-11T09:34:35Z</time>
      </trkpt>
      <trkpt lat="45.03854" lon="4.52105">
        <ele>904</ele>
        <time>2015-12-11T09:34:39Z</time>
      </trkpt>
      <trkpt lat="45.03847" lon="4.52098">
        <ele>902</ele>
        <time>2015-12-11T09:34:45Z</time>
      </trkpt>
      <trkpt lat="45.03846" lon="4.52087">
        <ele>899</ele>
        <time>2015-12-11T09:34:54Z</time>
      </trkpt>
      <trkpt lat="45.03845" lon="4.52075">
        <ele>898</ele>
        <time>2015-12-11T09:35:03Z</time>
      </trkpt>
      <trkpt lat="45.03841" lon="4.52065">
        <ele>896</ele>
        <time>2015-12-11T09:35:10Z</time>
      </trkpt>
      <trkpt lat="45.03837" lon="4.52054">
        <ele>894</ele>
        <time>2015-12-11T09:35:18Z</time>
      </trkpt>
      <trkpt lat="45.03833" lon="4.52043">
        <ele>893</ele>
        <time>2015-12-11T09:35:24Z</time>
      </trkpt>
      <trkpt lat="45.0383" lon="4.52032">
        <ele>891</ele>
        <time>2015-12-11T09:35:37Z</time>
      </trkpt>
      <trkpt lat="45.03826" lon="4.52021">
        <ele>890</ele>
        <time>2015-12-11T09:35:45Z</time>
      </trkpt>
      <trkpt lat="45.03823" lon="4.52011">
        <ele>889</ele>
        <time>2015-12-11T09:35:50Z</time>
      </trkpt>
      <trkpt lat="45.03824" lon="4.52">
        <ele>889</ele>
        <time>2015-12-11T09:35:57Z</time>
      </trkpt>
      <trkpt lat="45.03821" lon="4.5199">
        <ele>888</ele>
        <time>2015-12-11T09:36:03Z</time>
      </trkpt>
      <trkpt lat="45.03816" lon="4.51981">
        <ele>887</ele>
        <time>2015-12-11T09:36:07Z</time>
      </trkpt>
      <trkpt lat="45.03811" lon="4.51969">
        <ele>887</ele>
        <time>2015-12-11T09:36:12Z</time>
      </trkpt>
      <trkpt lat="45.03804" lon="4.51956">
        <ele>886</ele>
        <time>2015-12-11T09:36:16Z</time>
      </trkpt>
      <trkpt lat="45.03801" lon="4.51945">
        <ele>885</ele>
        <time>2015-12-11T09:36:21Z</time>
      </trkpt>
      <trkpt lat="45.03799" lon="4.51925">
        <ele>884</ele>
        <time>2015-12-11T09:36:25Z</time>
      </trkpt>
      <trkpt lat="45.03798" lon="4.51909">
        <ele>884</ele>
        <time>2015-12-11T09:36:29Z</time>
      </trkpt>
      <trkpt lat="45.03801" lon="4.51888">
        <ele>883</ele>
        <time>2015-12-11T09:36:33Z</time>
      </trkpt>
      <trkpt lat="45.03807" lon="4.51862">
        <ele>882</ele>
        <time>2015-12-11T09:36:38Z</time>
      </trkpt>
      <trkpt lat="45.03809" lon="4.51847">
        <ele>882</ele>
        <time>2015-12-11T09:36:41Z</time>
      </trkpt>
      <trkpt lat="45.03804" lon="4.5182">
        <ele>881</ele>
        <time>2015-12-11T09:36:46Z</time>
      </trkpt>
      <trkpt lat="45.03801" lon="4.51805">
        <ele>880</ele>
        <time>2015-12-11T09:36:49Z</time>
      </trkpt>
      <trkpt lat="45.03797" lon="4.5179">
        <ele>880</ele>
        <time>2015-12-11T09:36:53Z</time>
      </trkpt>
      <trkpt lat="45.03791" lon="4.51775">
        <ele>878</ele>
        <time>2015-12-11T09:36:57Z</time>
      </trkpt>
      <trkpt lat="45.03787" lon="4.51764">
        <ele>877</ele>
        <time>2015-12-11T09:37:01Z</time>
      </trkpt>
      <trkpt lat="45.03777" lon="4.51748">
        <ele>874</ele>
        <time>2015-12-11T09:37:05Z</time>
      </trkpt>
      <trkpt lat="45.03767" lon="4.51729">
        <ele>872</ele>
        <time>2015-12-11T09:37:09Z</time>
      </trkpt>
      <trkpt lat="45.03756" lon="4.51708">
        <ele>870</ele>
        <time>2015-12-11T09:37:13Z</time>
      </trkpt>
      <trkpt lat="45.03744" lon="4.51689">
        <ele>868</ele>
        <time>2015-12-11T09:37:17Z</time>
      </trkpt>
      <trkpt lat="45.03734" lon="4.51678">
        <ele>867</ele>
        <time>2015-12-11T09:37:21Z</time>
      </trkpt>
      <trkpt lat="45.03727" lon="4.51668">
        <ele>865</ele>
        <time>2015-12-11T09:37:25Z</time>
      </trkpt>
      <trkpt lat="45.03721" lon="4.51666">
        <ele>863</ele>
        <time>2015-12-11T09:37:29Z</time>
      </trkpt>
      <trkpt lat="45.03714" lon="4.51658">
        <ele>861</ele>
        <time>2015-12-11T09:37:33Z</time>
      </trkpt>
      <trkpt lat="45.03713" lon="4.51644">
        <ele>859</ele>
        <time>2015-12-11T09:37:37Z</time>
      </trkpt>
      <trkpt lat="45.03711" lon="4.51634">
        <ele>858</ele>
        <time>2015-12-11T09:37:40Z</time>
      </trkpt>
      <trkpt lat="45.03704" lon="4.51628">
        <ele>856</ele>
        <time>2015-12-11T09:37:44Z</time>
      </trkpt>
      <trkpt lat="45.03696" lon="4.51626">
        <ele>854</ele>
        <time>2015-12-11T09:37:49Z</time>
      </trkpt>
      <trkpt lat="45.03689" lon="4.51625">
        <ele>853</ele>
        <time>2015-12-11T09:37:53Z</time>
      </trkpt>
      <trkpt lat="45.0368" lon="4.51624">
        <ele>851</ele>
        <time>2015-12-11T09:38:00Z</time>
      </trkpt>
      <trkpt lat="45.03672" lon="4.51625">
        <ele>848</ele>
        <time>2015-12-11T09:38:09Z</time>
      </trkpt>
      <trkpt lat="45.03665" lon="4.5162">
        <ele>846</ele>
        <time>2015-12-11T09:38:17Z</time>
      </trkpt>
      <trkpt lat="45.03658" lon="4.51615">
        <ele>844</ele>
        <time>2015-12-11T09:38:23Z</time>
      </trkpt>
      <trkpt lat="45.03652" lon="4.51611">
        <ele>843</ele>
        <time>2015-12-11T09:38:28Z</time>
      </trkpt>
      <trkpt lat="45.03645" lon="4.51609">
        <ele>842</ele>
        <time>2015-12-11T09:38:35Z</time>
      </trkpt>
      <trkpt lat="45.03637" lon="4.51606">
        <ele>841</ele>
        <time>2015-12-11T09:38:42Z</time>
      </trkpt>
      <trkpt lat="45.0363" lon="4.51606">
        <ele>840</ele>
        <time>2015-12-11T09:38:48Z</time>
      </trkpt>
      <trkpt lat="45.03624" lon="4.516">
        <ele>839</ele>
        <time>2015-12-11T09:38:53Z</time>
      </trkpt>
      <trkpt lat="45.03616" lon="4.51597">
        <ele>837</ele>
        <time>2015-12-11T09:38:59Z</time>
      </trkpt>
      <trkpt lat="45.03608" lon="4.51594">
        <ele>836</ele>
        <time>2015-12-11T09:39:05Z</time>
      </trkpt>
      <trkpt lat="45.036" lon="4.51591">
        <ele>835</ele>
        <time>2015-12-11T09:39:11Z</time>
      </trkpt>
      <trkpt lat="45.03592" lon="4.51587">
        <ele>834</ele>
        <time>2015-12-11T09:39:19Z</time>
      </trkpt>
      <trkpt lat="45.03585" lon="4.51581">
        <ele>833</ele>
        <time>2015-12-11T09:39:28Z</time>
      </trkpt>
      <trkpt lat="45.03579" lon="4.51577">
        <ele>833</ele>
        <time>2015-12-11T09:39:33Z</time>
      </trkpt>
      <trkpt lat="45.03575" lon="4.51575">
        <ele>832</ele>
        <time>2015-12-11T09:39:37Z</time>
      </trkpt>
      <trkpt lat="45.03566" lon="4.51571">
        <ele>832</ele>
        <time>2015-12-11T09:39:42Z</time>
      </trkpt>
      <trkpt lat="45.03558" lon="4.51569">
        <ele>831</ele>
        <time>2015-12-11T09:39:49Z</time>
      </trkpt>
      <trkpt lat="45.03551" lon="4.51564">
        <ele>830</ele>
        <time>2015-12-11T09:39:57Z</time>
      </trkpt>
      <trkpt lat="45.03547" lon="4.51558">
        <ele>829</ele>
        <time>2015-12-11T09:40:01Z</time>
      </trkpt>
      <trkpt lat="45.03543" lon="4.51547">
        <ele>828</ele>
        <time>2015-12-11T09:40:05Z</time>
      </trkpt>
      <trkpt lat="45.03539" lon="4.51539">
        <ele>826</ele>
        <time>2015-12-11T09:40:11Z</time>
      </trkpt>
      <trkpt lat="45.03531" lon="4.51534">
        <ele>825</ele>
        <time>2015-12-11T09:40:19Z</time>
      </trkpt>
      <trkpt lat="45.03524" lon="4.51528">
        <ele>825</ele>
        <time>2015-12-11T09:40:27Z</time>
      </trkpt>
      <trkpt lat="45.03517" lon="4.51524">
        <ele>822</ele>
        <time>2015-12-11T09:40:37Z</time>
      </trkpt>
      <trkpt lat="45.03513" lon="4.51514">
        <ele>821</ele>
        <time>2015-12-11T09:40:45Z</time>
      </trkpt>
      <trkpt lat="45.0351" lon="4.51503">
        <ele>821</ele>
        <time>2015-12-11T09:40:50Z</time>
      </trkpt>
      <trkpt lat="45.03507" lon="4.5149">
        <ele>820</ele>
        <time>2015-12-11T09:40:55Z</time>
      </trkpt>
      <trkpt lat="45.03502" lon="4.51474">
        <ele>820</ele>
        <time>2015-12-11T09:41:00Z</time>
      </trkpt>
      <trkpt lat="45.03498" lon="4.5147">
        <ele>818</ele>
        <time>2015-12-11T09:41:25Z</time>
      </trkpt>
      <trkpt lat="45.0349" lon="4.51459">
        <ele>813</ele>
        <time>2015-12-11T09:41:28Z</time>
      </trkpt>
      <trkpt lat="45.03487" lon="4.51469">
        <ele>811</ele>
        <time>2015-12-11T09:41:43Z</time>
      </trkpt>
      <trkpt lat="45.03484" lon="4.51493">
        <ele>811</ele>
        <time>2015-12-11T09:41:48Z</time>
      </trkpt>
      <trkpt lat="45.03482" lon="4.51506">
        <ele>811</ele>
        <time>2015-12-11T09:41:52Z</time>
      </trkpt>
      <trkpt lat="45.0348" lon="4.51519">
        <ele>811</ele>
        <time>2015-12-11T09:41:57Z</time>
      </trkpt>
      <trkpt lat="45.03479" lon="4.51529">
        <ele>811</ele>
        <time>2015-12-11T09:42:00Z</time>
      </trkpt>
      <trkpt lat="45.03477" lon="4.51545">
        <ele>810</ele>
        <time>2015-12-11T09:42:05Z</time>
      </trkpt>
      <trkpt lat="45.03477" lon="4.51556">
        <ele>810</ele>
        <time>2015-12-11T09:42:10Z</time>
      </trkpt>
      <trkpt lat="45.03476" lon="4.51572">
        <ele>809</ele>
        <time>2015-12-11T09:42:15Z</time>
      </trkpt>
      <trkpt lat="45.03471" lon="4.51569">
        <ele>809</ele>
        <time>2015-12-11T09:42:21Z</time>
      </trkpt>
      <trkpt lat="45.03465" lon="4.51562">
        <ele>808</ele>
        <time>2015-12-11T09:42:25Z</time>
      </trkpt>
      <trkpt lat="45.03462" lon="4.51554">
        <ele>808</ele>
        <time>2015-12-11T09:42:29Z</time>
      </trkpt>
      <trkpt lat="45.03455" lon="4.51545">
        <ele>806</ele>
        <time>2015-12-11T09:42:33Z</time>
      </trkpt>
      <trkpt lat="45.03454" lon="4.51534">
        <ele>804</ele>
        <time>2015-12-11T09:42:39Z</time>
      </trkpt>
      <trkpt lat="45.03446" lon="4.51541">
        <ele>800</ele>
        <time>2015-12-11T09:42:59Z</time>
      </trkpt>
      <trkpt lat="45.03441" lon="4.51556">
        <ele>799</ele>
        <time>2015-12-11T09:43:04Z</time>
      </trkpt>
      <trkpt lat="45.03435" lon="4.51569">
        <ele>799</ele>
        <time>2015-12-11T09:43:09Z</time>
      </trkpt>
      <trkpt lat="45.0343" lon="4.51563">
        <ele>798</ele>
        <time>2015-12-11T09:43:20Z</time>
      </trkpt>
      <trkpt lat="45.03429" lon="4.51557">
        <ele>798</ele>
        <time>2015-12-11T09:43:23Z</time>
      </trkpt>
      <trkpt lat="45.03425" lon="4.51545">
        <ele>798</ele>
        <time>2015-12-11T09:43:27Z</time>
      </trkpt>
      <trkpt lat="45.03422" lon="4.51535">
        <ele>798</ele>
        <time>2015-12-11T09:43:31Z</time>
      </trkpt>
      <trkpt lat="45.03418" lon="4.51519">
        <ele>797</ele>
        <time>2015-12-11T09:43:35Z</time>
      </trkpt>
      <trkpt lat="45.03415" lon="4.51507">
        <ele>797</ele>
        <time>2015-12-11T09:43:38Z</time>
      </trkpt>
      <trkpt lat="45.03402" lon="4.51481">
        <ele>796</ele>
        <time>2015-12-11T09:43:43Z</time>
      </trkpt>
      <trkpt lat="45.03395" lon="4.51465">
        <ele>796</ele>
        <time>2015-12-11T09:43:48Z</time>
      </trkpt>
      <trkpt lat="45.03391" lon="4.51464">
        <ele>795</ele>
        <time>2015-12-11T09:43:51Z</time>
      </trkpt>
      <trkpt lat="45.03383" lon="4.51469">
        <ele>795</ele>
        <time>2015-12-11T09:43:57Z</time>
      </trkpt>
      <trkpt lat="45.03381" lon="4.51489">
        <ele>795</ele>
        <time>2015-12-11T09:44:01Z</time>
      </trkpt>
      <trkpt lat="45.03378" lon="4.51508">
        <ele>794</ele>
        <time>2015-12-11T09:44:04Z</time>
      </trkpt>
      <trkpt lat="45.03369" lon="4.51535">
        <ele>793</ele>
        <time>2015-12-11T09:44:08Z</time>
      </trkpt>
      <trkpt lat="45.03361" lon="4.5157">
        <ele>792</ele>
        <time>2015-12-11T09:44:13Z</time>
      </trkpt>
      <trkpt lat="45.03358" lon="4.51564">
        <ele>789</ele>
        <time>2015-12-11T09:44:25Z</time>
      </trkpt>
      <trkpt lat="45.03354" lon="4.5155">
        <ele>787</ele>
        <time>2015-12-11T09:44:29Z</time>
      </trkpt>
      <trkpt lat="45.03349" lon="4.51546">
        <ele>787</ele>
        <time>2015-12-11T09:44:32Z</time>
      </trkpt>
      <trkpt lat="45.03339" lon="4.51544">
        <ele>784</ele>
        <time>2015-12-11T09:44:37Z</time>
      </trkpt>
      <trkpt lat="45.03334" lon="4.51551">
        <ele>784</ele>
        <time>2015-12-11T09:44:41Z</time>
      </trkpt>
      <trkpt lat="45.03333" lon="4.51563">
        <ele>783</ele>
        <time>2015-12-11T09:44:46Z</time>
      </trkpt>
      <trkpt lat="45.03331" lon="4.5158">
        <ele>781</ele>
        <time>2015-12-11T09:44:51Z</time>
      </trkpt>
      <trkpt lat="45.03329" lon="4.51592">
        <ele>780</ele>
        <time>2015-12-11T09:44:55Z</time>
      </trkpt>
      <trkpt lat="45.03331" lon="4.51602">
        <ele>778</ele>
        <time>2015-12-11T09:44:59Z</time>
      </trkpt>
      <trkpt lat="45.03335" lon="4.51616">
        <ele>775</ele>
        <time>2015-12-11T09:45:03Z</time>
      </trkpt>
      <trkpt lat="45.03336" lon="4.51625">
        <ele>769</ele>
        <time>2015-12-11T09:45:12Z</time>
      </trkpt>
      <trkpt lat="45.03332" lon="4.51635">
        <ele>748</ele>
        <time>2015-12-11T09:45:35Z</time>
      </trkpt>
      <trkpt lat="45.0333" lon="4.51661">
        <ele>748</ele>
        <time>2015-12-11T09:45:39Z</time>
      </trkpt>
      <trkpt lat="45.03333" lon="4.51699">
        <ele>747</ele>
        <time>2015-12-11T09:45:43Z</time>
      </trkpt>
      <trkpt lat="45.03347" lon="4.51743">
        <ele>747</ele>
        <time>2015-12-11T09:45:47Z</time>
      </trkpt>
      <trkpt lat="45.03367" lon="4.51779">
        <ele>746</ele>
        <time>2015-12-11T09:45:51Z</time>
      </trkpt>
      <trkpt lat="45.03393" lon="4.5182">
        <ele>746</ele>
        <time>2015-12-11T09:45:56Z</time>
      </trkpt>
      <trkpt lat="45.03394" lon="4.51845">
        <ele>746</ele>
        <time>2015-12-11T09:45:59Z</time>
      </trkpt>
      <trkpt lat="45.03378" lon="4.51883">
        <ele>745</ele>
        <time>2015-12-11T09:46:03Z</time>
      </trkpt>
      <trkpt lat="45.03352" lon="4.51914">
        <ele>744</ele>
        <time>2015-12-11T09:46:07Z</time>
      </trkpt>
      <trkpt lat="45.03327" lon="4.51943">
        <ele>742</ele>
        <time>2015-12-11T09:46:11Z</time>
      </trkpt>
      <trkpt lat="45.03307" lon="4.51977">
        <ele>740</ele>
        <time>2015-12-11T09:46:15Z</time>
      </trkpt>
      <trkpt lat="45.03298" lon="4.52017">
        <ele>739</ele>
        <time>2015-12-11T09:46:19Z</time>
      </trkpt>
      <trkpt lat="45.03295" lon="4.52033">
        <ele>738</ele>
        <time>2015-12-11T09:46:23Z</time>
      </trkpt>
      <trkpt lat="45.03292" lon="4.52054">
        <ele>737</ele>
        <time>2015-12-11T09:46:27Z</time>
      </trkpt>
      <trkpt lat="45.03294" lon="4.52087">
        <ele>735</ele>
        <time>2015-12-11T09:46:31Z</time>
      </trkpt>
      <trkpt lat="45.033" lon="4.52131">
        <ele>734</ele>
        <time>2015-12-11T09:46:35Z</time>
      </trkpt>
      <trkpt lat="45.03309" lon="4.52179">
        <ele>732</ele>
        <time>2015-12-11T09:46:40Z</time>
      </trkpt>
      <trkpt lat="45.03313" lon="4.52206">
        <ele>730</ele>
        <time>2015-12-11T09:46:44Z</time>
      </trkpt>
      <trkpt lat="45.03318" lon="4.52201">
        <ele>726</ele>
        <time>2015-12-11T09:46:49Z</time>
      </trkpt>
      <trkpt lat="45.03309" lon="4.52177">
        <ele>723</ele>
        <time>2015-12-11T09:46:53Z</time>
      </trkpt>
      <trkpt lat="45.03295" lon="4.52148">
        <ele>721</ele>
        <time>2015-12-11T09:46:57Z</time>
      </trkpt>
      <trkpt lat="45.03277" lon="4.52107">
        <ele>714</ele>
        <time>2015-12-11T09:47:01Z</time>
      </trkpt>
      <trkpt lat="45.03249" lon="4.52065">
        <ele>704</ele>
        <time>2015-12-11T09:47:06Z</time>
      </trkpt>
      <trkpt lat="45.03216" lon="4.52025">
        <ele>696</ele>
        <time>2015-12-11T09:47:11Z</time>
      </trkpt>
      <trkpt lat="45.032" lon="4.51998">
        <ele>693</ele>
        <time>2015-12-11T09:47:14Z</time>
      </trkpt>
      <trkpt lat="45.03172" lon="4.51947">
        <ele>686</ele>
        <time>2015-12-11T09:47:19Z</time>
      </trkpt>
      <trkpt lat="45.03142" lon="4.51912">
        <ele>681</ele>
        <time>2015-12-11T09:47:23Z</time>
      </trkpt>
      <trkpt lat="45.0311" lon="4.51873">
        <ele>676</ele>
        <time>2015-12-11T09:47:28Z</time>
      </trkpt>
      <trkpt lat="45.03095" lon="4.51868">
        <ele>673</ele>
        <time>2015-12-11T09:47:31Z</time>
      </trkpt>
      <trkpt lat="45.03076" lon="4.51861">
        <ele>669</ele>
        <time>2015-12-11T09:47:36Z</time>
      </trkpt>
      <trkpt lat="45.03062" lon="4.51848">
        <ele>666</ele>
        <time>2015-12-11T09:47:40Z</time>
      </trkpt>
      <trkpt lat="45.03034" lon="4.51853">
        <ele>663</ele>
        <time>2015-12-11T09:47:45Z</time>
      </trkpt>
      <trkpt lat="45.03003" lon="4.5186">
        <ele>660</ele>
        <time>2015-12-11T09:47:49Z</time>
      </trkpt>
      <trkpt lat="45.02975" lon="4.5187">
        <ele>658</ele>
        <time>2015-12-11T09:47:52Z</time>
      </trkpt>
      <trkpt lat="45.02925" lon="4.51862">
        <ele>655</ele>
        <time>2015-12-11T09:47:57Z</time>
      </trkpt>
      <trkpt lat="45.02904" lon="4.51851">
        <ele>653</ele>
        <time>2015-12-11T09:48:00Z</time>
      </trkpt>
      <trkpt lat="45.02883" lon="4.51846">
        <ele>650</ele>
        <time>2015-12-11T09:48:04Z</time>
      </trkpt>
      <trkpt lat="45.02858" lon="4.51827">
        <ele>646</ele>
        <time>2015-12-11T09:48:09Z</time>
      </trkpt>
      <trkpt lat="45.02835" lon="4.51815">
        <ele>643</ele>
        <time>2015-12-11T09:48:14Z</time>
      </trkpt>
      <trkpt lat="45.02818" lon="4.51815">
        <ele>641</ele>
        <time>2015-12-11T09:48:19Z</time>
      </trkpt>
      <trkpt lat="45.02805" lon="4.51818">
        <ele>639</ele>
        <time>2015-12-11T09:48:23Z</time>
      </trkpt>
      <trkpt lat="45.02791" lon="4.51824">
        <ele>637</ele>
        <time>2015-12-11T09:48:28Z</time>
      </trkpt>
      <trkpt lat="45.02787" lon="4.51832">
        <ele>635</ele>
        <time>2015-12-11T09:48:31Z</time>
      </trkpt>
      <trkpt lat="45.0278" lon="4.51843">
        <ele>633</ele>
        <time>2015-12-11T09:48:35Z</time>
      </trkpt>
      <trkpt lat="45.02774" lon="4.51853">
        <ele>631</ele>
        <time>2015-12-11T09:48:39Z</time>
      </trkpt>
      <trkpt lat="45.02771" lon="4.51863">
        <ele>628</ele>
        <time>2015-12-11T09:48:44Z</time>
      </trkpt>
      <trkpt lat="45.02771" lon="4.51877">
        <ele>626</ele>
        <time>2015-12-11T09:48:48Z</time>
      </trkpt>
      <trkpt lat="45.02772" lon="4.51891">
        <ele>624</ele>
        <time>2015-12-11T09:48:52Z</time>
      </trkpt>
      <trkpt lat="45.02772" lon="4.51907">
        <ele>622</ele>
        <time>2015-12-11T09:48:56Z</time>
      </trkpt>
      <trkpt lat="45.02771" lon="4.51922">
        <ele>620</ele>
        <time>2015-12-11T09:49:00Z</time>
      </trkpt>
      <trkpt lat="45.0277" lon="4.51933">
        <ele>618</ele>
        <time>2015-12-11T09:49:04Z</time>
      </trkpt>
      <trkpt lat="45.0277" lon="4.51944">
        <ele>617</ele>
        <time>2015-12-11T09:49:07Z</time>
      </trkpt>
      <trkpt lat="45.0277" lon="4.51963">
        <ele>615</ele>
        <time>2015-12-11T09:49:11Z</time>
      </trkpt>
      <trkpt lat="45.02773" lon="4.51985">
        <ele>613</ele>
        <time>2015-12-11T09:49:16Z</time>
      </trkpt>
      <trkpt lat="45.02775" lon="4.51991">
        <ele>611</ele>
        <time>2015-12-11T09:49:20Z</time>
      </trkpt>
      <trkpt lat="45.02766" lon="4.52015">
        <ele>610</ele>
        <time>2015-12-11T09:49:24Z</time>
      </trkpt>
      <trkpt lat="45.02757" lon="4.52018">
        <ele>608</ele>
        <time>2015-12-11T09:49:28Z</time>
      </trkpt>
      <trkpt lat="45.0275" lon="4.52015">
        <ele>606</ele>
        <time>2015-12-11T09:49:32Z</time>
      </trkpt>
      <trkpt lat="45.02745" lon="4.52002">
        <ele>604</ele>
        <time>2015-12-11T09:49:36Z</time>
      </trkpt>
      <trkpt lat="45.0274" lon="4.51998">
        <ele>602</ele>
        <time>2015-12-11T09:49:40Z</time>
      </trkpt>
      <trkpt lat="45.02724" lon="4.51989">
        <ele>601</ele>
        <time>2015-12-11T09:49:45Z</time>
      </trkpt>
      <trkpt lat="45.02717" lon="4.51978">
        <ele>600</ele>
        <time>2015-12-11T09:49:49Z</time>
      </trkpt>
      <trkpt lat="45.02707" lon="4.51963">
        <ele>598</ele>
        <time>2015-12-11T09:49:54Z</time>
      </trkpt>
      <trkpt lat="45.02694" lon="4.51955">
        <ele>597</ele>
        <time>2015-12-11T09:49:58Z</time>
      </trkpt>
      <trkpt lat="45.0268" lon="4.51947">
        <ele>597</ele>
        <time>2015-12-11T09:50:03Z</time>
      </trkpt>
      <trkpt lat="45.02674" lon="4.51939">
        <ele>596</ele>
        <time>2015-12-11T09:50:07Z</time>
      </trkpt>
      <trkpt lat="45.02669" lon="4.51931">
        <ele>595</ele>
        <time>2015-12-11T09:50:10Z</time>
      </trkpt>
      <trkpt lat="45.02664" lon="4.51917">
        <ele>595</ele>
        <time>2015-12-11T09:50:14Z</time>
      </trkpt>
      <trkpt lat="45.0266" lon="4.51902">
        <ele>594</ele>
        <time>2015-12-11T09:50:19Z</time>
      </trkpt>
      <trkpt lat="45.02655" lon="4.51886">
        <ele>593</ele>
        <time>2015-12-11T09:50:23Z</time>
      </trkpt>
      <trkpt lat="45.02652" lon="4.51871">
        <ele>593</ele>
        <time>2015-12-11T09:50:27Z</time>
      </trkpt>
      <trkpt lat="45.02651" lon="4.51859">
        <ele>592</ele>
        <time>2015-12-11T09:50:30Z</time>
      </trkpt>
      <trkpt lat="45.02651" lon="4.51843">
        <ele>592</ele>
        <time>2015-12-11T09:50:34Z</time>
      </trkpt>
      <trkpt lat="45.02646" lon="4.51824">
        <ele>591</ele>
        <time>2015-12-11T09:50:38Z</time>
      </trkpt>
      <trkpt lat="45.02644" lon="4.51806">
        <ele>591</ele>
        <time>2015-12-11T09:50:42Z</time>
      </trkpt>
      <trkpt lat="45.02645" lon="4.51792">
        <ele>590</ele>
        <time>2015-12-11T09:50:45Z</time>
      </trkpt>
      <trkpt lat="45.02642" lon="4.5177">
        <ele>591</ele>
        <time>2015-12-11T09:50:49Z</time>
      </trkpt>
      <trkpt lat="45.02641" lon="4.51753">
        <ele>590</ele>
        <time>2015-12-11T09:50:53Z</time>
      </trkpt>
      <trkpt lat="45.02639" lon="4.51738">
        <ele>590</ele>
        <time>2015-12-11T09:50:57Z</time>
      </trkpt>
      <trkpt lat="45.0264" lon="4.51726">
        <ele>590</ele>
        <time>2015-12-11T09:51:01Z</time>
      </trkpt>
      <trkpt lat="45.02643" lon="4.5171">
        <ele>589</ele>
        <time>2015-12-11T09:51:05Z</time>
      </trkpt>
      <trkpt lat="45.02645" lon="4.51689">
        <ele>590</ele>
        <time>2015-12-11T09:51:09Z</time>
      </trkpt>
      <trkpt lat="45.02646" lon="4.51674">
        <ele>590</ele>
        <time>2015-12-11T09:51:13Z</time>
      </trkpt>
      <trkpt lat="45.02645" lon="4.51654">
        <ele>589</ele>
        <time>2015-12-11T09:51:17Z</time>
      </trkpt>
      <trkpt lat="45.02642" lon="4.51634">
        <ele>588</ele>
        <time>2015-12-11T09:51:22Z</time>
      </trkpt>
      <trkpt lat="45.0264" lon="4.51621">
        <ele>587</ele>
        <time>2015-12-11T09:51:26Z</time>
      </trkpt>
      <trkpt lat="45.02634" lon="4.51601">
        <ele>587</ele>
        <time>2015-12-11T09:51:31Z</time>
      </trkpt>
      <trkpt lat="45.02633" lon="4.51587">
        <ele>588</ele>
        <time>2015-12-11T09:51:34Z</time>
      </trkpt>
      <trkpt lat="45.02631" lon="4.51573">
        <ele>587</ele>
        <time>2015-12-11T09:51:37Z</time>
      </trkpt>
      <trkpt lat="45.02628" lon="4.51558">
        <ele>586</ele>
        <time>2015-12-11T09:51:40Z</time>
      </trkpt>
      <trkpt lat="45.02622" lon="4.51532">
        <ele>585</ele>
        <time>2015-12-11T09:51:45Z</time>
      </trkpt>
      <trkpt lat="45.02618" lon="4.5152">
        <ele>583</ele>
        <time>2015-12-11T09:51:49Z</time>
      </trkpt>
      <trkpt lat="45.02614" lon="4.51511">
        <ele>582</ele>
        <time>2015-12-11T09:51:52Z</time>
      </trkpt>
      <trkpt lat="45.02604" lon="4.5149">
        <ele>579</ele>
        <time>2015-12-11T09:51:57Z</time>
      </trkpt>
      <trkpt lat="45.02595" lon="4.51473">
        <ele>578</ele>
        <time>2015-12-11T09:52:01Z</time>
      </trkpt>
      <trkpt lat="45.02588" lon="4.51456">
        <ele>577</ele>
        <time>2015-12-11T09:52:06Z</time>
      </trkpt>
      <trkpt lat="45.0258" lon="4.51443">
        <ele>577</ele>
        <time>2015-12-11T09:52:11Z</time>
      </trkpt>
      <trkpt lat="45.02572" lon="4.51435">
        <ele>576</ele>
        <time>2015-12-11T09:52:15Z</time>
      </trkpt>
      <trkpt lat="45.02562" lon="4.5142">
        <ele>575</ele>
        <time>2015-12-11T09:52:19Z</time>
      </trkpt>
      <trkpt lat="45.0255" lon="4.51404">
        <ele>574</ele>
        <time>2015-12-11T09:52:24Z</time>
      </trkpt>
      <trkpt lat="45.02541" lon="4.51394">
        <ele>573</ele>
        <time>2015-12-11T09:52:28Z</time>
      </trkpt>
      <trkpt lat="45.02528" lon="4.51381">
        <ele>573</ele>
        <time>2015-12-11T09:52:33Z</time>
      </trkpt>
      <trkpt lat="45.02517" lon="4.51368">
        <ele>573</ele>
        <time>2015-12-11T09:52:37Z</time>
      </trkpt>
      <trkpt lat="45.02504" lon="4.51356">
        <ele>572</ele>
        <time>2015-12-11T09:52:41Z</time>
      </trkpt>
      <trkpt lat="45.02497" lon="4.51353">
        <ele>571</ele>
        <time>2015-12-11T09:52:44Z</time>
      </trkpt>
      <trkpt lat="45.02488" lon="4.51344">
        <ele>572</ele>
        <time>2015-12-11T09:52:49Z</time>
      </trkpt>
      <trkpt lat="45.02477" lon="4.51333">
        <ele>571</ele>
        <time>2015-12-11T09:52:53Z</time>
      </trkpt>
      <trkpt lat="45.02465" lon="4.51326">
        <ele>572</ele>
        <time>2015-12-11T09:52:57Z</time>
      </trkpt>
      <trkpt lat="45.02457" lon="4.51328">
        <ele>572</ele>
        <time>2015-12-11T09:53:02Z</time>
      </trkpt>
      <trkpt lat="45.02444" lon="4.51327">
        <ele>572</ele>
        <time>2015-12-11T09:53:07Z</time>
      </trkpt>
      <trkpt lat="45.02431" lon="4.51319">
        <ele>572</ele>
        <time>2015-12-11T09:53:11Z</time>
      </trkpt>
      <trkpt lat="45.0242" lon="4.51312">
        <ele>571</ele>
        <time>2015-12-11T09:53:15Z</time>
      </trkpt>
      <trkpt lat="45.02409" lon="4.51303">
        <ele>571</ele>
        <time>2015-12-11T09:53:19Z</time>
      </trkpt>
      <trkpt lat="45.02398" lon="4.51299">
        <ele>571</ele>
        <time>2015-12-11T09:53:23Z</time>
      </trkpt>
      <trkpt lat="45.02389" lon="4.513">
        <ele>570</ele>
        <time>2015-12-11T09:53:27Z</time>
      </trkpt>
      <trkpt lat="45.0238" lon="4.5129">
        <ele>569</ele>
        <time>2015-12-11T09:53:32Z</time>
      </trkpt>
      <trkpt lat="45.02374" lon="4.51273">
        <ele>568</ele>
        <time>2015-12-11T09:53:36Z</time>
      </trkpt>
      <trkpt lat="45.02369" lon="4.5126">
        <ele>568</ele>
        <time>2015-12-11T09:53:39Z</time>
      </trkpt>
      <trkpt lat="45.02361" lon="4.51239">
        <ele>566</ele>
        <time>2015-12-11T09:53:44Z</time>
      </trkpt>
      <trkpt lat="45.02353" lon="4.51222">
        <ele>566</ele>
        <time>2015-12-11T09:53:47Z</time>
      </trkpt>
      <trkpt lat="45.02344" lon="4.51188">
        <ele>568</ele>
        <time>2015-12-11T09:53:51Z</time>
      </trkpt>
      <trkpt lat="45.02338" lon="4.51165">
        <ele>567</ele>
        <time>2015-12-11T09:53:55Z</time>
      </trkpt>
      <trkpt lat="45.0233" lon="4.51137">
        <ele>568</ele>
        <time>2015-12-11T09:54:00Z</time>
      </trkpt>
      <trkpt lat="45.02309" lon="4.51105">
        <ele>567</ele>
        <time>2015-12-11T09:54:04Z</time>
      </trkpt>
      <trkpt lat="45.02293" lon="4.51068">
        <ele>567</ele>
        <time>2015-12-11T09:54:09Z</time>
      </trkpt>
      <trkpt lat="45.0228" lon="4.5104">
        <ele>567</ele>
        <time>2015-12-11T09:54:13Z</time>
      </trkpt>
      <trkpt lat="45.02261" lon="4.51016">
        <ele>567</ele>
        <time>2015-12-11T09:54:17Z</time>
      </trkpt>
      <trkpt lat="45.02238" lon="4.50996">
        <ele>566</ele>
        <time>2015-12-11T09:54:20Z</time>
      </trkpt>
      <trkpt lat="45.02217" lon="4.50979">
        <ele>565</ele>
        <time>2015-12-11T09:54:23Z</time>
      </trkpt>
      <trkpt lat="45.02194" lon="4.50953">
        <ele>565</ele>
        <time>2015-12-11T09:54:27Z</time>
      </trkpt>
      <trkpt lat="45.02172" lon="4.50928">
        <ele>564</ele>
        <time>2015-12-11T09:54:32Z</time>
      </trkpt>
      <trkpt lat="45.02161" lon="4.50916">
        <ele>563</ele>
        <time>2015-12-11T09:54:35Z</time>
      </trkpt>
      <trkpt lat="45.02143" lon="4.50902">
        <ele>562</ele>
        <time>2015-12-11T09:54:39Z</time>
      </trkpt>
      <trkpt lat="45.02128" lon="4.50888">
        <ele>561</ele>
        <time>2015-12-11T09:54:43Z</time>
      </trkpt>
      <trkpt lat="45.02114" lon="4.50867">
        <ele>561</ele>
        <time>2015-12-11T09:54:47Z</time>
      </trkpt>
      <trkpt lat="45.02102" lon="4.50847">
        <ele>561</ele>
        <time>2015-12-11T09:54:51Z</time>
      </trkpt>
      <trkpt lat="45.02089" lon="4.50825">
        <ele>560</ele>
        <time>2015-12-11T09:54:56Z</time>
      </trkpt>
      <trkpt lat="45.02081" lon="4.50806">
        <ele>559</ele>
        <time>2015-12-11T09:55:01Z</time>
      </trkpt>
      <trkpt lat="45.02072" lon="4.50794">
        <ele>559</ele>
        <time>2015-12-11T09:55:06Z</time>
      </trkpt>
      <trkpt lat="45.02066" lon="4.50789">
        <ele>560</ele>
        <time>2015-12-11T09:55:09Z</time>
      </trkpt>
      <trkpt lat="45.02058" lon="4.50778">
        <ele>559</ele>
        <time>2015-12-11T09:55:13Z</time>
      </trkpt>
      <trkpt lat="45.02054" lon="4.50769">
        <ele>559</ele>
        <time>2015-12-11T09:55:17Z</time>
      </trkpt>
      <trkpt lat="45.02046" lon="4.50761">
        <ele>558</ele>
        <time>2015-12-11T09:55:21Z</time>
      </trkpt>
      <trkpt lat="45.02036" lon="4.50753">
        <ele>558</ele>
        <time>2015-12-11T09:55:25Z</time>
      </trkpt>
      <trkpt lat="45.02026" lon="4.50742">
        <ele>557</ele>
        <time>2015-12-11T09:55:29Z</time>
      </trkpt>
      <trkpt lat="45.02013" lon="4.50731">
        <ele>558</ele>
        <time>2015-12-11T09:55:33Z</time>
      </trkpt>
      <trkpt lat="45.02006" lon="4.50703">
        <ele>558</ele>
        <time>2015-12-11T09:55:38Z</time>
      </trkpt>
      <trkpt lat="45.02001" lon="4.50685">
        <ele>558</ele>
        <time>2015-12-11T09:55:42Z</time>
      </trkpt>
      <trkpt lat="45.01992" lon="4.50661">
        <ele>558</ele>
        <time>2015-12-11T09:55:46Z</time>
      </trkpt>
      <trkpt lat="45.0198" lon="4.50632">
        <ele>558</ele>
        <time>2015-12-11T09:55:51Z</time>
      </trkpt>
      <trkpt lat="45.01974" lon="4.50612">
        <ele>557</ele>
        <time>2015-12-11T09:55:55Z</time>
      </trkpt>
      <trkpt lat="45.01969" lon="4.50601">
        <ele>557</ele>
        <time>2015-12-11T09:55:59Z</time>
      </trkpt>
      <trkpt lat="45.01964" lon="4.50588">
        <ele>557</ele>
        <time>2015-12-11T09:56:04Z</time>
      </trkpt>
      <trkpt lat="45.01959" lon="4.50574">
        <ele>557</ele>
        <time>2015-12-11T09:56:07Z</time>
      </trkpt>
      <trkpt lat="45.01948" lon="4.5056">
        <ele>558</ele>
        <time>2015-12-11T09:56:11Z</time>
      </trkpt>
      <trkpt lat="45.01932" lon="4.50546">
        <ele>557</ele>
        <time>2015-12-11T09:56:16Z</time>
      </trkpt>
      <trkpt lat="45.01923" lon="4.50538">
        <ele>557</ele>
        <time>2015-12-11T09:56:19Z</time>
      </trkpt>
      <trkpt lat="45.01909" lon="4.50525">
        <ele>557</ele>
        <time>2015-12-11T09:56:23Z</time>
      </trkpt>
      <trkpt lat="45.01898" lon="4.50512">
        <ele>557</ele>
        <time>2015-12-11T09:56:27Z</time>
      </trkpt>
      <trkpt lat="45.01891" lon="4.50505">
        <ele>557</ele>
        <time>2015-12-11T09:56:29Z</time>
      </trkpt>
      <trkpt lat="45.01879" lon="4.50496">
        <ele>557</ele>
        <time>2015-12-11T09:56:33Z</time>
      </trkpt>
      <trkpt lat="45.01863" lon="4.5049">
        <ele>556</ele>
        <time>2015-12-11T09:56:37Z</time>
      </trkpt>
      <trkpt lat="45.01855" lon="4.50488">
        <ele>556</ele>
        <time>2015-12-11T09:56:39Z</time>
      </trkpt>
      <trkpt lat="45.0184" lon="4.50486">
        <ele>556</ele>
        <time>2015-12-11T09:56:44Z</time>
      </trkpt>
      <trkpt lat="45.01826" lon="4.50479">
        <ele>555</ele>
        <time>2015-12-11T09:56:48Z</time>
      </trkpt>
      <trkpt lat="45.01808" lon="4.50464">
        <ele>556</ele>
        <time>2015-12-11T09:56:53Z</time>
      </trkpt>
      <trkpt lat="45.01794" lon="4.50432">
        <ele>556</ele>
        <time>2015-12-11T09:56:58Z</time>
      </trkpt>
      <trkpt lat="45.01786" lon="4.50408">
        <ele>556</ele>
        <time>2015-12-11T09:57:01Z</time>
      </trkpt>
      <trkpt lat="45.01776" lon="4.5039">
        <ele>556</ele>
        <time>2015-12-11T09:57:05Z</time>
      </trkpt>
      <trkpt lat="45.01763" lon="4.5038">
        <ele>555</ele>
        <time>2015-12-11T09:57:10Z</time>
      </trkpt>
      <trkpt lat="45.01746" lon="4.50366">
        <ele>554</ele>
        <time>2015-12-11T09:57:15Z</time>
      </trkpt>
      <trkpt lat="45.01729" lon="4.50356">
        <ele>553</ele>
        <time>2015-12-11T09:57:20Z</time>
      </trkpt>
      <trkpt lat="45.0172" lon="4.50348">
        <ele>552</ele>
        <time>2015-12-11T09:57:23Z</time>
      </trkpt>
      <trkpt lat="45.01712" lon="4.50343">
        <ele>552</ele>
        <time>2015-12-11T09:57:27Z</time>
      </trkpt>
      <trkpt lat="45.01698" lon="4.50331">
        <ele>552</ele>
        <time>2015-12-11T09:57:31Z</time>
      </trkpt>
      <trkpt lat="45.01686" lon="4.50323">
        <ele>551</ele>
        <time>2015-12-11T09:57:36Z</time>
      </trkpt>
      <trkpt lat="45.01679" lon="4.50323">
        <ele>550</ele>
        <time>2015-12-11T09:57:38Z</time>
      </trkpt>
      <trkpt lat="45.01661" lon="4.50317">
        <ele>551</ele>
        <time>2015-12-11T09:57:42Z</time>
      </trkpt>
      <trkpt lat="45.01649" lon="4.50317">
        <ele>551</ele>
        <time>2015-12-11T09:57:45Z</time>
      </trkpt>
      <trkpt lat="45.01633" lon="4.50318">
        <ele>550</ele>
        <time>2015-12-11T09:57:50Z</time>
      </trkpt>
      <trkpt lat="45.01622" lon="4.5032">
        <ele>549</ele>
        <time>2015-12-11T09:57:55Z</time>
      </trkpt>
      <trkpt lat="45.01604" lon="4.50315">
        <ele>549</ele>
        <time>2015-12-11T09:57:59Z</time>
      </trkpt>
      <trkpt lat="45.0159" lon="4.50309">
        <ele>550</ele>
        <time>2015-12-11T09:58:03Z</time>
      </trkpt>
      <trkpt lat="45.01581" lon="4.50304">
        <ele>551</ele>
        <time>2015-12-11T09:58:06Z</time>
      </trkpt>
      <trkpt lat="45.01566" lon="4.50284">
        <ele>550</ele>
        <time>2015-12-11T09:58:11Z</time>
      </trkpt>
      <trkpt lat="45.01546" lon="4.50261">
        <ele>552</ele>
        <time>2015-12-11T09:58:15Z</time>
      </trkpt>
      <trkpt lat="45.01528" lon="4.50249">
        <ele>552</ele>
        <time>2015-12-11T09:58:19Z</time>
      </trkpt>
      <trkpt lat="45.01517" lon="4.50236">
        <ele>553</ele>
        <time>2015-12-11T09:58:23Z</time>
      </trkpt>
      <trkpt lat="45.01509" lon="4.50221">
        <ele>553</ele>
        <time>2015-12-11T09:58:27Z</time>
      </trkpt>
      <trkpt lat="45.01506" lon="4.50213">
        <ele>553</ele>
        <time>2015-12-11T09:58:31Z</time>
      </trkpt>
      <trkpt lat="45.01502" lon="4.50203">
        <ele>553</ele>
        <time>2015-12-11T09:58:35Z</time>
      </trkpt>
      <trkpt lat="45.01493" lon="4.50204">
        <ele>551</ele>
        <time>2015-12-11T09:58:43Z</time>
      </trkpt>
      <trkpt lat="45.01485" lon="4.50195">
        <ele>553</ele>
        <time>2015-12-11T09:58:46Z</time>
      </trkpt>
      <trkpt lat="45.0148" lon="4.50186">
        <ele>554</ele>
        <time>2015-12-11T09:58:51Z</time>
      </trkpt>
      <trkpt lat="45.01472" lon="4.50184">
        <ele>553</ele>
        <time>2015-12-11T09:59:03Z</time>
      </trkpt>
      <trkpt lat="45.01463" lon="4.50185">
        <ele>552</ele>
        <time>2015-12-11T09:59:13Z</time>
      </trkpt>
      <trkpt lat="45.01456" lon="4.50183">
        <ele>550</ele>
        <time>2015-12-11T09:59:24Z</time>
      </trkpt>
      <trkpt lat="45.01447" lon="4.50183">
        <ele>550</ele>
        <time>2015-12-11T09:59:30Z</time>
      </trkpt>
      <trkpt lat="45.01438" lon="4.5017">
        <ele>550</ele>
        <time>2015-12-11T09:59:34Z</time>
      </trkpt>
      <trkpt lat="45.01434" lon="4.50159">
        <ele>550</ele>
        <time>2015-12-11T09:59:38Z</time>
      </trkpt>
      <trkpt lat="45.01429" lon="4.5015">
        <ele>550</ele>
        <time>2015-12-11T09:59:42Z</time>
      </trkpt>
      <trkpt lat="45.01425" lon="4.5014">
        <ele>550</ele>
        <time>2015-12-11T09:59:47Z</time>
      </trkpt>
      <trkpt lat="45.01418" lon="4.50128">
        <ele>549</ele>
        <time>2015-12-11T09:59:51Z</time>
      </trkpt>
      <trkpt lat="45.01415" lon="4.50124">
        <ele>548</ele>
        <time>2015-12-11T09:59:54Z</time>
      </trkpt>
      <trkpt lat="45.01398" lon="4.50101">
        <ele>547</ele>
        <time>2015-12-11T09:59:59Z</time>
      </trkpt>
      <trkpt lat="45.01386" lon="4.50087">
        <ele>545</ele>
        <time>2015-12-11T10:00:03Z</time>
      </trkpt>
      <trkpt lat="45.01376" lon="4.50079">
        <ele>544</ele>
        <time>2015-12-11T10:00:07Z</time>
      </trkpt>
      <trkpt lat="45.01374" lon="4.5009">
        <ele>543</ele>
        <time>2015-12-11T10:00:12Z</time>
      </trkpt>
      <trkpt lat="45.01374" lon="4.50099">
        <ele>542</ele>
        <time>2015-12-11T10:00:15Z</time>
      </trkpt>
      <trkpt lat="45.01372" lon="4.50109">
        <ele>542</ele>
        <time>2015-12-11T10:00:18Z</time>
      </trkpt>
      <trkpt lat="45.01369" lon="4.50123">
        <ele>541</ele>
        <time>2015-12-11T10:00:22Z</time>
      </trkpt>
      <trkpt lat="45.01365" lon="4.50137">
        <ele>541</ele>
        <time>2015-12-11T10:00:25Z</time>
      </trkpt>
      <trkpt lat="45.01363" lon="4.50159">
        <ele>541</ele>
        <time>2015-12-11T10:00:29Z</time>
      </trkpt>
      <trkpt lat="45.0136" lon="4.50175">
        <ele>540</ele>
        <time>2015-12-11T10:00:32Z</time>
      </trkpt>
      <trkpt lat="45.01356" lon="4.50203">
        <ele>538</ele>
        <time>2015-12-11T10:00:37Z</time>
      </trkpt>
      <trkpt lat="45.01353" lon="4.5022">
        <ele>538</ele>
        <time>2015-12-11T10:00:40Z</time>
      </trkpt>
      <trkpt lat="45.01353" lon="4.50249">
        <ele>536</ele>
        <time>2015-12-11T10:00:45Z</time>
      </trkpt>
      <trkpt lat="45.01353" lon="4.50274">
        <ele>535</ele>
        <time>2015-12-11T10:00:49Z</time>
      </trkpt>
      <trkpt lat="45.01353" lon="4.50301">
        <ele>533</ele>
        <time>2015-12-11T10:00:53Z</time>
      </trkpt>
      <trkpt lat="45.01356" lon="4.50332">
        <ele>533</ele>
        <time>2015-12-11T10:00:57Z</time>
      </trkpt>
      <trkpt lat="45.01357" lon="4.50357">
        <ele>533</ele>
        <time>2015-12-11T10:01:01Z</time>
      </trkpt>
      <trkpt lat="45.01357" lon="4.50381">
        <ele>533</ele>
        <time>2015-12-11T10:01:05Z</time>
      </trkpt>
      <trkpt lat="45.0135" lon="4.50409">
        <ele>532</ele>
        <time>2015-12-11T10:01:09Z</time>
      </trkpt>
      <trkpt lat="45.01344" lon="4.50439">
        <ele>531</ele>
        <time>2015-12-11T10:01:13Z</time>
      </trkpt>
      <trkpt lat="45.0133" lon="4.50458">
        <ele>530</ele>
        <time>2015-12-11T10:01:18Z</time>
      </trkpt>
      <trkpt lat="45.01319" lon="4.50459">
        <ele>531</ele>
        <time>2015-12-11T10:01:21Z</time>
      </trkpt>
      <trkpt lat="45.01303" lon="4.50456">
        <ele>531</ele>
        <time>2015-12-11T10:01:25Z</time>
      </trkpt>
      <trkpt lat="45.01284" lon="4.50454">
        <ele>531</ele>
        <time>2015-12-11T10:01:29Z</time>
      </trkpt>
      <trkpt lat="45.01271" lon="4.50457">
        <ele>532</ele>
        <time>2015-12-11T10:01:32Z</time>
      </trkpt>
      <trkpt lat="45.01252" lon="4.5047">
        <ele>529</ele>
        <time>2015-12-11T10:01:36Z</time>
      </trkpt>
      <trkpt lat="45.01228" lon="4.50481">
        <ele>528</ele>
        <time>2015-12-11T10:01:40Z</time>
      </trkpt>
      <trkpt lat="45.01205" lon="4.50495">
        <ele>526</ele>
        <time>2015-12-11T10:01:45Z</time>
      </trkpt>
      <trkpt lat="45.01186" lon="4.5051">
        <ele>525</ele>
        <time>2015-12-11T10:01:49Z</time>
      </trkpt>
      <trkpt lat="45.01172" lon="4.50527">
        <ele>523</ele>
        <time>2015-12-11T10:01:53Z</time>
      </trkpt>
      <trkpt lat="45.01161" lon="4.50539">
        <ele>522</ele>
        <time>2015-12-11T10:01:57Z</time>
      </trkpt>
      <trkpt lat="45.01154" lon="4.50544">
        <ele>520</ele>
        <time>2015-12-11T10:02:00Z</time>
      </trkpt>
      <trkpt lat="45.01143" lon="4.50543">
        <ele>518</ele>
        <time>2015-12-11T10:02:04Z</time>
      </trkpt>
      <trkpt lat="45.01126" lon="4.50531">
        <ele>517</ele>
        <time>2015-12-11T10:02:08Z</time>
      </trkpt>
      <trkpt lat="45.01107" lon="4.50508">
        <ele>516</ele>
        <time>2015-12-11T10:02:12Z</time>
      </trkpt>
      <trkpt lat="45.01091" lon="4.50483">
        <ele>514</ele>
        <time>2015-12-11T10:02:15Z</time>
      </trkpt>
      <trkpt lat="45.01073" lon="4.50458">
        <ele>512</ele>
        <time>2015-12-11T10:02:19Z</time>
      </trkpt>
      <trkpt lat="45.01045" lon="4.50454">
        <ele>510</ele>
        <time>2015-12-11T10:02:24Z</time>
      </trkpt>
      <trkpt lat="45.01027" lon="4.50468">
        <ele>509</ele>
        <time>2015-12-11T10:02:27Z</time>
      </trkpt>
      <trkpt lat="45.01001" lon="4.50463">
        <ele>507</ele>
        <time>2015-12-11T10:02:31Z</time>
      </trkpt>
      <trkpt lat="45.00993" lon="4.50454">
        <ele>506</ele>
        <time>2015-12-11T10:02:34Z</time>
      </trkpt>
      <trkpt lat="45.01001" lon="4.50432">
        <ele>504</ele>
        <time>2015-12-11T10:02:39Z</time>
      </trkpt>
      <trkpt lat="45.01022" lon="4.50415">
        <ele>500</ele>
        <time>2015-12-11T10:02:43Z</time>
      </trkpt>
      <trkpt lat="45.01045" lon="4.504">
        <ele>498</ele>
        <time>2015-12-11T10:02:47Z</time>
      </trkpt>
      <trkpt lat="45.01069" lon="4.50409">
        <ele>495</ele>
        <time>2015-12-11T10:02:51Z</time>
      </trkpt>
      <trkpt lat="45.01081" lon="4.50405">
        <ele>493</ele>
        <time>2015-12-11T10:02:55Z</time>
      </trkpt>
      <trkpt lat="45.01067" lon="4.50386">
        <ele>490</ele>
        <time>2015-12-11T10:02:59Z</time>
      </trkpt>
      <trkpt lat="45.01041" lon="4.50373">
        <ele>487</ele>
        <time>2015-12-11T10:03:03Z</time>
      </trkpt>
      <trkpt lat="45.01009" lon="4.50375">
        <ele>484</ele>
        <time>2015-12-11T10:03:07Z</time>
      </trkpt>
      <trkpt lat="45.00977" lon="4.50382">
        <ele>482</ele>
        <time>2015-12-11T10:03:11Z</time>
      </trkpt>
      <trkpt lat="45.00951" lon="4.50362">
        <ele>479</ele>
        <time>2015-12-11T10:03:16Z</time>
      </trkpt>
      <trkpt lat="45.00938" lon="4.50339">
        <ele>477</ele>
        <time>2015-12-11T10:03:19Z</time>
      </trkpt>
      <trkpt lat="45.00907" lon="4.50325">
        <ele>475</ele>
        <time>2015-12-11T10:03:23Z</time>
      </trkpt>
      <trkpt lat="45.00866" lon="4.50348">
        <ele>471</ele>
        <time>2015-12-11T10:03:28Z</time>
      </trkpt>
      <trkpt lat="45.0085" lon="4.50376">
        <ele>469</ele>
        <time>2015-12-11T10:03:31Z</time>
      </trkpt>
      <trkpt lat="45.00833" lon="4.50425">
        <ele>466</ele>
        <time>2015-12-11T10:03:35Z</time>
      </trkpt>
      <trkpt lat="45.00813" lon="4.50486">
        <ele>463</ele>
        <time>2015-12-11T10:03:39Z</time>
      </trkpt>
      <trkpt lat="45.00785" lon="4.50564">
        <ele>459</ele>
        <time>2015-12-11T10:03:44Z</time>
      </trkpt>
      <trkpt lat="45.00758" lon="4.50617">
        <ele>457</ele>
        <time>2015-12-11T10:03:48Z</time>
      </trkpt>
      <trkpt lat="45.00735" lon="4.50676">
        <ele>453</ele>
        <time>2015-12-11T10:03:52Z</time>
      </trkpt>
      <trkpt lat="45.00702" lon="4.50721">
        <ele>451</ele>
        <time>2015-12-11T10:03:56Z</time>
      </trkpt>
      <trkpt lat="45.00674" lon="4.50741">
        <ele>449</ele>
        <time>2015-12-11T10:03:59Z</time>
      </trkpt>
      <trkpt lat="45.00648" lon="4.50757">
        <ele>446</ele>
        <time>2015-12-11T10:04:03Z</time>
      </trkpt>
      <trkpt lat="45.00635" lon="4.50744">
        <ele>443</ele>
        <time>2015-12-11T10:04:07Z</time>
      </trkpt>
      <trkpt lat="45.0063" lon="4.50716">
        <ele>439</ele>
        <time>2015-12-11T10:04:11Z</time>
      </trkpt>
      <trkpt lat="45.00619" lon="4.50711">
        <ele>436</ele>
        <time>2015-12-11T10:04:14Z</time>
      </trkpt>
      <trkpt lat="45.00602" lon="4.50729">
        <ele>432</ele>
        <time>2015-12-11T10:04:18Z</time>
      </trkpt>
      <trkpt lat="45.006" lon="4.50749">
        <ele>430</ele>
        <time>2015-12-11T10:04:21Z</time>
      </trkpt>
      <trkpt lat="45.006" lon="4.5078">
        <ele>426</ele>
        <time>2015-12-11T10:04:25Z</time>
      </trkpt>
      <trkpt lat="45.00589" lon="4.50799">
        <ele>424</ele>
        <time>2015-12-11T10:04:28Z</time>
      </trkpt>
      <trkpt lat="45.00567" lon="4.50807">
        <ele>420</ele>
        <time>2015-12-11T10:04:33Z</time>
      </trkpt>
      <trkpt lat="45.00549" lon="4.50805">
        <ele>417</ele>
        <time>2015-12-11T10:04:36Z</time>
      </trkpt>
      <trkpt lat="45.00523" lon="4.50805">
        <ele>416</ele>
        <time>2015-12-11T10:04:40Z</time>
      </trkpt>
      <trkpt lat="45.00498" lon="4.50819">
        <ele>415</ele>
        <time>2015-12-11T10:04:45Z</time>
      </trkpt>
      <trkpt lat="45.00481" lon="4.50855">
        <ele>412</ele>
        <time>2015-12-11T10:04:50Z</time>
      </trkpt>
      <trkpt lat="45.00468" lon="4.50879">
        <ele>410</ele>
        <time>2015-12-11T10:04:53Z</time>
      </trkpt>
      <trkpt lat="45.00454" lon="4.50918">
        <ele>408</ele>
        <time>2015-12-11T10:04:57Z</time>
      </trkpt>
      <trkpt lat="45.00441" lon="4.50953">
        <ele>407</ele>
        <time>2015-12-11T10:05:01Z</time>
      </trkpt>
      <trkpt lat="45.00433" lon="4.50977">
        <ele>407</ele>
        <time>2015-12-11T10:05:04Z</time>
      </trkpt>
      <trkpt lat="45.00416" lon="4.51013">
        <ele>405</ele>
        <time>2015-12-11T10:05:09Z</time>
      </trkpt>
      <trkpt lat="45.00403" lon="4.51033">
        <ele>405</ele>
        <time>2015-12-11T10:05:13Z</time>
      </trkpt>
      <trkpt lat="45.00392" lon="4.51049">
        <ele>404</ele>
        <time>2015-12-11T10:05:17Z</time>
      </trkpt>
      <trkpt lat="45.00378" lon="4.51068">
        <ele>403</ele>
        <time>2015-12-11T10:05:21Z</time>
      </trkpt>
      <trkpt lat="45.00365" lon="4.51088">
        <ele>402</ele>
        <time>2015-12-11T10:05:25Z</time>
      </trkpt>
      <trkpt lat="45.00354" lon="4.5111">
        <ele>401</ele>
        <time>2015-12-11T10:05:29Z</time>
      </trkpt>
      <trkpt lat="45.00336" lon="4.51143">
        <ele>400</ele>
        <time>2015-12-11T10:05:34Z</time>
      </trkpt>
      <trkpt lat="45.00322" lon="4.51174">
        <ele>399</ele>
        <time>2015-12-11T10:05:39Z</time>
      </trkpt>
      <trkpt lat="45.00309" lon="4.51189">
        <ele>398</ele>
        <time>2015-12-11T10:05:43Z</time>
      </trkpt>
      <trkpt lat="45.00297" lon="4.51202">
        <ele>397</ele>
        <time>2015-12-11T10:05:47Z</time>
      </trkpt>
      <trkpt lat="45.00286" lon="4.51209">
        <ele>397</ele>
        <time>2015-12-11T10:05:51Z</time>
      </trkpt>
      <trkpt lat="45.00279" lon="4.51216">
        <ele>396</ele>
        <time>2015-12-11T10:05:55Z</time>
      </trkpt>
      <trkpt lat="45.00272" lon="4.51219">
        <ele>395</ele>
        <time>2015-12-11T10:05:59Z</time>
      </trkpt>
      <trkpt lat="45.00267" lon="4.51225">
        <ele>398</ele>
        <time>2015-12-11T10:06:12Z</time>
      </trkpt>
      <trkpt lat="45.00262" lon="4.51235">
        <ele>398</ele>
        <time>2015-12-11T10:06:16Z</time>
      </trkpt>
      <trkpt lat="45.00254" lon="4.51249">
        <ele>398</ele>
        <time>2015-12-11T10:06:21Z</time>
      </trkpt>
      <trkpt lat="45.00248" lon="4.51262">
        <ele>399</ele>
        <time>2015-12-11T10:06:25Z</time>
      </trkpt>
      <trkpt lat="45.0024" lon="4.51273">
        <ele>399</ele>
        <time>2015-12-11T10:06:29Z</time>
      </trkpt>
      <trkpt lat="45.00235" lon="4.51285">
        <ele>399</ele>
        <time>2015-12-11T10:06:33Z</time>
      </trkpt>
      <trkpt lat="45.00229" lon="4.51296">
        <ele>399</ele>
        <time>2015-12-11T10:06:37Z</time>
      </trkpt>
      <trkpt lat="45.0022" lon="4.51309">
        <ele>398</ele>
        <time>2015-12-11T10:06:42Z</time>
      </trkpt>
      <trkpt lat="45.00214" lon="4.51323">
        <ele>398</ele>
        <time>2015-12-11T10:06:46Z</time>
      </trkpt>
      <trkpt lat="45.00206" lon="4.51337">
        <ele>397</ele>
        <time>2015-12-11T10:06:50Z</time>
      </trkpt>
      <trkpt lat="45.00194" lon="4.51355">
        <ele>397</ele>
        <time>2015-12-11T10:06:55Z</time>
      </trkpt>
      <trkpt lat="45.0018" lon="4.51372">
        <ele>396</ele>
        <time>2015-12-11T10:06:59Z</time>
      </trkpt>
      <trkpt lat="45.00165" lon="4.51402">
        <ele>396</ele>
        <time>2015-12-11T10:07:03Z</time>
      </trkpt>
      <trkpt lat="45.00151" lon="4.51417">
        <ele>396</ele>
        <time>2015-12-11T10:07:06Z</time>
      </trkpt>
      <trkpt lat="45.00132" lon="4.51445">
        <ele>396</ele>
        <time>2015-12-11T10:07:10Z</time>
      </trkpt>
      <trkpt lat="45.00108" lon="4.51467">
        <ele>397</ele>
        <time>2015-12-11T10:07:14Z</time>
      </trkpt>
      <trkpt lat="45.00071" lon="4.51488">
        <ele>398</ele>
        <time>2015-12-11T10:07:19Z</time>
      </trkpt>
      <trkpt lat="45.00049" lon="4.51514">
        <ele>398</ele>
        <time>2015-12-11T10:07:23Z</time>
      </trkpt>
      <trkpt lat="45.00028" lon="4.51545">
        <ele>398</ele>
        <time>2015-12-11T10:07:27Z</time>
      </trkpt>
      <trkpt lat="45.00004" lon="4.51577">
        <ele>398</ele>
        <time>2015-12-11T10:07:31Z</time>
      </trkpt>
      <trkpt lat="44.99978" lon="4.51603">
        <ele>398</ele>
        <time>2015-12-11T10:07:35Z</time>
      </trkpt>
      <trkpt lat="44.99954" lon="4.5163">
        <ele>397</ele>
        <time>2015-12-11T10:07:39Z</time>
      </trkpt>
      <trkpt lat="44.99927" lon="4.51647">
        <ele>397</ele>
        <time>2015-12-11T10:07:43Z</time>
      </trkpt>
      <trkpt lat="44.99897" lon="4.51637">
        <ele>397</ele>
        <time>2015-12-11T10:07:48Z</time>
      </trkpt>
      <trkpt lat="44.99874" lon="4.51623">
        <ele>397</ele>
        <time>2015-12-11T10:07:53Z</time>
      </trkpt>
      <trkpt lat="44.9986" lon="4.51614">
        <ele>397</ele>
        <time>2015-12-11T10:07:56Z</time>
      </trkpt>
      <trkpt lat="44.99836" lon="4.51596">
        <ele>398</ele>
        <time>2015-12-11T10:08:01Z</time>
      </trkpt>
      <trkpt lat="44.9982" lon="4.5159">
        <ele>398</ele>
        <time>2015-12-11T10:08:04Z</time>
      </trkpt>
      <trkpt lat="44.99806" lon="4.51593">
        <ele>398</ele>
        <time>2015-12-11T10:08:07Z</time>
      </trkpt>
      <trkpt lat="44.99788" lon="4.51605">
        <ele>399</ele>
        <time>2015-12-11T10:08:12Z</time>
      </trkpt>
      <trkpt lat="44.9978" lon="4.51613">
        <ele>399</ele>
        <time>2015-12-11T10:08:15Z</time>
      </trkpt>
      <trkpt lat="44.99774" lon="4.51622">
        <ele>399</ele>
        <time>2015-12-11T10:08:19Z</time>
      </trkpt>
      <trkpt lat="44.99765" lon="4.51632">
        <ele>400</ele>
        <time>2015-12-11T10:08:23Z</time>
      </trkpt>
      <trkpt lat="44.99754" lon="4.51637">
        <ele>400</ele>
        <time>2015-12-11T10:08:27Z</time>
      </trkpt>
      <trkpt lat="44.99744" lon="4.51647">
        <ele>401</ele>
        <time>2015-12-11T10:08:31Z</time>
      </trkpt>
      <trkpt lat="44.99734" lon="4.51655">
        <ele>401</ele>
        <time>2015-12-11T10:08:35Z</time>
      </trkpt>
      <trkpt lat="44.99725" lon="4.51658">
        <ele>402</ele>
        <time>2015-12-11T10:08:39Z</time>
      </trkpt>
      <trkpt lat="44.99715" lon="4.51663">
        <ele>402</ele>
        <time>2015-12-11T10:08:43Z</time>
      </trkpt>
      <trkpt lat="44.99704" lon="4.51664">
        <ele>402</ele>
        <time>2015-12-11T10:08:47Z</time>
      </trkpt>
      <trkpt lat="44.99696" lon="4.51665">
        <ele>402</ele>
        <time>2015-12-11T10:08:50Z</time>
      </trkpt>
      <trkpt lat="44.99683" lon="4.51663">
        <ele>402</ele>
        <time>2015-12-11T10:08:55Z</time>
      </trkpt>
      <trkpt lat="44.9967" lon="4.51658">
        <ele>401</ele>
        <time>2015-12-11T10:09:00Z</time>
      </trkpt>
      <trkpt lat="44.99661" lon="4.51654">
        <ele>402</ele>
        <time>2015-12-11T10:09:03Z</time>
      </trkpt>
      <trkpt lat="44.9965" lon="4.51646">
        <ele>402</ele>
        <time>2015-12-11T10:09:07Z</time>
      </trkpt>
      <trkpt lat="44.99637" lon="4.51644">
        <ele>403</ele>
        <time>2015-12-11T10:09:12Z</time>
      </trkpt>
      <trkpt lat="44.99624" lon="4.51641">
        <ele>407</ele>
        <time>2015-12-11T10:09:17Z</time>
      </trkpt>
      <trkpt lat="44.9962" lon="4.5165">
        <ele>408</ele>
        <time>2015-12-11T10:09:44Z</time>
      </trkpt>
      <trkpt lat="44.9962" lon="4.5165">
        <ele>408</ele>
        <time>2015-12-11T10:09:45Z</time>
      </trkpt>
    </trkseg>
  </trk>
</gpx>